[[{"header":{"parameterUnit":"m.s-1","parameterCategory":1,"la1":31.0,"la2":29.5877,"lo1":-88.7671,"lo2":-86.6584,"dy":0.0162,"dx":0.0185,"nx":115,"ny":88,"refTime":"2023-11-13T06:00:00:Z","depth":0,"parameterNumber":2,"parameterNumberName":"U-component_of_WINDS"},"data":[0.0,0.0,0.0,0.0,0.0,0.0,0.0,0.0,0.0,0.0,0.0,0.0,0.0,0.0,0.0,0.0,0.0,0.0,0.0,0.0,0.0,0.0,0.0,0.0,0.0,0.0,0.0,0.0,0.0,0.0,0.0,0.0,0.0,0.0,0.0,0.0,0.0,0.0,0.0,0.0,0.0,0.0,0.0,0.0,0.0,0.0,0.0,0.0,0.0,0.0,0.0,0.0,0.0,0.0,0.0,0.0,0.0,0.0,0.0,0.0,0.0,0.0,0.0,0.0,0.0,0.0,0.0,0.0,0.0,0.0,0.0,0.0,0.0,0.0,0.0,0.0,0.0,0.0,0.0,0.0,0.0,0.0,0.0,0.0,0.0,0.0,0.0,0.0,0.0,0.0,0.0,0.0,0.0,0.0,0.0,0.0,0.0,0.0,0.0,0.0,0.0,0.0,0.0,0.0,0.0,0.0,0.0,0.0,0.0,0.0,0.0,0.0,0.0,0.0,0.0,0.0,0.0,0.0,0.0,0.0,0.0,0.0,0.0,0.0,0.0,0.0,0.0,0.0,0.0,0.0,0.0,0.0,0.0,0.0,0.0,0.0,0.0,0.0,0.0,0.0,0.0,0.0,0.0,0.0,0.0,0.0,0.0,0.0,0.0,0.0,0.0,0.0,0.0,0.0,0.0,0.0,0.0,0.0,0.0,0.0,0.0,0.0,0.0,0.0,0.0,0.0,0.0,0.0,0.0,0.0,0.0,0.0,0.0,0.0,0.0,0.0,0.0,0.0,0.0,0.0,0.0,0.0,0.0,0.0,0.0,0.0,0.0,0.0,0.0,0.0,0.0,0.0,0.0,0.0,0.0,0.0,0.0,0.0,0.0,0.0,0.0,0.0,0.0,0.0,0.0,0.0,0.0,0.0,0.0,0.0,0.0,0.0,0.0,0.0,0.0,0.0,0.0,0.0,0.0,0.0,0.0,0.0,0.0,0.0,0.0,0.0,0.0,0.0,0.0,0.0,0.0,0.0,0.0,0.0,0.0,0.0,0.0,0.0,0.0,0.0,0.0,0.0,0.0,0.0,0.0,0.0,0.0,0.0,0.0,0.0,0.0,0.0,0.0,0.0,0.0,0.0,0.0,0.0,0.0,0.0,0.0,0.0,0.0,0.0,0.0,0.0,0.0,0.0,0.0,0.0,0.0,0.0,0.0,0.0,0.0,0.0,0.0,0.0,0.0,0.0,0.0,0.0,0.0,0.0,0.0,0.0,0.0,0.0,0.0,0.0,0.0,0.0,0.0,0.0,0.0,0.0,0.0,0.0,0.0,0.0,0.0,0.0,0.0,0.0,0.0,0.0,0.0,0.0,0.0,0.0,0.0,0.0,0.0,0.0,0.0,0.0,0.0,0.0,0.0,0.0,0.0,0.0,0.0,0.0,0.0,0.0,0.0,0.0,0.0,0.0,0.0,0.0,0.0,0.0,0.0,0.0,0.0,0.0,0.0,0.0,0.0,0.0,0.0,0.0,0.0,0.0,0.0,0.0,0.0,0.0,0.0,0.0,0.0,0.0,0.0,0.0,0.0,0.0,0.0,0.0,0.0,0.0,0.0,0.0,0.0,0.0,0.0,0.0,0.0,0.0,0.0,0.0,0.0,0.0,0.0,0.0,0.0,0.0,0.0,0.0,0.0,0.0,0.0,0.0,0.0,0.0,0.0,0.0,0.0,0.0,0.0,0.0,0.0,0.0,0.0,0.0,0.0,0.0,0.0,0.0,0.0,0.0,0.0,0.0,0.0,0.0,0.0,0.0,0.0,0.0,0.0,0.0,0.0,0.0,0.0,0.0,0.0,0.0,0.0,0.0,0.0,0.0,0.0,0.0,0.0,0.0,0.0,0.0,0.0,0.0,0.0,0.0,0.0,0.0,0.0,0.0,0.0,0.0,0.0,0.0,0.0,0.0,0.0,0.0,0.0,0.0,0.0,0.0,0.0,0.0,0.0,0.0,0.0,0.0,0.0,0.0,0.0,0.0,0.0,0.0,0.0,0.0,0.0,0.0,0.0,0.0,0.0,0.0,0.0,0.0,0.0,0.0,0.0,0.0,0.0,0.0,0.0,0.0,0.0,0.0,0.0,0.0,0.0,0.0,0.0,0.0,0.0,0.0,0.0,0.0,0.0,0.0,0.0,0.0,0.0,0.0,0.0,0.0,0.0,0.0,0.0,0.0,0.0,0.0,0.0,0.0,0.0,0.0,0.0,0.0,0.0,0.0,0.0,0.0,0.0,0.0,0.0,0.0,0.0,0.0,0.0,0.0,0.0,0.0,0.0,0.0,0.0,0.0,0.0,0.0,0.0,0.0,0.0,0.0,0.0,0.0,0.0,0.0,0.0,0.0,0.0,0.0,0.0,0.0,0.0,0.0,0.0,0.0,0.0,0.0,0.0,0.0,0.0,0.0,0.0,0.0,0.0,0.0,0.0,0.0,0.0,0.0,0.0,0.0,0.0,0.0,0.0,0.0,0.0,0.0,0.0,0.0,0.0,0.0,0.0,0.0,0.0,0.0,0.0,0.0,0.0,0.0,0.0,0.0,0.0,0.0,0.0,0.0,0.0,0.0,0.0,0.0,0.0,0.0,0.0,0.0,0.0,0.0,0.0,0.0,0.0,0.0,0.0,0.0,0.0,0.0,0.0,0.0,0.0,0.0,0.0,0.0,0.0,0.0,0.0,0.0,0.0,0.0,0.0,0.0,0.0,0.0,0.0,0.0,0.0,0.0,0.0,0.0,0.0,0.0,0.0,0.0,0.0,0.0,0.0,0.0,0.0,0.0,0.0,0.0,0.0,0.0,0.0,0.0,0.0,0.0,0.0,0.0,0.0,0.0,0.0,0.0,0.0,0.0,0.0,0.0,0.0,0.0,0.0,0.0,0.0,0.0,0.0,0.0,0.0,0.0,0.0,0.0,0.0,0.0,0.0,0.0,0.0,0.0,0.0,0.0,0.0,0.0,0.0,0.0,0.0,0.0,0.0,0.0,0.0,0.0,0.0,0.0,0.0,0.0,0.0,0.0,0.0,0.0,0.0,0.0,0.0,0.0,0.0,0.0,0.0,0.0,0.0,0.0,0.0,0.0,0.0,0.0,0.0,0.0,0.0,0.0,0.0,0.0,0.0,0.0,0.0,0.0,0.0,0.0,0.0,0.0,0.0,0.0,0.0,0.0,0.0,0.0,0.0,0.0,0.0,0.0,0.0,0.0,0.0,0.0,0.0,0.0,0.0,0.0,0.0,0.0,0.0,0.0,0.0,0.0,0.0,0.0,0.0,0.0,0.0,0.0,0.0,0.0,0.0,0.0,0.0,0.0,0.0,0.0,0.0,0.0,0.0,0.0,0.0,0.0,0.0,0.0,0.0,0.0,0.0,0.0,0.0,0.0,0.0,0.0,0.0,0.0,0.0,0.0,0.0,0.0,0.0,0.0,0.0,0.0,0.0,0.0,0.0,0.0,0.0,0.0,0.0,0.0,0.0,0.0,0.0,0.0,0.0,0.0,0.0,0.0,0.0,0.0,0.0,0.0,0.0,0.0,0.0,0.0,0.0,0.0,0.0,0.0,0.0,0.0,0.0,0.0,0.0,0.0,0.0,0.0,0.0,0.0,0.0,0.0,0.0,0.0,0.0,0.0,0.0,0.0,0.0,0.0,0.0,0.0,0.0,0.0,0.0,0.0,0.0,0.0,0.0,0.0,0.0,0.0,0.0,0.0,0.0,0.0,0.0,0.0,0.0,0.0,0.0,0.0,0.0,0.0,0.0,0.0,0.0,0.0,0.0,0.0,0.0,0.0,0.0,0.0,0.0,0.0,0.0,0.0,0.0,0.0,0.0,0.0,0.0,0.0,0.0,0.0,0.0,0.0,0.0,0.0,0.0,0.0,0.0,0.0,0.0,0.0,0.0,0.0,0.0,0.0,0.0,0.0,0.0,0.0,0.0,0.0,0.0,0.0,0.0,0.0,0.0,0.0,0.0,0.0,0.0,0.0,0.0,0.0,0.0,0.0,0.0,0.0,0.0,0.0,0.0,0.0,0.0,0.0,0.0,0.0,0.0,0.0,0.0,0.0,0.0,0.0,0.0,0.0,0.0,0.0,0.0,0.0,0.0,0.0,0.0,0.0,0.0,0.0,0.0,0.0,0.0,0.0,0.0,0.0,0.0,0.0,0.0,0.0,0.0,0.0,0.0,0.0,0.0,0.0,0.0,0.0,0.0,0.0,0.0,0.0,0.0,0.0,3.0772,0.0,0.0,0.0,0.0,0.0,0.0,0.0,0.0,0.0,0.0,0.0,0.0,0.0,0.0,0.0,0.0,0.0,0.0,0.0,0.0,0.0,0.0,0.0,0.0,0.0,0.0,0.0,0.0,0.0,0.0,0.0,0.0,0.0,0.0,0.0,0.0,0.0,0.0,0.0,0.0,0.0,0.0,0.0,0.0,0.0,0.0,0.0,0.0,0.0,0.0,0.0,0.0,0.0,0.0,0.0,0.0,0.0,0.0,0.0,0.0,0.0,0.0,0.0,0.0,0.0,0.0,0.0,0.0,0.0,0.0,0.0,0.0,0.0,0.0,0.0,0.0,0.0,0.0,0.0,0.0,0.0,0.0,0.0,0.0,0.0,0.0,0.0,0.0,0.0,0.0,0.0,0.0,0.0,0.0,0.0,0.0,0.0,0.0,0.0,0.0,0.0,0.0,0.0,0.0,0.0,0.0,0.0,0.0,0.0,0.0,3.1015,3.1075,3.0762,3.0571,3.0557,0.0,0.0,0.0,0.0,0.0,0.0,0.0,0.0,0.0,0.0,0.0,0.0,0.0,0.0,0.0,0.0,0.0,0.0,0.0,0.0,0.0,0.0,0.0,0.0,0.0,0.0,0.0,0.0,0.0,0.0,0.0,0.0,0.0,0.0,0.0,0.0,0.0,0.0,0.0,0.0,0.0,0.0,0.0,0.0,0.0,0.0,0.0,0.0,0.0,0.0,0.0,0.0,0.0,0.0,0.0,0.0,0.0,0.0,0.0,0.0,0.0,0.0,0.0,0.0,0.0,0.0,0.0,0.0,0.0,0.0,0.0,0.0,0.0,0.0,0.0,0.0,0.0,0.0,0.0,0.0,0.0,0.0,0.0,0.0,0.0,0.0,0.0,0.0,0.0,0.0,0.0,0.0,0.0,0.0,0.0,0.0,0.0,0.0,0.0,0.0,0.0,0.0,0.0,0.0,0.0,0.0,0.0,0.0,0.0,0.0,0.0,0.0,3.1139,3.1232,3.1366,0.0,0.0,0.0,0.0,0.0,0.0,0.0,0.0,0.0,0.0,0.0,0.0,0.0,0.0,0.0,0.0,0.0,0.0,0.0,0.0,0.0,0.0,0.0,0.0,0.0,0.0,0.0,0.0,0.0,0.0,0.0,0.0,0.0,0.0,0.0,0.0,0.0,0.0,0.0,0.0,0.0,0.0,0.0,0.0,0.0,0.0,0.0,0.0,0.0,0.0,0.0,0.0,0.0,0.0,0.0,0.0,0.0,0.0,0.0,0.0,0.0,0.0,0.0,0.0,0.0,0.0,0.0,0.0,0.0,0.0,0.0,0.0,0.0,0.0,0.0,0.0,0.0,0.0,0.0,0.0,0.0,0.0,0.0,0.0,0.0,0.0,0.0,0.0,0.0,0.0,0.0,0.0,0.0,0.0,0.0,0.0,0.0,0.0,0.0,0.0,0.0,0.0,0.0,0.0,0.0,0.0,0.0,0.0,0.0,0.0,3.2789,3.2867,3.2867,0.0,3.3932,0.0,0.0,0.0,0.0,0.0,0.0,0.0,0.0,0.0,0.0,0.0,0.0,0.0,0.0,0.0,0.0,0.0,0.0,0.0,0.0,0.0,0.0,0.0,0.0,0.0,0.0,0.0,0.0,0.0,0.0,0.0,0.0,0.0,0.0,0.0,0.0,0.0,0.0,0.0,0.0,0.0,0.0,0.0,0.0,0.0,0.0,0.0,0.0,0.0,0.0,0.0,0.0,0.0,0.0,0.0,0.0,0.0,0.0,0.0,0.0,0.0,0.0,0.0,0.0,0.0,0.0,0.0,0.0,0.0,0.0,0.0,0.0,0.0,0.0,0.0,0.0,0.0,0.0,0.0,0.0,0.0,0.0,0.0,0.0,0.0,0.0,0.0,0.0,0.0,0.0,0.0,0.0,0.0,0.0,0.0,0.0,0.0,0.0,0.0,0.0,0.0,0.0,0.0,0.0,0.0,0.0,0.0,0.0,0.0,0.0,3.3513,3.3125,3.3556,3.4201,0.0,0.0,0.0,0.0,0.0,0.0,0.0,0.0,0.0,0.0,0.0,0.0,0.0,0.0,0.0,0.0,0.0,0.0,0.0,0.0,0.0,0.0,0.0,0.0,0.0,0.0,0.0,0.0,0.0,0.0,0.0,0.0,0.0,0.0,0.0,0.0,0.0,0.0,0.0,0.0,0.0,0.0,0.0,0.0,0.0,0.0,0.0,0.0,0.0,0.0,0.0,0.0,0.0,0.0,0.0,0.0,0.0,0.0,0.0,0.0,0.0,0.0,0.0,0.0,0.0,0.0,0.0,0.0,0.0,0.0,0.0,0.0,0.0,0.0,0.0,0.0,0.0,0.0,0.0,0.0,0.0,0.0,0.0,0.0,0.0,0.0,0.0,0.0,0.0,0.0,0.0,0.0,0.0,0.0,0.0,0.0,0.0,0.0,0.0,0.0,0.0,0.0,0.0,0.0,0.0,0.0,0.0,0.0,0.0,0.0,3.4217,3.4435,3.421,3.5182,3.6026,3.6635,0.0,0.0,0.0,0.0,0.0,0.0,0.0,0.0,0.0,0.0,0.0,0.0,0.0,0.0,0.0,0.0,0.0,0.0,0.0,0.0,0.0,0.0,0.0,0.0,0.0,0.0,0.0,0.0,0.0,0.0,0.0,0.0,0.0,0.0,0.0,0.0,0.0,0.0,0.0,0.0,0.0,0.0,0.0,0.0,0.0,0.0,0.0,0.0,0.0,0.0,0.0,0.0,0.0,0.0,0.0,0.0,0.0,0.0,0.0,0.0,0.0,0.0,0.0,0.0,0.0,0.0,0.0,0.0,0.0,0.0,0.0,0.0,0.0,0.0,0.0,0.0,0.0,0.0,0.0,0.0,0.0,0.0,0.0,0.0,0.0,0.0,0.0,0.0,0.0,0.0,0.0,0.0,0.0,0.0,0.0,0.0,0.0,0.0,0.0,0.0,0.0,0.0,0.0,0.0,0.0,0.0,0.0,0.0,3.5156,3.543,3.5939,3.6742,3.8398,3.9268,0.0,0.0,0.0,0.0,0.0,0.0,0.0,0.0,0.0,0.0,0.0,0.0,0.0,0.0,0.0,0.0,0.0,0.0,0.0,0.0,0.0,0.0,0.0,0.0,0.0,0.0,0.0,0.0,0.0,0.0,0.0,0.0,0.0,0.0,0.0,0.0,0.0,0.0,0.0,0.0,0.0,0.0,0.0,0.0,0.0,0.0,0.0,0.0,0.0,0.0,0.0,0.0,0.0,0.0,0.0,0.0,0.0,0.0,0.0,0.0,0.0,0.0,0.0,0.0,0.0,0.0,0.0,0.0,0.0,0.0,0.0,0.0,0.0,0.0,0.0,0.0,0.0,0.0,0.0,0.0,0.0,0.0,0.0,0.0,0.0,0.0,0.0,0.0,0.0,0.0,0.0,0.0,0.0,0.0,0.0,0.0,0.0,0.0,0.0,0.0,0.0,0.0,0.0,0.0,0.0,0.0,0.0,0.0,0.0,3.6276,3.6912,3.794,3.9326,3.9451,3.9691,0.0,0.0,0.0,0.0,0.0,0.0,0.0,0.0,0.0,0.0,0.0,0.0,0.0,0.0,0.0,0.0,0.0,0.0,0.0,0.0,0.0,0.0,0.0,0.0,0.0,0.0,0.0,0.0,0.0,0.0,0.0,0.0,0.0,0.0,0.0,0.0,0.0,0.0,0.0,0.0,0.0,0.0,0.0,0.0,0.0,0.0,0.0,0.0,0.0,0.0,0.0,0.0,0.0,0.0,0.0,0.0,0.0,0.0,0.0,0.0,0.0,0.0,0.0,0.0,0.0,0.0,0.0,0.0,0.0,0.0,0.0,0.0,0.0,0.0,0.0,0.0,0.0,0.0,0.0,0.0,0.0,0.0,0.0,0.0,0.0,0.0,0.0,0.0,0.0,0.0,0.0,0.0,0.0,0.0,0.0,0.0,0.0,0.0,0.0,0.0,0.0,0.0,0.0,0.0,0.0,0.0,0.0,0.0,0.0,3.725,0.0,3.9174,4.0251,3.9923,3.9977,0.0,0.0,0.0,0.0,0.0,0.0,0.0,0.0,0.0,0.0,0.0,0.0,0.0,0.0,0.0,0.0,0.0,0.0,0.0,0.0,0.0,0.0,0.0,0.0,0.0,0.0,0.0,0.0,0.0,0.0,0.0,0.0,0.0,0.0,0.0,0.0,0.0,0.0,0.0,0.0,0.0,0.0,0.0,0.0,0.0,0.0,0.0,0.0,0.0,0.0,0.0,0.0,0.0,0.0,0.0,0.0,0.0,0.0,0.0,0.0,0.0,0.0,0.0,0.0,0.0,0.0,0.0,0.0,0.0,0.0,0.0,0.0,0.0,0.0,0.0,0.0,0.0,0.0,0.0,0.0,0.0,0.0,0.0,0.0,0.0,0.0,0.0,0.0,0.0,0.0,0.0,0.0,0.0,0.0,0.0,0.0,0.0,0.0,0.0,0.0,0.0,0.0,0.0,0.0,0.0,0.0,0.0,0.0,3.728,3.8126,3.8973,3.9437,3.944,4.0006,4.0338,0.0,0.0,0.0,0.0,0.0,0.0,0.0,0.0,0.0,0.0,0.0,0.0,0.0,0.0,0.0,0.0,0.0,0.0,0.0,0.0,0.0,0.0,0.0,0.0,0.0,0.0,0.0,0.0,0.0,0.0,0.0,0.0,0.0,0.0,0.0,0.0,0.0,0.0,0.0,0.0,0.0,0.0,0.0,0.0,0.0,0.0,0.0,0.0,0.0,0.0,0.0,0.0,0.0,0.0,0.0,0.0,0.0,0.0,0.0,0.0,0.0,0.0,0.0,0.0,0.0,0.0,0.0,0.0,0.0,0.0,0.0,0.0,0.0,0.0,0.0,0.0,0.0,0.0,0.0,0.0,0.0,0.0,0.0,0.0,0.0,0.0,0.0,0.0,0.0,0.0,0.0,0.0,0.0,0.0,0.0,0.0,0.0,0.0,0.0,0.0,0.0,0.0,0.0,0.0,0.0,0.0,0.0,0.0,0.0,3.9807,3.996,4.0113,4.0301,4.043,4.0454,0.0,0.0,0.0,0.0,0.0,0.0,0.0,0.0,0.0,0.0,0.0,0.0,0.0,0.0,0.0,0.0,0.0,0.0,0.0,0.0,0.0,0.0,0.0,0.0,0.0,0.0,0.0,0.0,0.0,0.0,0.0,0.0,0.0,0.0,0.0,0.0,0.0,0.0,0.0,0.0,0.0,0.0,0.0,0.0,0.0,0.0,0.0,0.0,0.0,0.0,0.0,0.0,0.0,0.0,0.0,0.0,0.0,0.0,0.0,0.0,0.0,0.0,0.0,0.0,0.0,0.0,0.0,0.0,0.0,0.0,0.0,0.0,0.0,0.0,0.0,0.0,0.0,0.0,0.0,0.0,0.0,0.0,0.0,0.0,0.0,0.0,0.0,0.0,0.0,0.0,0.0,0.0,0.0,0.0,0.0,0.0,0.0,0.0,0.0,0.0,0.0,0.0,0.0,0.0,0.0,0.0,0.0,0.0,0.0,4.0571,4.0458,4.0465,4.0653,4.0531,4.0399,4.0262,0.0,0.0,0.0,0.0,0.0,0.0,0.0,0.0,0.0,0.0,0.0,0.0,0.0,0.0,0.0,0.0,0.0,0.0,0.0,0.0,0.0,0.0,0.0,0.0,0.0,0.0,0.0,0.0,0.0,0.0,0.0,0.0,0.0,0.0,0.0,0.0,0.0,0.0,0.0,0.0,0.0,0.0,0.0,0.0,0.0,0.0,0.0,0.0,0.0,0.0,0.0,0.0,0.0,0.0,0.0,0.0,0.0,0.0,0.0,0.0,0.0,0.0,0.0,0.0,0.0,0.0,0.0,0.0,0.0,0.0,0.0,0.0,0.0,0.0,0.0,0.0,0.0,0.0,0.0,0.0,0.0,0.0,0.0,0.0,0.0,0.0,0.0,0.0,0.0,0.0,0.0,0.0,0.0,0.0,0.0,0.0,0.0,0.0,0.0,0.0,0.0,0.0,0.0,0.0,0.0,0.0,0.0,0.0,4.0565,4.0518,4.0521,4.0586,4.0362,4.0194,0.0,0.0,0.0,0.0,0.0,0.0,0.0,0.0,0.0,0.0,0.0,0.0,0.0,0.0,0.0,0.0,0.0,0.0,0.0,0.0,0.0,0.0,0.0,0.0,0.0,0.0,0.0,0.0,0.0,0.0,0.0,0.0,0.0,0.0,0.0,0.0,0.0,0.0,0.0,0.0,0.0,0.0,0.0,0.0,0.0,0.0,0.0,0.0,0.0,0.0,0.0,0.0,0.0,0.0,0.0,0.0,0.0,0.0,0.0,0.0,0.0,0.0,0.0,0.0,0.0,0.0,0.0,0.0,0.0,0.0,0.0,0.0,0.0,0.0,0.0,0.0,0.0,0.0,0.0,0.0,0.0,0.0,0.0,0.0,0.0,0.0,0.0,0.0,0.0,0.0,0.0,0.0,0.0,0.0,0.0,0.0,0.0,0.0,0.0,0.0,0.0,0.0,0.0,0.0,0.0,0.0,0.0,0.0,0.0,4.0282,4.0284,4.0385,4.0579,4.0492,4.0332,0.0,0.0,0.0,0.0,0.0,0.0,0.0,0.0,0.0,0.0,0.0,0.0,0.0,0.0,0.0,0.0,0.0,0.0,0.0,0.0,0.0,0.0,0.0,0.0,0.0,0.0,0.0,0.0,0.0,0.0,0.0,0.0,0.0,0.0,0.0,0.0,0.0,0.0,0.0,0.0,0.0,0.0,0.0,0.0,0.0,0.0,0.0,0.0,0.0,0.0,0.0,0.0,0.0,0.0,0.0,0.0,0.0,0.0,0.0,0.0,0.0,0.0,0.0,0.0,0.0,0.0,0.0,0.0,0.0,0.0,0.0,0.0,0.0,0.0,0.0,0.0,0.0,0.0,0.0,0.0,0.0,0.0,0.0,0.0,0.0,0.0,0.0,0.0,0.0,0.0,0.0,0.0,0.0,0.0,0.0,0.0,0.0,0.0,0.0,0.0,0.0,0.0,0.0,0.0,0.0,0.0,0.0,0.0,4.0045,4.0186,4.0284,4.0404,4.0562,4.0525,4.0397,0.0,0.0,0.0,0.0,0.0,0.0,0.0,0.0,0.0,0.0,0.0,0.0,0.0,0.0,0.0,0.0,0.0,0.0,0.0,0.0,0.0,0.0,0.0,0.0,0.0,0.0,0.0,0.0,0.0,0.0,0.0,0.0,0.0,0.0,0.0,0.0,0.0,0.0,0.0,0.0,0.0,0.0,0.0,0.0,0.0,0.0,0.0,0.0,0.0,0.0,0.0,0.0,0.0,0.0,0.0,0.0,0.0,0.0,0.0,0.0,0.0,0.0,0.0,0.0,0.0,0.0,0.0,0.0,0.0,0.0,0.0,0.0,0.0,0.0,0.0,0.0,0.0,0.0,0.0,0.0,0.0,0.0,0.0,0.0,0.0,0.0,0.0,0.0,0.0,0.0,0.0,0.0,0.0,0.0,0.0,0.0,0.0,0.0,0.0,0.0,0.0,0.0,0.0,0.0,0.0,0.0,0.0,0.0,4.0141,4.0205,4.037,4.0479,4.0494,4.0479,4.0377,0.0,0.0,0.0,0.0,0.0,0.0,0.0,0.0,0.0,0.0,0.0,0.0,0.0,0.0,0.0,0.0,0.0,0.0,0.0,0.0,0.0,0.0,0.0,0.0,0.0,0.0,0.0,0.0,0.0,0.0,0.0,0.0,0.0,0.0,0.0,0.0,0.0,0.0,0.0,0.0,0.0,0.0,0.0,0.0,0.0,0.0,0.0,0.0,0.0,0.0,0.0,0.0,0.0,0.0,0.0,0.0,0.0,0.0,0.0,0.0,0.0,0.0,0.0,0.0,0.0,0.0,0.0,0.0,0.0,0.0,0.0,0.0,0.0,0.0,0.0,0.0,0.0,0.0,0.0,0.0,0.0,0.0,0.0,0.0,0.0,0.0,0.0,0.0,0.0,0.0,0.0,0.0,0.0,0.0,0.0,0.0,0.0,0.0,0.0,0.0,0.0,0.0,0.0,0.0,0.0,0.0,0.0,0.0,3.9824,4.0179,4.0246,4.0356,4.0491,4.0364,4.0248,0.0,0.0,0.0,0.0,0.0,0.0,0.0,0.0,0.0,0.0,0.0,0.0,0.0,0.0,0.0,0.0,0.0,0.0,0.0,0.0,0.0,0.0,0.0,0.0,0.0,0.0,0.0,0.0,0.0,0.0,0.0,0.0,0.0,0.0,0.0,0.0,0.0,0.0,0.0,0.0,0.0,0.0,0.0,0.0,0.0,0.0,0.0,0.0,4.0794,0.0,0.0,0.0,0.0,0.0,0.0,0.0,0.0,0.0,0.0,0.0,0.0,0.0,0.0,0.0,0.0,0.0,0.0,0.0,0.0,0.0,0.0,0.0,0.0,0.0,0.0,0.0,0.0,0.0,0.0,0.0,0.0,0.0,0.0,0.0,0.0,0.0,0.0,0.0,0.0,0.0,0.0,0.0,0.0,0.0,0.0,0.0,0.0,0.0,0.0,0.0,0.0,0.0,0.0,0.0,0.0,0.0,0.0,0.0,3.9719,4.0167,4.02,4.0297,4.0477,4.0178,4.0088,0.0,0.0,0.0,0.0,0.0,0.0,0.0,0.0,0.0,0.0,0.0,0.0,0.0,0.0,0.0,0.0,0.0,0.0,0.0,0.0,0.0,0.0,0.0,0.0,0.0,0.0,0.0,0.0,0.0,0.0,0.0,0.0,0.0,0.0,0.0,0.0,0.0,0.0,0.0,0.0,0.0,0.0,0.0,0.0,0.0,0.0,0.0,0.0,0.0,0.0,0.0,0.0,0.0,0.0,0.0,0.0,0.0,0.0,0.0,0.0,0.0,0.0,0.0,0.0,0.0,0.0,0.0,0.0,0.0,0.0,0.0,0.0,0.0,0.0,0.0,0.0,0.0,0.0,0.0,0.0,0.0,0.0,0.0,0.0,0.0,0.0,0.0,0.0,0.0,0.0,0.0,0.0,0.0,0.0,0.0,0.0,0.0,0.0,0.0,0.0,0.0,0.0,0.0,0.0,0.0,0.0,0.0,3.9492,3.9699,4.012,4.0139,4.0223,4.037,3.9999,3.9914,4.0127,0.0,0.0,0.0,0.0,0.0,0.0,0.0,0.0,0.0,0.0,0.0,0.0,0.0,0.0,0.0,0.0,0.0,0.0,0.0,0.0,0.0,0.0,0.0,0.0,0.0,0.0,0.0,0.0,0.0,0.0,0.0,0.0,0.0,0.0,0.0,0.0,0.0,0.0,4.0794,4.0794,0.0,0.0,0.0,0.0,0.0,0.0,0.0,0.0,4.0794,0.0,0.0,0.0,0.0,0.0,0.0,0.0,0.0,0.0,0.0,0.0,0.0,0.0,0.0,0.0,0.0,0.0,0.0,0.0,0.0,0.0,0.0,0.0,0.0,0.0,0.0,0.0,0.0,0.0,0.0,0.0,0.0,0.0,0.0,0.0,0.0,0.0,0.0,0.0,0.0,0.0,0.0,0.0,0.0,0.0,0.0,0.0,0.0,0.0,0.0,0.0,0.0,0.0,0.0,0.0,0.0,3.9467,3.9492,3.9621,3.9848,3.9859,3.9877,3.9911,3.9843,3.9819,3.9837,0.0,0.0,0.0,0.0,0.0,0.0,0.0,0.0,0.0,0.0,0.0,0.0,0.0,0.0,0.0,0.0,0.0,0.0,0.0,0.0,0.0,0.0,0.0,0.0,0.0,0.0,0.0,0.0,0.0,0.0,0.0,0.0,0.0,0.0,0.0,0.0,0.0,0.0,0.0,4.0794,4.0794,0.0,0.0,0.0,0.0,0.0,0.0,0.0,0.0,4.0794,0.0,0.0,0.0,0.0,0.0,0.0,0.0,0.0,0.0,0.0,0.0,0.0,0.0,0.0,0.0,0.0,0.0,0.0,0.0,0.0,0.0,0.0,0.0,0.0,0.0,0.0,0.0,0.0,0.0,0.0,0.0,0.0,0.0,0.0,0.0,0.0,0.0,0.0,0.0,0.0,0.0,0.0,0.0,0.0,0.0,0.0,0.0,0.0,0.0,0.0,0.0,0.0,0.0,0.0,0.0,3.9449,3.9373,3.9458,3.9784,3.97,3.9694,3.9794,3.9705,3.9653,0.0,0.0,0.0,0.0,0.0,0.0,0.0,0.0,0.0,0.0,0.0,0.0,0.0,0.0,0.0,0.0,0.0,0.0,0.0,0.0,0.0,0.0,0.0,0.0,0.0,0.0,0.0,0.0,0.0,0.0,0.0,0.0,0.0,0.0,0.0,0.0,0.0,0.0,0.0,0.0,4.0794,4.0794,4.0794,0.0,0.0,0.0,0.0,0.0,0.0,4.0794,4.0794,0.0,0.0,0.0,0.0,0.0,0.0,0.0,0.0,0.0,0.0,0.0,0.0,0.0,0.0,0.0,0.0,0.0,0.0,0.0,0.0,0.0,0.0,0.0,0.0,0.0,0.0,0.0,0.0,0.0,0.0,0.0,0.0,0.0,0.0,0.0,0.0,0.0,0.0,0.0,0.0,0.0,0.0,0.0,0.0,0.0,0.0,0.0,0.0,0.0,0.0,0.0,0.0,0.0,0.0,0.0,3.9414,3.922,3.9271,3.9632,3.9501,3.9489,3.965,3.9498,3.9427,0.0,0.0,0.0,0.0,0.0,0.0,0.0,0.0,0.0,0.0,0.0,0.0,0.0,0.0,0.0,0.0,0.0,0.0,0.0,0.0,0.0,0.0,0.0,0.0,0.0,0.0,0.0,0.0,0.0,0.0,0.0,0.0,0.0,0.0,0.0,0.0,0.0,0.0,0.0,0.0,0.0,4.0794,4.0794,4.0794,0.0,0.0,0.0,0.0,4.0794,4.0794,0.0,0.0,0.0,0.0,0.0,0.0,0.0,0.0,0.0,0.0,0.0,0.0,0.0,0.0,0.0,0.0,0.0,0.0,0.0,0.0,0.0,0.0,0.0,0.0,0.0,0.0,0.0,0.0,0.0,0.0,0.0,0.0,0.0,0.0,0.0,0.0,0.0,0.0,0.0,0.0,0.0,0.0,0.0,0.0,0.0,0.0,0.0,0.0,0.0,0.0,0.0,0.0,0.0,0.0,0.0,0.0,3.9131,3.9118,3.912,3.9185,3.9148,3.917,3.9185,3.9154,3.9153,0.0,0.0,0.0,0.0,0.0,0.0,0.0,0.0,0.0,0.0,0.0,0.0,0.0,0.0,0.0,0.0,0.0,0.0,0.0,0.0,0.0,0.0,0.0,0.0,0.0,0.0,0.0,0.0,0.0,0.0,0.0,0.0,0.0,0.0,0.0,0.0,0.0,0.0,0.0,0.0,0.0,4.0794,4.0794,4.0794,4.0794,0.0,0.0,4.0794,4.0794,4.0794,0.0,0.0,0.0,0.0,0.0,0.0,0.0,0.0,0.0,0.0,0.0,0.0,0.0,0.0,0.0,0.0,0.0,0.0,0.0,0.0,0.0,0.0,0.0,0.0,0.0,0.0,0.0,0.0,0.0,0.0,0.0,0.0,0.0,0.0,0.0,0.0,0.0,0.0,0.0,0.0,0.0,0.0,0.0,0.0,0.0,0.0,0.0,0.0,0.0,0.0,0.0,0.0,0.0,0.0,0.0,3.9104,3.9104,3.9104,3.9104,3.9104,3.9104,3.9104,3.9104,3.9104,3.9104,0.0,0.0,0.0,0.0,0.0,0.0,0.0,0.0,0.0,0.0,0.0,0.0,0.0,0.0,0.0,0.0,0.0,0.0,0.0,0.0,0.0,0.0,0.0,0.0,0.0,0.0,0.0,0.0,0.0,0.0,0.0,0.0,0.0,0.0,0.0,0.0,0.0,0.0,0.0,0.0,0.0,0.0,4.0794,4.0794,0.0,0.0,0.0,4.0794,4.0794,0.0,0.0,0.0,0.0,0.0,0.0,0.0,0.0,0.0,0.0,0.0,0.0,0.0,0.0,0.0,0.0,0.0,0.0,0.0,0.0,0.0,0.0,0.0,0.0,0.0,0.0,0.0,0.0,0.0,0.0,0.0,0.0,0.0,0.0,0.0,0.0,0.0,0.0,0.0,0.0,0.0,0.0,0.0,0.0,0.0,0.0,0.0,0.0,0.0,0.0,0.0,0.0,0.0,0.0,0.0,0.0,0.0,3.9104,3.9104,3.9104,3.9104,3.9104,3.9104,3.9104,3.9104,0.0,0.0,0.0,0.0,0.0,0.0,0.0,0.0,0.0,0.0,0.0,0.0,0.0,0.0,0.0,0.0,0.0,0.0,0.0,0.0,0.0,0.0,0.0,0.0,0.0,0.0,0.0,4.0794,0.0,0.0,0.0,0.0,0.0,0.0,0.0,0.0,0.0,0.0,0.0,0.0,0.0,0.0,4.0794,4.0794,4.0794,4.0794,0.0,0.0,4.0794,4.0794,4.0794,4.0794,0.0,0.0,0.0,0.0,0.0,0.0,0.0,0.0,0.0,0.0,0.0,0.0,0.0,0.0,0.0,0.0,0.0,0.0,0.0,0.0,0.0,0.0,0.0,0.0,0.0,0.0,0.0,0.0,0.0,0.0,0.0,0.0,0.0,0.0,0.0,0.0,0.0,0.0,0.0,0.0,0.0,0.0,0.0,0.0,0.0,0.0,0.0,0.0,0.0,0.0,0.0,0.0,0.0,0.0,3.9104,3.9104,3.9104,3.9104,3.9104,3.9104,3.9104,3.9104,3.9104,3.9104,0.0,0.0,0.0,0.0,0.0,0.0,0.0,0.0,0.0,0.0,0.0,0.0,0.0,0.0,0.0,0.0,0.0,0.0,0.0,0.0,0.0,0.0,0.0,0.0,0.0,0.0,0.0,0.0,0.0,0.0,0.0,0.0,0.0,0.0,0.0,0.0,0.0,0.0,0.0,0.0,0.0,4.0794,4.0794,4.0794,4.0794,0.0,4.0794,4.0794,4.0794,4.0814,4.0794,4.0814,0.0,0.0,0.0,0.0,0.0,0.0,0.0,0.0,0.0,0.0,0.0,0.0,0.0,0.0,0.0,0.0,0.0,0.0,0.0,0.0,0.0,0.0,0.0,0.0,0.0,0.0,0.0,0.0,0.0,0.0,0.0,0.0,0.0,0.0,0.0,0.0,0.0,0.0,0.0,0.0,0.0,0.0,0.0,0.0,0.0,0.0,0.0,0.0,0.0,0.0,0.0,0.0,0.0,3.9104,3.9104,3.9104,3.9104,3.9104,3.9104,3.9104,3.9104,3.9104,3.9104,0.0,0.0,0.0,0.0,0.0,0.0,0.0,0.0,0.0,0.0,0.0,0.0,0.0,0.0,0.0,0.0,0.0,0.0,0.0,0.0,0.0,0.0,0.0,0.0,0.0,0.0,0.0,0.0,4.0794,4.0794,4.0794,0.0,0.0,0.0,0.0,0.0,0.0,0.0,0.0,0.0,0.0,4.0794,4.0794,4.0794,0.0,0.0,4.1219,4.1529,4.1548,4.199,4.2357,4.2338,4.2343,0.0,0.0,0.0,0.0,0.0,0.0,0.0,0.0,0.0,0.0,0.0,0.0,0.0,0.0,0.0,0.0,0.0,0.0,0.0,0.0,0.0,0.0,0.0,0.0,0.0,0.0,0.0,0.0,0.0,0.0,0.0,0.0,0.0,0.0,0.0,0.0,0.0,0.0,0.0,0.0,0.0,0.0,0.0,0.0,0.0,0.0,0.0,0.0,0.0,0.0,0.0,0.0,3.9104,3.9104,3.9104,3.9104,3.9104,3.9104,3.9104,3.9104,3.9104,3.9104,0.0,0.0,0.0,0.0,0.0,0.0,0.0,0.0,0.0,0.0,0.0,0.0,0.0,0.0,0.0,0.0,0.0,0.0,0.0,0.0,0.0,0.0,0.0,0.0,0.0,0.0,0.0,0.0,4.0794,4.0794,4.0794,0.0,0.0,0.0,0.0,0.0,0.0,0.0,0.0,0.0,0.0,4.0794,4.0794,4.1006,4.118,4.1161,4.1856,4.2397,4.2396,4.2897,4.3303,4.3303,0.0,0.0,0.0,0.0,0.0,0.0,0.0,0.0,0.0,0.0,0.0,0.0,0.0,0.0,0.0,0.0,0.0,0.0,0.0,0.0,0.0,0.0,0.0,0.0,0.0,0.0,0.0,3.2005,0.0,0.0,3.1794,0.0,0.0,0.0,0.0,0.0,0.0,0.0,0.0,0.0,0.0,0.0,0.0,0.0,0.0,0.0,0.0,0.0,0.0,0.0,0.0,0.0,0.0,3.9104,3.9104,3.9104,3.9104,3.9104,3.9104,3.9104,3.9104,3.9104,3.9104,3.9104,0.0,0.0,0.0,0.0,0.0,0.0,0.0,0.0,0.0,0.0,0.0,0.0,0.0,0.0,0.0,0.0,0.0,0.0,0.0,0.0,0.0,0.0,0.0,0.0,0.0,0.0,4.0794,4.0794,4.0794,0.0,0.0,0.0,0.0,0.0,0.0,0.0,0.0,0.0,4.079,4.0813,4.0811,4.0829,4.1469,4.1986,4.1964,4.2699,4.3279,4.3251,4.3295,4.3303,0.0,0.0,0.0,0.0,0.0,0.0,0.0,0.0,0.0,0.0,0.0,0.0,0.0,0.0,0.0,0.0,0.0,0.0,0.0,0.0,0.0,0.0,0.0,0.0,0.0,0.0,0.0,3.1917,3.189,0.0,0.0,0.0,0.0,0.0,0.0,0.0,0.0,0.0,0.0,0.0,3.7529,3.8049,0.0,0.0,0.0,0.0,0.0,0.0,0.0,0.0,0.0,0.0,0.0,0.0,3.9104,3.9104,3.9104,3.9104,3.9104,3.9104,3.9104,3.9104,3.9104,3.9104,3.9104,0.0,0.0,0.0,0.0,0.0,0.0,0.0,0.0,0.0,0.0,0.0,0.0,0.0,0.0,0.0,0.0,0.0,0.0,0.0,0.0,0.0,0.0,0.0,0.0,0.0,4.0794,0.0,0.0,0.0,0.0,0.0,0.0,0.0,0.0,0.0,0.0,0.0,4.0596,4.0594,4.1057,4.1414,4.1403,4.22,4.2716,0.0,0.0,0.0,0.0,0.0,0.0,0.0,0.0,0.0,0.0,0.0,0.0,0.0,0.0,4.4255,4.3273,4.31,4.3329,4.4018,0.0,0.0,0.0,0.0,0.0,0.0,0.0,0.0,0.0,0.0,0.0,0.0,0.0,0.0,3.35,3.35,3.3503,0.0,0.0,0.0,0.0,0.0,0.0,0.0,0.0,3.8064,3.8328,3.8339,3.8863,3.9104,3.9104,3.9104,3.8841,0.0,0.0,0.0,0.0,0.0,0.0,0.0,0.0,3.9104,3.9104,3.9104,3.9253,3.9532,3.9547,3.9695,3.9959,3.9978,3.9963,3.9959,3.9974,3.9829,0.0,0.0,0.0,0.0,0.0,0.0,0.0,0.0,0.0,0.0,0.0,0.0,0.0,0.0,0.0,0.0,0.0,0.0,0.0,0.0,0.0,0.0,0.0,4.0609,0.0,0.0,0.0,0.0,0.0,0.0,0.0,0.0,0.0,4.0702,4.0832,4.0896,4.0829,4.1551,4.2061,4.1984,0.0,0.0,0.0,0.0,0.0,0.0,0.0,4.5149,4.4938,4.5076,4.5151,4.4946,4.492,4.4927,4.4976,0.0,0.0,4.3912,4.3835,4.4093,4.4766,4.443,4.4399,4.556,4.5313,4.504,0.0,0.0,0.0,0.0,3.4744,0.0,0.0,0.0,3.6309,3.66,0.0,3.6581,0.0,0.0,0.0,0.0,3.7919,3.7931,0.0,0.0,3.9064,3.9086,3.9086,3.9104,3.9104,3.9104,3.9104,3.9104,3.9086,3.9082,0.0,0.0,0.0,0.0,0.0,0.0,3.9123,3.9157,3.916,3.9565,4.039,4.0446,4.0799,4.1523,4.156,4.156,4.1579,4.156,4.1226,4.0486,4.0446,0.0,0.0,0.0,0.0,0.0,0.0,0.0,0.0,0.0,0.0,0.0,0.0,0.0,0.0,0.0,0.0,0.0,0.0,0.0,0.0,4.0309,0.0,0.0,0.0,0.0,0.0,0.0,0.0,0.0,0.0,0.0,4.0661,4.1234,4.1641,4.1461,0.0,0.0,0.0,0.0,4.3784,4.3767,4.4441,4.4979,4.4959,4.4973,4.4998,4.4962,0.0,0.0,4.4961,4.4792,4.4725,4.4698,4.4609,4.4566,4.5142,4.5268,4.5379,4.5451,4.5401,4.5511,4.575,4.5786,4.5657,3.6203,0.0,0.0,0.0,0.0,3.6357,3.6407,3.6374,3.6581,3.6711,3.6711,3.6711,0.0,0.0,0.0,0.0,0.0,0.0,3.8878,3.9104,3.9104,3.9104,3.9104,3.9104,3.9104,3.9104,3.9104,3.9104,3.9104,3.9104,3.9104,3.9104,0.0,0.0,0.0,0.0,3.9402,3.9981,4.0033,4.0423,4.1241,4.1259,4.1356,4.1597,4.1597,4.1597,4.1597,4.1597,4.1486,4.1263,4.1263,0.0,0.0,0.0,0.0,0.0,0.0,0.0,0.0,0.0,0.0,0.0,0.0,0.0,0.0,0.0,0.0,0.0,0.0,0.0,4.0424,4.0345,4.0305,0.0,0.0,0.0,0.0,0.0,0.0,0.0,0.0,0.0,4.1656,4.184,4.2028,0.0,0.0,4.3273,4.3403,4.4568,4.5327,4.5095,4.5778,0.0,4.6068,4.6208,4.625,4.6079,4.6038,4.6068,4.6097,4.6061,4.6057,4.6082,4.6057,4.6068,4.6165,4.5482,4.5026,4.5306,4.5841,4.6339,4.6612,4.7058,4.7454,3.8643,3.8529,3.7231,3.6732,3.6848,3.7073,3.7176,3.7188,3.7529,3.7655,3.7659,3.7659,3.7912,3.838,3.8383,0.0,0.0,0.0,3.9104,3.9104,3.9104,3.9104,3.9104,3.9104,3.9272,3.961,3.9606,3.9773,4.0111,4.0085,4.0085,4.0067,0.0,3.9272,3.961,3.9625,4.0037,4.0832,4.0873,4.1263,4.2054,4.2389,4.2541,4.256,4.2556,4.2556,4.2556,4.256,4.2411,4.2095,4.2077,4.191,0.0,0.0,0.0,0.0,0.0,0.0,0.0,0.0,0.0,0.0,0.0,3.9282,3.9374,0.0,0.0,0.0,3.9736,3.9838,3.9953,3.9981,0.0,0.0,0.0,0.0,0.0,0.0,0.0,4.1507,4.2043,4.2413,4.2408,4.2963,4.3212,4.2757,4.3621,4.4334,4.443,0.0,4.6186,4.5986,4.6401,4.6694,4.6535,4.6647,4.6695,4.6543,4.6519,4.651,4.6541,4.657,4.658,4.6608,4.6613,4.6629,4.6625,4.5907,4.548,4.5934,4.6383,4.6791,4.7071,4.7546,4.795,4.1597,4.1319,3.8365,3.7178,3.73,3.7791,3.799,3.8042,3.877,3.9104,3.9104,3.9104,3.9123,3.9212,3.9212,0.0,3.9305,3.9305,3.9324,3.9309,3.9287,3.9287,3.9309,3.9309,3.9717,4.0486,4.0501,4.0869,4.156,4.1579,4.1597,4.156,4.007,3.9699,4.0464,4.0498,4.0891,4.1672,4.1705,4.2092,4.289,4.3615,4.4001,4.4001,4.4001,4.4005,4.4001,4.4005,4.3648,4.2946,4.2909,4.2556,4.1854,0.0,0.0,0.0,0.0,0.0,0.0,0.0,0.0,0.0,0.0,0.0,0.0,0.0,0.0,0.0,3.9636,0.0,3.9344,3.9553,0.0,0.0,0.0,4.1215,4.1977,4.1972,4.1928,4.2062,0.0,0.0,4.3009,4.4399,4.4877,4.3446,4.4707,4.5706,4.5547,4.6153,4.6591,4.6589,4.6669,4.6707,4.6851,4.6849,4.6845,4.6852,4.6698,4.6782,4.6802,4.6777,4.6725,4.6797,4.6725,4.6744,4.6721,4.6764,4.68,4.7171,4.7119,4.7107,4.7378,4.7624,4.7854,4.1597,4.1538,4.0758,4.0109,3.9562,3.9039,3.8807,3.8826,3.9008,3.9104,3.9104,3.9104,3.9476,4.0089,4.0093,4.0423,4.0999,4.0999,4.1018,4.0999,4.0999,4.1018,4.1021,4.0999,4.1107,4.1297,4.1319,4.1408,4.1597,4.1597,4.1597,4.1579,4.1189,4.1111,4.13,4.1319,4.1705,4.25,4.2519,4.2913,4.367,4.3912,4.4001,4.4001,4.4001,4.4001,4.4001,4.4001,4.3912,4.3726,4.3722,4.3619,4.3448,4.2853,0.0,0.0,0.0,0.0,0.0,0.0,0.0,0.0,0.0,3.9222,3.926,0.0,3.9266,0.0,3.9829,4.0505,4.1301,4.1409,0.0,0.0,4.1744,4.1778,4.1732,4.225,4.2649,4.2608,4.3847,4.4712,4.4719,4.5588,4.6079,4.571,4.6012,4.6372,4.6532,4.7035,4.7423,4.7456,4.7906,4.8329,4.8277,4.8333,4.8291,4.8316,4.8301,4.8334,4.8337,4.834,4.8347,4.833,4.832,4.8329,4.8273,4.8333,4.8326,4.8418,4.8138,4.7888,4.8164,4.8726,4.9217,4.3251,4.3177,4.2452,4.1872,4.1389,4.0576,4.02,4.0215,4.02,4.0197,4.0219,4.02,4.0483,4.0929,4.0947,4.117,4.1597,4.1597,4.1597,4.1597,4.1597,4.1597,4.1597,4.1597,4.178,4.2136,4.2132,4.2318,4.2653,4.2671,4.2671,4.269,4.3065,4.3247,4.3214,4.2504,4.2541,4.3318,4.3332,4.3555,4.3982,4.4001,4.4001,4.4001,4.4001,4.4001,4.4001,4.4001,4.4001,4.4001,4.4001,4.4001,4.4001,4.3578,4.3321,0.0,0.0,0.0,0.0,0.0,0.0,0.0,0.0,0.0,0.0,0.0,4.0205,4.0215,4.0646,4.1193,4.1817,4.1834,4.1957,4.2327,4.2384,4.2471,4.2657,4.3445,4.3955,4.3938,4.5026,4.5848,4.5848,4.6531,4.7051,4.7033,4.7353,4.7487,4.736,4.7802,4.824,4.8254,4.8626,4.8886,4.8886,4.8886,4.8886,4.8886,4.8886,4.8886,4.8886,4.8886,4.8886,4.8886,4.8886,4.8886,4.8886,4.8886,4.8886,4.8856,4.8667,4.8545,4.8641,4.9178,4.9624,4.5443,4.5313,4.3879,4.328,4.3225,4.2523,4.1984,4.1597,4.1597,4.1597,4.1597,4.1597,4.1649,4.1757,4.1746,4.1817,4.1913,4.2043,4.2077,4.2077,4.2173,4.2225,4.2225,4.2244,4.2597,4.3266,4.3262,4.3629,4.4306,4.4325,4.4321,4.4358,4.5068,4.5439,4.5387,4.4005,4.3615,4.4298,4.4321,4.4321,4.4321,4.4321,4.4283,4.4172,4.4172,4.4098,4.4001,4.4001,4.4001,4.4001,4.4001,4.4001,4.4001,4.4001,4.4001,0.0,4.334,0.0,0.0,0.0,0.0,0.0,0.0,0.0,0.0,4.1605,4.1631,4.1739,4.1742,4.1802,4.1895,4.1913,4.224,4.3024,4.3117,4.3433,4.4224,4.4993,4.5439,4.5462,4.6168,4.6647,4.668,4.7348,4.785,4.7887,4.8366,4.8509,4.8067,4.8439,4.883,4.8886,4.8886,4.8886,4.8886,4.8886,4.8886,4.8886,4.8886,4.8886,4.8886,4.8886,4.8886,4.8886,4.8886,4.8886,4.8886,4.8886,4.8886,4.8886,4.8866,4.8846,4.888,4.91,4.9335,4.6275,4.6238,4.5937,4.5811,4.5788,4.5625,4.4046,4.1597,4.1597,4.1597,4.1597,4.1597,4.1969,4.256,4.2578,4.2927,4.3581,4.4283,4.4607,4.4626,4.5272,4.5569,4.5588,4.5569,4.5639,4.5792,4.5807,4.5885,4.603,4.603,4.6034,4.603,4.6182,4.6271,4.6257,0.0,0.0,0.0,4.6034,4.603,4.603,4.6011,4.5699,4.509,4.5053,0.0,4.4057,4.4001,4.4001,4.4001,4.4001,0.0,0.0,0.0,0.0,0.0,0.0,0.0,0.0,0.0,0.0,0.0,4.3552,4.2995,4.1727,4.1605,4.1861,4.25,4.2582,4.2835,4.3466,4.354,4.3879,4.4715,4.4826,4.5142,4.5918,4.6178,4.6275,4.6294,4.6981,4.7478,4.7534,4.8184,4.8644,4.863,4.8797,4.883,4.8681,4.8779,4.8886,4.8886,4.8886,4.8886,4.8886,4.8886,4.8886,4.8886,4.8886,4.8886,4.8886,4.8886,4.8886,4.8886,4.8886,4.8886,4.8886,4.8886,4.8886,4.8886,4.8886,4.8886,4.8886,4.896,4.899,4.7088,4.707,4.6661,4.6513,0.0,4.6513,4.5569,4.4009,4.4009,4.4005,4.4009,4.4027,4.425,4.4618,4.4622,4.4845,4.5249,4.5699,4.5904,4.5918,4.6294,4.6513,4.6513,4.6513,4.6513,4.6513,4.6513,4.6513,4.6513,4.6513,4.6513,4.6513,4.6884,4.7088,4.7107,4.7497,4.7293,4.6513,4.6513,4.6513,4.6513,4.6513,4.6308,4.5904,4.5885,0.0,0.0,0.0,0.0,0.0,0.0,0.0,0.0,4.4001,0.0,4.4001,4.4001,4.4001,4.4001,4.4001,4.4001,4.402,4.4391,4.4116,4.2876,4.2783,4.295,4.3355,4.3763,4.4213,4.4603,4.4989,4.5398,4.5825,4.5885,4.6071,4.6461,4.6851,4.7093,4.7163,4.7794,4.8296,4.8296,4.8607,4.8886,4.8886,4.8886,4.8886,4.8886,4.8886,4.8886,4.8886,4.8886,4.8886,4.8886,4.8886,4.8904,4.8886,4.8886,4.8886,4.8886,4.8886,4.8886,4.8886,4.8886,4.8886,4.8886,4.8886,4.8886,4.8886,4.8886,4.8886,4.8886,4.8886,4.8886,4.7901,4.785,4.7185,4.6921,4.6921,4.6921,4.6921,4.6907,4.6605,0.0,0.0,4.6513,4.6513,4.6513,4.6513,4.6513,4.6513,4.6647,4.6717,4.6717,4.6865,4.6925,4.6925,4.6925,4.6921,4.6925,4.6925,4.6917,4.6921,4.6921,4.6921,4.7,4.759,4.7906,4.7961,4.8574,4.8259,4.6995,4.6925,4.694,4.6925,4.6921,4.6847,4.6721,4.6725,4.6647,4.6513,4.6513,4.6182,4.5551,4.5509,4.5183,4.4488,4.4451,4.4428,4.4451,4.4432,4.4432,4.4436,4.4428,4.4451,4.4451,4.5101,4.5142,4.4283,4.4358,4.4428,4.4447,4.5086,4.5499,4.5513,4.6089,4.6554,4.6702,4.6721,4.6758,4.694,4.7497,4.7906,4.798,4.8481,4.8886,4.8849,4.8867,4.8886,4.8886,4.8886,4.8886,4.8886,4.8886,4.8886,4.8886,4.8886,4.8886,4.8904,4.909,4.9113,4.9183,4.9299,4.9336,4.9355,4.9355,4.9336,4.948,4.9336,4.941,4.9369,4.9462,4.9355,4.9327,4.935,4.9355,4.9336,4.9355,4.9294,4.8737,4.8719,4.8607,4.857,4.8551,4.8551,4.8551,4.8444,4.7107,4.6513,4.6513,4.6513,4.6513,4.6513,4.6513,4.6513,4.655,4.7214,4.7534,4.7571,4.824,4.8556,4.8551,4.857,4.8551,4.8556,4.8551,4.8574,4.857,4.8556,4.857,4.8551,4.8681,4.8723,4.8742,4.8849,4.8779,4.857,4.8551,4.8556,4.857,4.8556,4.8217,4.7571,4.7534,4.7204,4.6535,4.6531,4.6461,4.6349,4.6327,4.6275,4.6164,4.6108,4.6164,4.6141,4.616,4.6145,4.6122,4.6145,4.616,4.616,4.6275,4.5996,4.5212,4.5755,4.616,4.6145,4.6219,4.6331,4.6331,4.6461,4.6865,4.7423,4.753,4.7794,4.8384,4.8589,4.8663,4.8681,4.8812,4.8886,4.8886,4.8886,4.8886,4.8886,4.8979,4.8942,4.896,4.8886,4.8886,4.8886,4.8886,4.8886,4.9127,4.9513,4.9866,4.994,5.0506,5.0841,5.0841,5.0841,5.0841,5.0971,5.0878,5.0915,5.0952,5.1059,5.091,5.0841,5.0836,5.0878,5.0859,5.0878,5.0543,4.8865,4.8881,4.8886,4.8886,4.8886,4.8886,4.8886,4.8849,4.8143,4.779,4.7794,4.7794,4.7813,4.7794,4.7794,4.7817,4.7809,4.8184,4.8351,4.8389,4.8719,4.8886,4.8886,4.8886,4.8886,4.8886,4.8886,4.8886,4.8886,4.8886,4.8886,4.8886,4.8886,4.8886,4.8886,4.8886,4.8886,4.8886,4.8886,4.8886,4.8886,4.8886,4.8742,4.8347,4.8351,4.818,4.7831,4.7813,4.7608,4.7167,4.714,4.6958,4.6531,4.6513,4.6513,4.6513,4.6513,4.6513,4.6513,4.6513,4.6513,4.6513,4.6903,4.7014,4.6651,4.6535,4.6513,4.6535,4.6865,4.714,4.7163,4.7553,4.7943,4.8314,4.8351,4.85,4.8812,4.8886,4.8886,4.8886,4.8886,4.8886,4.8886,4.8886,4.8886,4.8927,4.922,4.9531,4.9554,4.9963,5.0079,4.9703,4.994,5.0246,5.0246,5.052,5.078,5.0799,5.1138,5.1379,5.1398,5.1416,5.1416,5.1398,5.1398,5.1398,5.1416,5.1398,5.1398,5.1398,5.1398,5.1398,5.1398,5.1398,5.1101,4.8835,4.8874,4.8896,4.8886,4.8886,4.8886,4.8886,4.8886,4.8886,4.8886,4.8886,4.8886,4.8886,4.8886,4.8886,4.8886,4.8886,4.8886,4.8886,4.8886,4.8886,4.8886,4.8886,4.8886,4.8886,4.8886,4.8886,4.8886,4.8886,4.8886,4.8886,4.8886,4.8886,4.8886,4.8886,4.8886,4.8886,4.8886,4.8886,4.8886,4.8886,4.8886,4.8886,4.8886,4.8886,4.8886,4.8886,4.8886,4.8612,4.8013,4.7961,4.7683,4.7111,4.7033,4.7033,4.7033,4.7037,4.7051,4.7033,4.7051,4.7037,4.7051,4.7627,4.7961,4.7924,4.7404,4.7037,4.7107,4.7627,4.7976,4.8031,4.8481,4.8886,4.8886,4.8886,4.8867,4.8886,4.8886,4.8886,4.8886,4.8886,4.8886,4.8886,4.8886,4.8997,4.9276,4.9889,5.0372,5.0465,5.1115,5.13,5.0985,5.1101,5.1272,5.1398,5.157,5.1639,5.1658,5.1881,5.2043,5.2062,5.2011,5.1974,5.2067,5.2029,5.2085,5.1992,5.2011,5.2048,5.2104,5.2141,5.2025,5.2085,5.2085,5.1769,4.88,4.8818,4.8892,4.8886,4.8886,4.8886,4.8886,4.8886,4.8886,4.8886,4.8886,4.8886,4.8886,4.8886,4.8886,4.8886,4.8886,4.8886,4.8886,4.8886,4.8886,4.8886,4.8886,4.8886,4.8886,4.8886,4.8886,4.8886,4.8886,4.8886,4.8886,4.8886,4.8886,4.8886,4.8886,4.8886,4.8886,4.8886,4.8886,4.8886,4.8886,4.8886,4.8886,4.8886,4.8886,4.8886,4.8886,4.8886,4.8849,4.8797,4.8756,4.8737,4.8649,4.8663,4.8644,4.8626,4.8626,4.8681,4.8649,4.87,4.8607,4.87,4.8663,4.8737,4.876,4.8681,4.8667,4.863,4.8686,4.8719,4.877,4.8849,4.8886,4.8886,4.8886,4.8886,4.8886,4.8886,4.8886,4.8886,4.8886,4.8904,4.896,4.9057,4.9313,5.0005,5.0766,5.1268,5.1323,5.195,5.2471,5.2229,5.1918,5.1551,5.1602,5.2067,5.2419,5.2545,5.3083,5.3306,5.3306,5.3362,5.3529,5.3107,5.3385,5.3325,5.3399,5.3571,5.346,5.3232,5.3288,5.3478,5.3571,5.3441,5.2972,4.8759,4.8856,4.8891,4.8886,4.8886,4.8886,4.8886,4.8886,4.8886,4.8886,4.8886,4.8886,4.8886,4.8886,4.8886,4.8886,4.8886,4.8886,4.8886,4.8886,4.8886,4.8886,4.8886,4.8886,4.8886,4.8886,4.8886,4.8886,4.8886,4.8886,4.8886,4.8886,4.8886,4.8886,4.8886,4.8886,4.8886,4.8886,4.8886,4.8886,4.8886,4.8886,4.8886,4.8886,4.8886,4.8886,4.8886,4.8886,4.8886,4.8886,4.8886,4.8886,4.8886,4.8886,4.8886,4.8886,4.8886,4.8886,4.8886,4.8886,4.8886,4.8886,4.8886,4.8886,4.8886,4.8886,4.8886,4.8886,4.8886,4.8886,4.8886,4.8886,4.8886,4.8886,4.8886,4.8886,4.8886,4.8886,4.8886,4.8886,4.8886,4.9104,4.9573,5.0079,5.0488,5.0952,5.1584,5.2067,5.2155,5.2782,5.3251,5.3269,5.2991,5.2842,5.2805,5.3046,5.3269,5.3362,5.3566,5.3794,5.3813,5.3813,5.3789,5.3813,5.3813,5.3813,5.372,5.3813,5.3813,5.3813,5.3813,5.3813,5.3813,5.3813,5.3423,4.8669,4.8807,4.8883,4.8886,4.8886,4.8886,4.8886,4.8886,4.8886,4.8886,4.8886,4.8886,4.8886,4.8886,4.8886,4.8886,4.8886,4.8886,4.8886,4.8886,4.8886,4.8886,4.8886,4.8886,4.8886,4.8886,4.8886,4.8886,4.8886,4.8886,4.8886,4.8886,4.8886,4.8886,4.8886,4.8886,4.8886,4.8886,4.8886,4.8886,4.8886,4.8886,4.8886,4.8886,4.8886,4.8886,4.8886,4.8886,4.8886,4.8886,4.8886,4.8886,4.8886,4.8886,4.8886,4.8886,4.8886,4.8886,4.8886,4.8886,4.8886,4.8886,4.8886,4.8886,4.8886,4.8886,4.8886,4.8886,4.8886,4.8886,4.8886,4.8886,4.8886,4.8886,4.8886,4.8886,4.8886,4.8886,4.8979,4.9164,4.9317,4.9536,5.0353,5.1138,5.1714,5.1811,5.2419,5.2916,5.2972,5.3418,5.3775,5.3813,5.3771,5.3752,5.3813,5.372,5.3813,5.3813,5.3813,5.3813,5.3813,5.3813,5.3813,5.3813,5.3813,5.3813,5.3813,5.3813,5.3813,5.3813,5.3813,5.3813,5.3813,5.3813,5.3813,4.8546,4.8688,4.883,4.8993,4.8923,4.896,4.8942,4.9072,4.8979,4.8942,4.9016,4.8997,4.8942,4.8997,4.9072,4.8909,4.8886,4.8886,4.8886,4.8886,4.8886,4.8886,4.8886,4.8886,4.8886,4.8886,4.8886,4.8886,4.8886,4.8886,4.8886,4.8886,4.8886,4.8886,4.8886,4.8886,4.8886,4.8886,4.8886,4.8886,4.8886,4.8886,4.8886,4.8886,4.8886,4.8886,4.8886,4.8886,4.8886,4.8886,4.8886,4.8886,4.8886,4.8886,4.8886,4.8886,4.8886,4.8886,4.8886,4.8886,4.8886,4.8886,4.8886,4.8886,4.8886,4.8886,4.8886,4.8886,4.8886,4.8886,4.8886,4.8886,4.8886,4.8886,4.8886,4.8886,4.8937,4.9016,4.9276,4.9866,5.0126,5.0502,5.1268,5.2043,5.2471,5.2675,5.3232,5.3678,5.3622,5.3752,5.3789,5.3813,5.3813,5.3813,5.3813,5.3813,5.3813,5.3813,5.3813,5.3813,5.3813,5.3813,5.3813,5.3813,5.3813,5.3813,5.3813,5.3813,5.3813,5.3813,5.3813,5.3813,5.3813,5.3813,5.3813,5.0146,5.0269,5.0333,5.042,5.0488,5.0506,5.0492,5.0506,5.0506,5.0502,5.0506,5.0506,5.0506,5.0488,5.0506,4.9912,4.896,4.8886,4.8886,4.8886,4.8886,4.8886,4.8886,4.8886,4.8886,4.8886,4.8886,4.8886,4.8886,4.8886,4.8886,4.8886,4.8886,4.8886,4.8886,4.8886,4.8886,4.8886,4.8886,4.8886,4.8886,4.8886,4.8886,4.8886,4.8886,4.8886,4.8886,4.8886,4.8886,4.8886,4.8886,4.8886,4.8886,4.8886,4.8886,4.8886,4.8886,4.8886,4.8886,4.8886,4.8886,4.8886,4.8886,4.8886,4.8886,4.8886,4.8886,4.8904,4.8904,4.8886,4.8886,4.8886,4.8886,4.8904,4.8904,4.9164,4.9536,4.9684,5.0,5.078,5.1338,5.1858,5.2173,5.2861,5.3362,5.3404,5.3622,5.3771,5.3813,5.3813,5.3813,5.3813,5.3813,5.3813,5.3813,5.3813,5.3813,5.3813,5.3813,5.3813,5.3813,5.3813,5.3813,5.3813,5.3813,5.3813,5.3813,5.3813,5.3813,5.3813,5.3813,5.3813,5.3813,5.3813,5.3813,5.0965,5.109,5.1152,5.1208,5.1306,5.1334,5.1347,5.1329,5.1384,5.1398,5.1398,5.1398,5.1398,5.1398,5.1398,5.0836,4.9777,4.9726,4.9707,4.9726,4.9722,4.9707,4.9726,4.9707,4.9703,4.9652,4.9406,4.9164,4.8904,4.8886,4.8886,4.8886,4.8886,4.8886,4.8886,4.8886,4.8886,4.8886,4.8886,4.8886,4.8886,4.8886,4.8886,4.8886,4.8886,4.8886,4.8886,4.8886,4.8886,4.8886,4.8886,4.8886,4.8886,4.8886,4.8886,4.8886,4.8886,4.8886,4.8886,4.8886,4.8886,4.8886,4.8886,4.8886,4.8886,4.8886,4.8997,4.9183,4.9294,4.935,4.9652,4.9726,4.9596,4.9429,4.9536,4.9912,5.0409,5.0497,5.091,5.1672,5.2452,5.2898,5.3046,5.3455,5.3715,5.3813,5.3813,5.3813,5.3813,5.3813,5.3813,5.3813,5.3813,5.3813,5.3813,5.3813,5.3813,5.3813,5.3813,5.3813,5.3813,5.3813,5.3813,5.3813,5.3813,5.3813,5.3813,5.3813,5.3813,5.3813,5.3813,5.3813,5.3813,5.3813,5.3813,5.0992,5.1082,5.1069,5.1293,5.1391,5.1439,5.1315,5.144,5.151,5.1658,5.1732,5.1546,5.1676,5.1546,5.169,5.1468,5.1435,5.1416,5.1286,5.1161,5.1193,5.1193,5.1175,5.1119,5.1138,5.1119,5.0469,4.9722,4.9164,4.9164,4.9164,4.9016,4.915,4.9239,4.8997,4.9164,4.9053,4.9127,4.9183,4.9072,4.8923,4.9109,4.9146,4.909,4.9113,4.9127,4.9034,4.8942,4.8886,4.8886,4.8886,4.8886,4.8886,4.8886,4.8886,4.8886,4.8886,4.8886,4.8886,4.8886,4.8886,4.8923,4.8923,4.9034,4.9053,4.9127,4.9429,4.9959,5.0149,5.039,5.1063,5.1249,5.0947,5.033,5.0692,5.1142,5.1342,5.1416,5.1714,5.2508,5.3232,5.3738,5.3775,5.3775,5.3813,5.3813,5.3813,5.3813,5.3813,5.3813,5.3813,5.3813,5.3813,5.3813,5.3813,5.3813,5.3813,5.3813,5.3813,5.3813,5.3813,5.3813,5.3813,5.3813,5.3813,5.3813,5.3813,5.3813,5.3813,5.3813,5.3813,5.3813,5.3813,5.3813,5.3813,5.2518,5.2553,5.2589,5.2731,5.2872,5.2916,5.2946,5.2976,5.3037,5.3046,5.3065,5.3046,5.3042,5.3046,5.3046,5.3028,5.3065,5.3009,5.2466,5.1584,5.1416,5.1454,5.1435,5.1416,5.1398,5.1361,5.1138,5.0878,5.0636,5.058,5.0618,5.0618,5.0599,5.0618,5.0543,5.0632,5.0618,5.0618,5.0632,5.0618,5.0618,5.0618,5.0599,5.0613,5.0632,5.0632,5.0557,4.9522,4.8923,4.8923,4.8886,4.8886,4.8886,4.8886,4.8886,4.8886,4.8886,4.8886,4.8904,4.8923,4.896,4.9016,4.9401,4.968,4.9796,5.026,5.0655,5.0966,5.0989,5.1156,5.1421,5.1936,5.1862,5.1101,5.1249,5.1718,5.2192,5.2675,5.3116,5.3357,5.3641,5.3789,5.3813,5.3813,5.3813,5.3813,5.3813,5.3813,5.3813,5.3813,5.3813,5.3813,5.3813,5.3813,5.3813,5.3813,5.3813,5.3813,5.3813,5.3813,5.3813,5.3813,5.3813,5.3813,5.3813,5.3813,5.3813,5.3813,5.3813,5.3813,5.3813,5.3813,5.3813,5.3813,5.3813,5.322,5.3259,5.3264,5.3367,5.3548,5.3593,5.3676,5.3769,5.3789,5.3813,5.3794,5.3789,5.3813,5.3813,5.3813,5.3813,5.3813,5.3813,5.3251,5.2401,5.2289,5.2303,5.2289,5.2289,5.2104,5.1881,5.1844,5.1676,5.1402,5.1398,5.1379,5.1379,5.1398,5.1361,5.1398,5.1398,5.1398,5.1398,5.1361,5.1398,5.1398,5.1398,5.1398,5.1379,5.1379,5.1398,5.1323,5.0339,4.9666,4.935,4.9072,4.8904,4.8886,4.8904,4.902,4.9294,4.9383,4.9476,4.9763,4.993,4.9819,4.993,5.0302,5.0576,5.0669,5.1175,5.1449,5.1788,5.1844,5.1969,5.2327,5.2693,5.2786,5.2382,5.234,5.2512,5.3051,5.3473,5.3734,5.3752,5.3794,5.3813,5.3813,5.3813,5.3813,5.3813,5.3813,5.3813,5.3813,5.3813,5.3813,5.3813,5.3813,5.3813,5.3813,5.3813,5.3813,5.3813,5.3813,5.3813,5.3813,5.3813,5.3813,5.3813,5.3813,5.3813,5.3813,5.3813,5.3813,5.3813,5.3813,5.3813,5.3813,5.3813,5.3813,5.319,5.319,5.319,5.3256,5.3339,5.3469,5.3611,5.37,5.3778,5.3813,5.3813,5.3813,5.3813,5.3813,5.3813,5.3813,5.3813,5.3794,5.3757,5.3627,5.3608,5.3553,5.3515,5.3511,5.3195,5.2731,5.2679,5.2303,5.1844,5.1788,5.1528,5.1732,5.1788,5.1602,5.1769,5.1584,5.1709,5.1788,5.1676,5.1695,5.1695,5.1639,5.1658,5.1676,5.1714,5.1732,5.1732,5.1472,5.0971,5.0205,4.9577,4.9294,4.9132,4.9053,4.9517,5.0153,5.0163,5.0539,5.1138,5.1119,5.1156,5.1138,5.1286,5.1477,5.1491,5.1714,5.2062,5.2601,5.2656,5.2935,5.3473,5.3678,5.3659,5.3757,5.3511,5.3604,5.3757,5.3789,5.3794,5.3813,5.3813,5.3813,5.3813,5.3813,5.3813,5.3813,5.3813,5.3813,5.3813,5.3813,5.3813,5.3813,5.3813,5.3813,5.3813,5.3813,5.3813,5.3813,5.3813,5.3813,5.3813,5.3813,5.3813,5.3813,5.3813,5.3813,5.3813,5.3813,5.3813,5.3813,5.3813,5.3813,5.3813,5.3808,5.3873,5.319,5.319,5.319,5.3241,5.3318,5.3435,5.3573,5.3709,5.3774,5.3798,5.3808,5.3813,5.3808,5.3813,5.3813,5.3813,5.3813,5.3813,5.3813,5.3813,5.3813,5.3813,5.3813,5.3813,5.3696,5.3455,5.3404,5.3385,5.3176,5.3051,5.3088,5.3176,5.3046,5.3102,5.3176,5.3065,5.3153,5.3158,5.3144,5.3107,5.3107,5.3088,5.3158,5.3158,5.3121,5.3125,5.3088,5.2582,5.1899,5.1133,5.0892,5.0743,5.0655,5.0636,5.0729,5.0966,5.1059,5.1138,5.1361,5.1472,5.1435,5.1477,5.2011,5.2266,5.2303,5.2842,5.3213,5.3492,5.3492,5.3548,5.3757,5.3813,5.3813,5.3813,5.3813,5.3813,5.3813,5.3813,5.3813,5.3813,5.3813,5.3813,5.3813,5.3813,5.3813,5.3813,5.3813,5.3813,5.3813,5.3813,5.3813,5.3813,5.3813,5.3813,5.3813,5.3813,5.3813,5.3813,5.3813,5.3813,5.3813,5.3813,5.3813,5.3813,5.3813,5.3813,5.3813,5.3813,5.3813,5.3813,5.3813,5.3813,5.3826,5.3845,5.3966,5.2535,5.2535,5.2535,5.2702,5.2958,5.3049,5.3266,5.3564,5.3653,5.3707,5.3749,5.3741,5.3783,5.3803,5.3813,5.3813,5.3813,5.3813,5.3813,5.3813,5.3813,5.3813,5.3813,5.3813,5.3813,5.3813,5.3813,5.3794,5.3752,5.3813,5.3813,5.3738,5.3813,5.3813,5.3715,5.3813,5.3813,5.3771,5.3813,5.3813,5.3813,5.3813,5.3794,5.3789,5.3813,5.3813,5.3715,5.3343,5.2731,5.2025,5.1602,5.1398,5.1398,5.1398,5.1551,5.182,5.1895,5.2011,5.234,5.2396,5.2396,5.2489,5.2902,5.3046,5.3153,5.3566,5.3813,5.3771,5.3813,5.3813,5.3813,5.3813,5.3813,5.3813,5.3813,5.3813,5.3813,5.3813,5.3813,5.3813,5.3813,5.3813,5.3813,5.3813,5.3813,5.3813,5.3813,5.3813,5.3813,5.3813,5.3813,5.3813,5.3813,5.3813,5.3813,5.3813,5.3813,5.3813,5.3813,5.3813,5.3813,5.3813,5.3813,5.3813,5.3813,5.3813,5.3808,5.3808,5.3813,5.3813,5.3813,5.4012,5.4161,5.4309,5.4375,5.1606,5.1606,5.1612,5.1916,5.2375,5.242,5.278,5.3286,5.3371,5.3504,5.3627,5.367,5.3711,5.3807,5.3774,5.3793,5.3808,5.3813,5.3813,5.3813,5.3813,5.3813,5.3813,5.3813,5.3813,5.3813,5.3813,5.3813,5.3813,5.3813,5.3813,5.3813,5.3813,5.3813,5.3813,5.3813,5.3813,5.3813,5.3813,5.3813,5.3813,5.3813,5.3813,5.3813,5.3813,5.3813,5.3813,5.3696,5.3418,5.2754,5.2029,5.1844,5.1751,5.1695,5.2011,5.2568,5.2749,5.3009,5.3566,5.3566,5.3678,5.3622,5.3659,5.3813,5.3734,5.3775,5.3813,5.3813,5.3813,5.3813,5.3813,5.3813,5.3813,5.3813,5.3813,5.3813,5.3813,5.3813,5.3813,5.3813,5.3813,5.3813,5.3813,5.3813,5.3813,5.3813,5.3813,5.3813,5.3813,5.3813,5.3813,5.3813,5.3813,5.3813,5.3813,5.3813,5.3813,5.3813,5.3813,5.3813,5.3813,5.3813,5.3813,5.3813,5.3813,5.3808,5.3803,5.3808,5.3975,5.4198,5.4476,5.4718,5.4941,5.5089,5.5192,5.1606,5.1606,5.1606,5.167,5.1788,5.185,5.2194,5.272,5.2835,5.3141,5.3469,5.3529,5.3612,5.3715,5.3724,5.3763,5.3793,5.3803,5.3813,5.3813,5.3813,5.3808,5.3803,5.3803,5.3808,5.3808,5.3813,5.3813,5.3813,5.3813,5.3813,5.3813,5.3813,5.3813,5.3813,5.3813,5.3813,5.3813,5.3813,5.3813,5.3813,5.3813,5.3813,5.3813,5.3813,5.3813,5.3813,5.3813,5.372,5.3534,5.333,5.3088,5.3102,5.3139,5.3251,5.3362,5.3492,5.3604,5.3752,5.3813,5.3813,5.3813,5.3813,5.3813,5.3813,5.3813,5.3813,5.3813,5.3813,5.3813,5.3813,5.3813,5.3813,5.3813,5.3813,5.3813,5.3813,5.3813,5.3813,5.3813,5.3813,5.3813,5.3813,5.3813,5.3813,5.3813,5.3813,5.3813,5.3813,5.3813,5.3813,5.3813,5.3813,5.3813,5.3813,5.3813,5.3813,5.3813,5.3813,5.4011,5.4011,5.3989,5.4063,5.397,5.3813,5.3882,5.423,5.4509,5.4811,5.4992,5.5177,5.5535,5.5814,5.5944,5.619,5.0843,5.0843,5.085,5.1004,5.1216,5.126,5.1572,5.2072,5.2428,5.2738,5.3043,5.3255,5.3484,5.3616,5.3626,5.3662,5.3749,5.3802,5.3779,5.3764,5.3754,5.3768,5.3749,5.3759,5.3774,5.3798,5.3813,5.3813,5.3813,5.3808,5.3813,5.3813,5.3813,5.3813,5.3813,5.3813,5.3813,5.3813,5.3813,5.3813,5.3813,5.3813,5.3813,5.3813,5.3813,5.3813,5.3813,5.3813,5.3813,5.3813,5.3813,5.3813,5.3813,5.3813,5.3813,5.3813,5.3813,5.3813,5.3813,5.3813,5.3813,5.3813,5.3813,5.3813,5.3813,5.3813,5.3813,5.3813,5.3813,5.3813,5.3813,5.3813,5.3813,5.3813,5.3813,5.3813,5.3813,5.3813,5.3813,5.3813,5.3813,5.3813,5.3813,5.3813,5.3813,5.3813,5.3813,5.3813,5.3813,5.3813,5.3813,5.3813,5.3813,5.3813,5.3813,5.3813,5.3813,5.3813,5.3813,5.4164,5.445,5.4433,5.442,5.4401,5.4443,5.4811,5.5145,5.5405,5.5591,5.5721,5.5962,5.6408,5.6705,5.6817,5.7151,4.9996,4.9996,4.9996,5.027,5.0636,5.0691,5.098,5.1507,5.1958,5.2249,5.2495,5.2902,5.3024,5.3289,5.331,5.3449,5.3637,5.3692,5.3687,5.367,5.367,5.3666,5.3666,5.3657,5.3686,5.3755,5.3783,5.3788,5.375,5.3774,5.376,5.3784,5.3803,5.3808,5.3813,5.3813,5.3813,5.3813,5.3813,5.3813,5.3813,5.3813,5.3813,5.3813,5.3813,5.3813,5.3813,5.3813,5.3813,5.3813,5.3813,5.3813,5.3813,5.3813,5.3813,5.3813,5.3813,5.3813,5.3813,5.3813,5.3813,5.3813,5.3813,5.3813,5.3813,5.3813,5.3813,5.3813,5.3813,5.3813,5.3813,5.3813,5.3813,5.3813,5.3813,5.3813,5.3813,5.3813,5.3813,5.3813,5.3813,5.3813,5.3813,5.3813,5.3813,5.3813,5.3813,5.3813,5.3813,5.3813,5.3813,5.3813,5.3813,5.3813,5.3813,5.4213,5.4149,5.4071,5.4005,5.4503,5.4965,5.5138,5.5181,5.5199,5.5329,5.565,5.5944,5.6222,5.6371,5.645,5.6822,5.7337,5.756,5.7666,5.7987,4.9996,4.9996,4.9996,5.0051,5.0113,5.0145,5.0471,5.089,5.1072,5.1601,5.2285,5.2066,5.226,5.2546,5.2681,5.2985,5.3313,5.344,5.3491,5.3489,5.3504,5.3543,5.3524,5.3524,5.3521,5.3574,5.3637,5.3642,5.3604,5.3647,5.3724,5.3734,5.3783,5.3808,5.3813,5.3813,5.3813,5.3813,5.3813,5.3813,5.3813,5.3813,5.3813,5.3813,5.3813,5.3813,5.3813,5.3813,5.3813,5.3813,5.3813,5.3813,5.3813,5.3813,5.3813,5.3813,5.3813,5.3813,5.3813,5.3813,5.3813,5.3813,5.3813,5.3813,5.3813,5.3813,5.3813,5.3813,5.3813,5.3813,5.3813,5.3813,5.3813,5.3813,5.3813,5.3813,5.3813,5.3813,5.3813,5.3813,5.3813,5.3813,5.3813,5.3813,5.3813,5.3813,5.3813,5.3813,5.3813,5.3813,5.3813,5.3813,5.3813,5.3813,5.3813,5.4383,5.4677,5.4549,5.4622,5.5109,5.5535,5.5882,5.6012,5.6079,5.6117,5.6268,5.6594,5.7002,5.7193,5.7286,5.7764,5.8237,5.8205,5.8167,5.8279,4.9996,4.9996,4.9996,4.9996,4.9996,4.9996,5.0127,5.039,5.0667,5.1072,5.1456,5.1576,5.1744,5.1988,5.2048,5.2249,5.2537,5.2979,5.3033,5.3043,5.3235,5.3395,5.3395,5.3381,5.3372,5.3391,5.3447,5.3504,5.3514,5.3646,5.3699,5.3715,5.3774,5.3808,5.3813,5.3813,5.3808,5.3808,5.3808,5.3808,5.3808,5.3808,5.3808,5.3808,5.3808,5.3813,5.3813,5.3813,5.3813,5.3813,5.3813,5.3813,5.3813,5.3813,5.3813,5.3813,5.3813,5.3813,5.3813,5.3813,5.3813,5.3813,5.3813,5.3813,5.3813,5.3813,5.3813,5.3813,5.3813,5.3813,5.3813,5.3813,5.3813,5.3813,5.3813,5.3813,5.3808,5.3808,5.3802,5.3783,5.375,5.375,5.3813,5.3813,5.3813,5.3813,5.3813,5.3813,5.3813,5.3838,5.386,5.3937,5.3978,5.4099,5.4149,5.4607,5.4949,5.4866,5.5133,5.563,5.5887,5.6113,5.6658,5.7068,5.7079,5.6799,5.7499,5.7995,5.8056,5.8059,5.8261,5.845,5.8579,5.8669,5.8669,4.9996,4.9996,4.9996,4.9996,4.9996,4.9996,5.0003,5.0087,5.045,5.0712,5.0854,5.1116,5.1294,5.1405,5.1449,5.1507,5.1644,5.2277,5.2444,5.262,5.2888,5.3122,5.3266,5.3266,5.3264,5.3246,5.3282,5.3339,5.3459,5.3578,5.3656,5.371,5.3774,5.3813,5.3813,5.3813,5.3803,5.3798,5.3793,5.3774,5.3737,5.3765,5.3765,5.3755,5.375,5.375,5.3783,5.3765,5.3784,5.3798,5.3813,5.3813,5.3813,5.3813,5.3813,5.3813,5.3813,5.3813,5.3813,5.3813,5.3813,5.3813,5.3813,5.3813,5.3813,5.3813,5.3813,5.3813,5.3813,5.3813,5.3813,5.3813,5.3813,5.3813,5.3826,5.3854,5.3955,5.3944,5.3775,5.3733,5.3666,5.3681,5.3734,5.3813,5.3813,5.3813,5.3813,5.3813,5.3821,5.3931,5.3983,5.4094,5.4225,5.442,5.4603,5.4884,5.5044,5.4943,5.542,5.6025,5.6114,5.62,5.68,5.7299,5.732,5.721,5.8099,5.8582,5.8237,5.8139,5.8421,5.8495,5.839,5.8506,5.8608,4.9996,4.9996,4.9996,4.9996,4.9996,4.9996,4.9996,5.0001,5.0102,5.038,5.0705,5.0418,5.053,5.0796,5.089,5.1151,5.1469,5.1664,5.1928,5.2196,5.2481,5.2809,5.314,5.3206,5.3204,5.3169,5.318,5.3261,5.3308,5.342,5.3593,5.3685,5.3759,5.3808,5.3808,5.3756,5.3778,5.3724,5.371,5.3652,5.3603,5.3666,5.3656,5.3579,5.3569,5.3609,5.3715,5.3729,5.3735,5.3803,5.3813,5.3813,5.3813,5.3813,5.3813,5.3813,5.3813,5.3813,5.3813,5.3813,5.3813,5.3813,5.3813,5.3813,5.3813,5.3813,5.3813,5.3813,5.385,5.3919,5.3956,5.3919,5.3845,5.3975,5.4179,5.4415,5.4548,5.4563,5.4327,5.3941,5.3983,5.3758,5.365,5.3748,5.3813,5.3813,5.3793,5.3801,5.3884,5.402,5.4265,5.4425,5.4517,5.4695,5.4895,5.521,5.5212,5.508,5.5537,5.6159,5.6102,5.6134,5.6612,5.7009,5.7067,5.7343,5.7921,5.8144,5.8049,5.8043,5.8082,5.8049,5.7986,5.8174,5.8351,4.9996,4.9996,4.9996,4.9996,4.9996,4.9996,4.9996,4.9996,5.0003,5.013,5.0291,5.0113,5.0127,5.0352,5.0352,5.046,5.0715,5.0999,5.1255,5.1719,5.209,5.2529,5.2761,5.3039,5.319,5.3082,5.2917,5.2747,5.2931,5.3255,5.3568,5.3656,5.3724,5.3774,5.376,5.3669,5.3658,5.3647,5.3617,5.3568,5.3543,5.3553,5.3563,5.3504,5.3499,5.3573,5.3656,5.3704,5.3739,5.3789,5.3813,5.3813,5.3813,5.3813,5.3813,5.3813,5.3813,5.3813,5.3813,5.3813,5.3813,5.3813,5.3813,5.3813,5.3813,5.3826,5.3826,5.3813,5.4254,5.4453,5.4602,5.4941,5.515,5.5187,5.4959,5.5015,5.5244,5.5259,5.5113,5.4684,5.4219,5.3905,5.3537,5.3304,5.331,5.3301,5.3486,5.3699,5.3915,5.4204,5.4496,5.4852,5.4922,5.5,5.5192,5.5418,5.5404,5.5324,5.5309,5.5787,5.5809,5.6007,5.6321,5.6519,5.6537,5.6957,5.7606,5.7665,5.7516,5.757,5.7653,5.7546,5.7449,5.7467,5.7599,4.9996,4.9996,4.9996,4.9996,4.9996,4.9996,4.9996,4.9996,4.9996,5.0003,4.9996,4.9996,4.9996,5.0003,5.003,5.0087,5.0058,5.0411,5.0762,5.1223,5.1768,5.232,5.2648,5.2972,5.2955,5.2977,5.2419,5.2255,5.2409,5.2718,5.3059,5.342,5.3364,5.3526,5.363,5.359,5.3539,5.3529,5.3489,5.3444,5.3418,5.3439,5.3434,5.3429,5.3454,5.3528,5.3636,5.3699,5.3739,5.3789,5.3813,5.3813,5.3813,5.3813,5.3813,5.3813,5.3813,5.3813,5.3813,5.3813,5.3813,5.3813,5.384,5.3891,5.4178,5.41,5.4309,5.4593,5.4997,5.5289,5.5437,5.5912,5.5962,5.6037,5.6087,5.6013,5.5833,5.5594,5.5323,5.4846,5.4359,5.3882,5.3482,5.2947,5.2774,5.2771,5.306,5.3544,5.4013,5.4481,5.4753,5.5135,5.5196,5.5233,5.5345,5.5487,5.5505,5.547,5.5456,5.5446,5.5524,5.5499,5.5624,5.5794,5.5982,5.6364,5.6881,5.6951,5.6996,5.7008,5.7008,5.6957,5.6894,5.6903,5.6902,4.9996,4.9996,4.9996,4.9996,4.9996,4.9996,4.9996,4.9996,4.9996,4.9996,4.9996,4.9996,4.9996,4.9996,4.9996,4.9996,5.0003,5.0037,5.0571,5.1158,5.1682,5.2144,5.2465,5.2546,5.2477,5.2367,5.1909,5.1708,5.1709,5.1716,5.2218,5.2691,5.2837,5.3112,5.3356,5.3451,5.3418,5.3398,5.3352,5.3314,5.3288,5.328,5.3295,5.3267,5.33,5.338,5.3514,5.3641,5.3734,5.3803,5.3813,5.3813,5.3813,5.3956,5.3994,5.4012,5.4203,5.4221,5.4216,5.4073,5.3905,5.385,5.4007,5.4378,5.4863,5.4911,5.5252,5.5763,5.5986,5.6167,5.6222,5.632,5.67,5.6624,5.6676,5.6491,5.614,5.5598,5.5293,5.4921,5.4599,5.4333,5.3827,5.3382,5.303,5.3042,5.3404,5.389,5.4533,5.4975,5.5115,5.5341,5.5427,5.5459,5.5445,5.546,5.5423,5.5364,5.5316,5.5279,5.5269,5.5232,5.5224,5.5284,5.5522,5.583,5.6087,5.6259,5.6368,5.6355,5.6348,5.6341,5.6355,5.6358,5.6347,4.9996,4.9996,4.9996,4.9996,4.9996,4.9996,4.9996,4.9996,4.9996,4.9996,4.9996,4.9996,4.9996,4.9996,4.9996,4.9996,4.9996,4.9996,5.0331,5.0739,5.1255,5.1619,5.1909,5.2185,5.2256,5.1872,5.1397,5.1118,5.1116,5.0931,5.105,5.1509,5.216,5.2674,5.2982,5.3258,5.3321,5.3277,5.3246,5.3227,5.3222,5.3204,5.322,5.3212,5.3269,5.3364,5.3499,5.3631,5.3716,5.3811,5.3864,5.3943,5.4054,5.4346,5.4527,5.4602,5.4904,5.5145,5.5071,5.4876,5.4775,5.5294,5.5381,5.5446,5.5754,5.577,5.5888,5.6302,5.6734,5.688,5.7043,5.7446,5.7798,5.7441,5.7142,5.6907,5.6473,5.5889,5.5496,5.5217,5.5215,5.5139,5.4543,5.3925,5.3614,5.3397,5.3806,5.4241,5.487,5.5292,5.5379,5.5386,5.5445,5.5463,5.5446,5.5383,5.5321,5.5254,5.5179,5.5126,5.5081,5.5073,5.5083,5.5068,5.5073,5.5385,5.5595,5.571,5.5851,5.6073,5.5986,5.5804,5.5809,5.5826,5.5809,4.9996,4.9996,4.9996,4.9996,4.9996,4.9996,4.9996,4.9996,4.9996,4.9996,4.9996,4.9996,4.9996,4.9996,4.9996,4.9996,4.9996,5.0001,5.0123,5.0585,5.1105,5.1294,5.1411,5.1582,5.1836,5.1352,5.0857,5.0554,5.054,5.017,5.0327,5.0826,5.1495,5.2042,5.2694,5.3037,5.3233,5.3212,5.319,5.319,5.319,5.3196,5.3196,5.3222,5.3305,5.3395,5.3635,5.3906,5.4199,5.4346,5.4458,5.4593,5.4755,5.4997,5.5312,5.5591,5.5888,5.6315,5.613,5.5903,5.5677,5.5981,5.6138,5.6297,5.6559,5.6562,5.6493,5.7129,5.7386,5.743,5.7518,5.7774,5.7768,5.7299,5.7288,5.7073,5.6674,5.6164,5.584,5.5556,5.5553,5.5465,5.5224,5.4605,5.4259,5.4106,5.4444,5.479,5.5117,5.5433,5.5462,5.5445,5.5403,5.5408,5.5394,5.5272,5.5166,5.5129,5.5053,5.4969,5.493,5.4915,5.4932,5.4917,5.4963,5.503,5.5156,5.5344,5.5638,5.5936,5.5739,5.5462,5.5385,5.5423,5.5352,4.9996,4.9996,4.9996,4.9996,4.9996,4.9996,4.9996,4.9996,4.9996,4.9996,4.9996,4.9996,4.9996,4.9996,4.9996,4.9996,4.9996,5.0001,5.017,5.0654,5.1092,5.1435,5.1455,5.1455,5.1339,5.082,5.0415,5.0149,5.0094,5.0037,5.0066,5.0217,5.0857,5.1563,5.236,5.2928,5.3175,5.319,5.319,5.319,5.319,5.319,5.3209,5.344,5.3563,5.3689,5.4097,5.4603,5.4919,5.5061,5.5535,5.5758,5.5888,5.6074,5.626,5.6315,5.6413,5.6469,5.6371,5.6297,5.6479,5.6629,5.6864,5.6969,5.7233,5.7171,5.712,5.7746,5.7612,5.746,5.7497,5.7503,5.734,5.716,5.7128,5.6919,5.6488,5.6199,5.5811,5.5622,5.5566,5.5505,5.5512,5.5342,5.4938,5.4869,5.5156,5.537,5.5475,5.551,5.5485,5.5408,5.5321,5.5287,5.5234,5.5116,5.5017,5.4969,5.49,5.4817,5.4747,5.4691,5.4708,5.4774,5.4842,5.4925,5.4961,5.503,5.5299,5.5521,5.5408,5.5199,5.5094,5.5043,5.5068,4.9996,4.9996,4.9996,4.9996,4.9996,4.9996,4.9996,4.9996,4.9996,4.9996,4.9996,4.9996,4.9996,4.9996,4.9996,4.9996,4.9996,4.9996,5.0192,5.0316,5.0857,5.0739,5.0773,5.091,5.0814,5.0366,5.0022,4.9996,5.0008,4.9996,4.9996,5.0138,5.053,5.1354,5.2144,5.2654,5.2778,5.3132,5.319,5.319,5.3203,5.3259,5.3513,5.3977,5.4112,5.4419,5.4892,5.5448,5.5734,5.5863,5.6361,5.6469,5.6594,5.6742,5.7095,5.7244,5.743,5.7894,5.7894,5.7913,5.7889,5.7815,5.7718,5.7795,5.8196,5.7792,5.7921,5.7859,5.7419,5.7216,5.7259,5.7229,5.7059,5.6658,5.6503,5.6257,5.5954,5.5797,5.5585,5.5559,5.5518,5.5518,5.5518,5.5518,5.5237,5.5127,5.5313,5.5383,5.546,5.547,5.5463,5.5331,5.5229,5.5171,5.5091,5.4938,5.4863,5.4832,5.4739,5.4622,5.4551,5.4526,5.4559,5.4639,5.4725,5.4811,5.484,5.4886,5.4948,5.5032,5.4997,5.502,5.4967,5.4948,5.4977,4.9996,4.9996,4.9996,4.9996,4.9996,4.9996,4.9996,4.9996,4.9996,4.9996,4.9996,4.9996,4.9996,4.9996,4.9996,4.9996,4.9996,4.9996,4.9996,5.0063,5.0571,5.0481,5.038,5.0453,5.0502,5.0127,4.9996,4.9996,4.9996,4.9996,4.9996,5.0087,5.0366,5.0906,5.1595,5.1982,5.2232,5.2619,5.2842,5.3366,5.3524,5.3824,5.4344,5.4707,5.4972,5.5228,5.5792,5.6221,5.6549,5.6672,5.6884,5.7077,5.73,5.7541,5.7913,5.813,5.8297,5.8558,5.8357,5.8545,5.8378,5.8211,5.8426,5.8425,5.8266,5.7563,5.7461,5.734,5.6957,5.6815,5.6776,5.677,5.6477,5.6073,5.5993,5.5764,5.5717,5.5571,5.5559,5.5525,5.5518,5.5518,5.5518,5.5518,5.543,5.54,5.5413,5.5423,5.5408,5.5394,5.5349,5.5219,5.5088,5.5007,5.49,5.4768,5.4716,5.4694,5.4598,5.4512,5.4512,5.4519,5.4512,5.4512,5.4598,5.4678,5.4692,5.4739,5.477,5.4778,5.4753,5.4784,5.4815,5.4834,5.4822,4.9996,4.9996,4.9996,4.9996,4.9996,4.9996,4.9996,4.9996,4.9996,4.9996,4.9996,4.9996,4.9996,4.9996,4.9996,4.9996,4.9996,4.9996,4.9996,5.0102,5.0439,5.027,5.0284,5.0429,5.0323,5.012,4.9996,4.9996,4.9996,4.9996,4.9996,4.9996,5.0087,5.0568,5.1044,5.1446,5.1776,5.228,5.3039,5.3554,5.3857,5.4539,5.5073,5.5425,5.5653,5.5871,5.6354,5.686,5.7212,5.7592,5.8044,5.8407,5.8613,5.8669,5.8687,5.8687,5.8687,5.8428,5.8144,5.8412,5.8247,5.7954,5.7785,5.7836,5.7703,5.7208,5.6912,5.6711,5.6393,5.6257,5.6153,5.5943,5.5738,5.5632,5.5632,5.5552,5.5544,5.5525,5.5525,5.5518,5.5518,5.5518,5.5518,5.5518,5.547,5.5401,5.5324,5.5227,5.5219,5.5227,5.5159,5.5047,5.4932,5.4842,5.4733,5.4637,5.4614,5.4598,5.4575,5.4504,5.4504,5.4504,5.4504,5.4504,5.4504,5.4543,5.459,5.459,5.4559,5.4567,5.4614,5.4622,5.4677,5.4637,5.4616,4.9996,4.9996,4.9996,4.9996,4.9996,4.9996,4.9996,4.9996,4.9996,4.9996,4.9996,4.9996,4.9996,4.9996,4.9996,4.9996,4.9996,4.9996,4.9996,5.0102,5.0206,5.0106,5.0106,5.0163,5.0123,5.0058,4.9996,4.9996,4.9996,4.9996,4.9996,4.9996,5.0082,5.0471,5.0853,5.1201,5.1772,5.2413,5.3294,5.3813,5.4113,5.4573,5.5317,5.5958,5.5997,5.6303,5.7092,5.7442,5.7796,5.8169,5.8357,5.8564,5.8687,5.8687,5.8687,5.8687,5.8646,5.8471,5.8049,5.8037,5.79,5.7381,5.7038,5.7333,5.73,5.6978,5.6368,5.616,5.5972,5.5854,5.5811,5.5637,5.5518,5.5518,5.5518,5.5518,5.5518,5.5518,5.5518,5.5518,5.5518,5.5478,5.5478,5.547,5.5416,5.5314,5.5217,5.5096,5.5028,5.5035,5.4992,5.4871,5.4801,5.4725,5.4647,5.4551,5.4535,5.4512,5.4504,5.4504,5.4504,5.4504,5.4504,5.4504,5.4504,5.4504,5.4519,5.4504,5.4504,5.4504,5.4543,5.4527,5.4504,5.4504,5.4504,4.9996,4.9996,4.9996,4.9996,4.9996,4.9996,4.9996,4.9996,4.9996,4.9996,4.9996,4.9996,4.9996,4.9996,4.9996,4.9996,4.9996,4.9996,4.9996,4.9996,4.9996,4.9993,4.9986,4.9996,5.0001,4.9996,4.9996,4.9996,4.9996,4.9996,4.9996,5.0021,5.021,5.0676,5.1176,5.1798,5.243,5.299,5.3599,5.4085,5.4347,5.4654,5.5692,5.6185,5.6161,5.6718,5.7298,5.7504,5.7683,5.7986,5.8054,5.829,5.8505,5.8656,5.8687,5.8656,5.8412,5.8077,5.7665,5.7546,5.726,5.6862,5.6483,5.6699,5.6677,5.6422,5.6105,5.5876,5.568,5.554,5.5532,5.5518,5.5518,5.5518,5.5518,5.5518,5.5518,5.5518,5.5518,5.5518,5.5485,5.5438,5.5423,5.5391,5.5316,5.5181,5.506,5.4963,5.4909,5.4902,5.4799,5.4684,5.4653,5.4623,5.4543,5.4504,5.4504,5.4504,5.4504,5.4504,5.4504,5.4504,5.4504,5.4504,5.4504,5.4504,5.4504,5.4504,5.4504,5.4504,5.4504,5.4504,5.4504,5.4504,5.4504,4.9996,4.9996,4.9996,4.9996,4.9996,4.9996,4.9996,4.9996,4.9996,4.9996,4.9996,4.9996,4.9996,4.9996,4.9996,4.9996,4.9996,4.9996,4.9996,4.9996,4.9996,4.9996,4.9996,4.9996,4.9996,4.9996,4.9996,4.9996,4.9996,4.9996,5.0003,5.0045,5.0676,5.1124,5.1486,5.2511,5.3154,5.3566,5.3956,5.4347,5.4659,5.5359,5.6207,5.6272,5.6221,5.6306,5.6355,5.6479,5.6641,5.7086,5.7401,5.7711,5.8077,5.8484,5.8532,5.8433,5.814,5.7671,5.7253,5.7046,5.6724,5.6436,5.6229,5.6226,5.6112,5.5989,5.5757,5.5702,5.5554,5.5518,5.5518,5.5518,5.5518,5.5518,5.5518,5.5518,5.5518,5.5485,5.547,5.5456,5.5401,5.5346,5.5242,5.5194,5.5159,5.5007,5.4925,5.4842,5.4772,5.4764,5.4677,5.4559,5.4559,5.4559,5.4535,5.4504,5.4504,5.4504,5.4504,5.4504,5.4504,5.4504,5.4504,5.4504,5.4504,5.4504,5.4504,5.4504,5.4504,5.4504,5.4504,5.4504,5.4504,5.4504,5.4504,4.9996,4.9996,4.9996,4.9996,4.9996,4.9996,4.9996,4.9996,4.9996,4.9996,4.9996,4.9996,4.9996,4.9996,4.9996,4.9996,4.9996,4.9996,4.9996,4.9996,4.9996,4.9996,4.9996,4.9996,4.9996,4.9996,4.9996,4.9996,4.9996,4.9996,5.0013,5.009,5.0789,5.1383,5.1883,5.3004,5.3674,5.4079,5.4267,5.458,5.497,5.4915,5.5219,5.5709,5.5953,5.5879,5.5981,5.6262,5.6392,5.6619,5.6628,5.6891,5.7242,5.7782,5.7817,5.7612,5.7701,5.7272,5.6809,5.6503,5.6229,5.5922,5.5735,5.5717,5.5651,5.5559,5.5507,5.5518,5.5518,5.5518,5.5518,5.5518,5.5518,5.5518,5.551,5.551,5.551,5.5456,5.5416,5.5354,5.5291,5.5202,5.5088,5.5005,5.4961,5.4909,5.4865,5.4789,5.4655,5.4598,5.4614,5.4527,5.4527,5.4519,5.4504,5.4504,5.4504,5.4504,5.4504,5.4504,5.4504,5.4504,5.4504,5.4504,5.4504,5.4504,5.4504,5.4504,5.4504,5.4504,5.4504,5.4504,5.4504,5.4504,5.4504,4.9996,4.9996,4.9996,4.9996,4.9996,4.9996,4.9996,4.9996,4.9996,4.9996,4.9996,4.9996,4.9996,4.9996,4.9996,4.9996,4.9996,4.9996,4.9996,4.9996,4.9996,4.9996,4.9996,4.9996,4.9996,4.9996,4.9996,4.9996,4.9996,4.9996,5.0013,5.0186,5.0927,5.1789,5.2358,5.321,5.4038,5.4469,5.4504,5.4704,5.5031,5.4828,5.4728,5.5236,5.5313,5.5284,5.5313,5.5549,5.5716,5.5991,5.6241,5.6469,5.6808,5.7174,5.7223,5.7049,5.6978,5.6888,5.6344,5.5992,5.5833,5.5571,5.5503,5.5574,5.5581,5.5518,5.5518,5.5518,5.5518,5.5518,5.5518,5.5518,5.5518,5.5518,5.5485,5.5478,5.5364,5.5249,5.5212,5.5166,5.5121,5.506,5.4961,5.4909,5.4832,5.4708,5.4678,5.4686,5.4559,5.4504,5.4504,5.4504,5.4504,5.4504,5.4504,5.4504,5.4504,5.4504,5.4504,5.4504,5.4504,5.4504,5.4504,5.4504,5.4504,5.4504,5.4504,5.4504,5.4504,5.4504,5.4504,5.4504,5.4504,5.4504,5.4504,4.9996,4.9996,4.9996,4.9996,4.9996,4.9996,4.9996,4.9996,4.9996,4.9996,4.9996,4.9996,4.9996,4.9996,4.9996,4.9996,4.9996,4.9996,4.9996,4.9996,4.9996,4.9996,4.9996,4.9996,4.9996,4.9996,4.9996,4.9996,4.9996,4.9996,5.0082,5.0324,5.1168,5.2195,5.2651,5.3555,5.4504,5.4504,5.4504,5.4504,5.4527,5.4504,5.4573,5.455,5.4504,5.4504,5.4519,5.4622,5.4865,5.5207,5.5738,5.5936,5.6195,5.6441,5.6459,5.6371,5.6342,5.6176,5.5837,5.5584,5.5487,5.5419,5.5441,5.5458,5.5433,5.5433,5.5433,5.5433,5.5433,5.5488,5.5488,5.5426,5.5426,5.5441,5.5426,5.5379,5.5219,5.5081,5.5045,5.4999,5.4955,5.4909,5.4832,5.478,5.4702,5.4551,5.4504,5.4504,5.4504,5.4504,5.4504,5.4504,5.4504,5.4504,5.4504,5.4504,5.4504,5.4504,5.4504,5.4504,5.4504,5.4504,5.4504,5.4504,5.4504,5.4504,5.4504,5.4504,5.4504,5.4504,5.4504,5.4504,5.4504,5.4504,5.4504,4.9996,4.9996,4.9996,4.9996,4.9996,4.9996,4.9996,4.9996,4.9996,4.9996,4.9996,4.9996,4.9996,4.9996,4.9996,4.9996,4.9996,4.9996,4.9996,4.9996,4.9996,4.9996,4.9996,4.9996,4.9996,4.9996,4.9996,4.9996,4.9996,4.9996,4.9996,5.01,5.1471,5.223,5.2479,5.3504,5.4504,5.4504,5.4504,5.4504,5.4504,5.4504,5.4504,5.4504,5.4504,5.4504,5.4512,5.4512,5.4565,5.4728,5.4972,5.5167,5.5399,5.5691,5.5741,5.5684,5.5676,5.5633,5.5398,5.5254,5.5191,5.5166,5.5184,5.5159,5.5151,5.5144,5.5151,5.5176,5.5214,5.5334,5.5334,5.5181,5.5144,5.5189,5.5197,5.5136,5.5037,5.4976,5.493,5.4879,5.4826,5.4749,5.463,5.4598,5.459,5.4504,5.4504,5.4504,5.4504,5.4504,5.4504,5.4504,5.4504,5.4504,5.4504,5.4504,5.4504,5.4504,5.4504,5.4504,5.4504,5.4504,5.4504,5.4504,5.4504,5.4504,5.4504,5.4504,5.4504,5.4504,5.4504,5.4504,5.4504,5.4504,5.4504]},{"header":{"parameterUnit":"m.s-1","parameterCategory":1,"la1":31.0,"la2":29.5877,"lo1":-88.7671,"lo2":-86.6584,"dy":0.0162,"dx":0.0185,"nx":115,"ny":88,"refTime":"2023-11-13T06:00:00:Z","depth":0,"parameterNumber":3,"parameterNumberName":"V-component_of_WINDS"},"data":[0.0,0.0,0.0,0.0,0.0,0.0,0.0,0.0,0.0,0.0,0.0,0.0,0.0,0.0,0.0,0.0,0.0,0.0,0.0,0.0,0.0,0.0,0.0,0.0,0.0,0.0,0.0,0.0,0.0,0.0,0.0,0.0,0.0,0.0,0.0,0.0,0.0,0.0,0.0,0.0,0.0,0.0,0.0,0.0,0.0,0.0,0.0,0.0,0.0,0.0,0.0,0.0,0.0,0.0,0.0,0.0,0.0,0.0,0.0,0.0,0.0,0.0,0.0,0.0,0.0,0.0,0.0,0.0,0.0,0.0,0.0,0.0,0.0,0.0,0.0,0.0,0.0,0.0,0.0,0.0,0.0,0.0,0.0,0.0,0.0,0.0,0.0,0.0,0.0,0.0,0.0,0.0,0.0,0.0,0.0,0.0,0.0,0.0,0.0,0.0,0.0,0.0,0.0,0.0,0.0,0.0,0.0,0.0,0.0,0.0,0.0,0.0,0.0,0.0,0.0,0.0,0.0,0.0,0.0,0.0,0.0,0.0,0.0,0.0,0.0,0.0,0.0,0.0,0.0,0.0,0.0,0.0,0.0,0.0,0.0,0.0,0.0,0.0,0.0,0.0,0.0,0.0,0.0,0.0,0.0,0.0,0.0,0.0,0.0,0.0,0.0,0.0,0.0,0.0,0.0,0.0,0.0,0.0,0.0,0.0,0.0,0.0,0.0,0.0,0.0,0.0,0.0,0.0,0.0,0.0,0.0,0.0,0.0,0.0,0.0,0.0,0.0,0.0,0.0,0.0,0.0,0.0,0.0,0.0,0.0,0.0,0.0,0.0,0.0,0.0,0.0,0.0,0.0,0.0,0.0,0.0,0.0,0.0,0.0,0.0,0.0,0.0,0.0,0.0,0.0,0.0,0.0,0.0,0.0,0.0,0.0,0.0,0.0,0.0,0.0,0.0,0.0,0.0,0.0,0.0,0.0,0.0,0.0,0.0,0.0,0.0,0.0,0.0,0.0,0.0,0.0,0.0,0.0,0.0,0.0,0.0,0.0,0.0,0.0,0.0,0.0,0.0,0.0,0.0,0.0,0.0,0.0,0.0,0.0,0.0,0.0,0.0,0.0,0.0,0.0,0.0,0.0,0.0,0.0,0.0,0.0,0.0,0.0,0.0,0.0,0.0,0.0,0.0,0.0,0.0,0.0,0.0,0.0,0.0,0.0,0.0,0.0,0.0,0.0,0.0,0.0,0.0,0.0,0.0,0.0,0.0,0.0,0.0,0.0,0.0,0.0,0.0,0.0,0.0,0.0,0.0,0.0,0.0,0.0,0.0,0.0,0.0,0.0,0.0,0.0,0.0,0.0,0.0,0.0,0.0,0.0,0.0,0.0,0.0,0.0,0.0,0.0,0.0,0.0,0.0,0.0,0.0,0.0,0.0,0.0,0.0,0.0,0.0,0.0,0.0,0.0,0.0,0.0,0.0,0.0,0.0,0.0,0.0,0.0,0.0,0.0,0.0,0.0,0.0,0.0,0.0,0.0,0.0,0.0,0.0,0.0,0.0,0.0,0.0,0.0,0.0,0.0,0.0,0.0,0.0,0.0,0.0,0.0,0.0,0.0,0.0,0.0,0.0,0.0,0.0,0.0,0.0,0.0,0.0,0.0,0.0,0.0,0.0,0.0,0.0,0.0,0.0,0.0,0.0,0.0,0.0,0.0,0.0,0.0,0.0,0.0,0.0,0.0,0.0,0.0,0.0,0.0,0.0,0.0,0.0,0.0,0.0,0.0,0.0,0.0,0.0,0.0,0.0,0.0,0.0,0.0,0.0,0.0,0.0,0.0,0.0,0.0,0.0,0.0,0.0,0.0,0.0,0.0,0.0,0.0,0.0,0.0,0.0,0.0,0.0,0.0,0.0,0.0,0.0,0.0,0.0,0.0,0.0,0.0,0.0,0.0,0.0,0.0,0.0,0.0,0.0,0.0,0.0,0.0,0.0,0.0,0.0,0.0,0.0,0.0,0.0,0.0,0.0,0.0,0.0,0.0,0.0,0.0,0.0,0.0,0.0,0.0,0.0,0.0,0.0,0.0,0.0,0.0,0.0,0.0,0.0,0.0,0.0,0.0,0.0,0.0,0.0,0.0,0.0,0.0,0.0,0.0,0.0,0.0,0.0,0.0,0.0,0.0,0.0,0.0,0.0,0.0,0.0,0.0,0.0,0.0,0.0,0.0,0.0,0.0,0.0,0.0,0.0,0.0,0.0,0.0,0.0,0.0,0.0,0.0,0.0,0.0,0.0,0.0,0.0,0.0,0.0,0.0,0.0,0.0,0.0,0.0,0.0,0.0,0.0,0.0,0.0,0.0,0.0,0.0,0.0,0.0,0.0,0.0,0.0,0.0,0.0,0.0,0.0,0.0,0.0,0.0,0.0,0.0,0.0,0.0,0.0,0.0,0.0,0.0,0.0,0.0,0.0,0.0,0.0,0.0,0.0,0.0,0.0,0.0,0.0,0.0,0.0,0.0,0.0,0.0,0.0,0.0,0.0,0.0,0.0,0.0,0.0,0.0,0.0,0.0,0.0,0.0,0.0,0.0,0.0,0.0,0.0,0.0,0.0,0.0,0.0,0.0,0.0,0.0,0.0,0.0,0.0,0.0,0.0,0.0,0.0,0.0,0.0,0.0,0.0,0.0,0.0,0.0,0.0,0.0,0.0,0.0,0.0,0.0,0.0,0.0,0.0,0.0,0.0,0.0,0.0,0.0,0.0,0.0,0.0,0.0,0.0,0.0,0.0,0.0,0.0,0.0,0.0,0.0,0.0,0.0,0.0,0.0,0.0,0.0,0.0,0.0,0.0,0.0,0.0,0.0,0.0,0.0,0.0,0.0,0.0,0.0,0.0,0.0,0.0,0.0,0.0,0.0,0.0,0.0,0.0,0.0,0.0,0.0,0.0,0.0,0.0,0.0,0.0,0.0,0.0,0.0,0.0,0.0,0.0,0.0,0.0,0.0,0.0,0.0,0.0,0.0,0.0,0.0,0.0,0.0,0.0,0.0,0.0,0.0,0.0,0.0,0.0,0.0,0.0,0.0,0.0,0.0,0.0,0.0,0.0,0.0,0.0,0.0,0.0,0.0,0.0,0.0,0.0,0.0,0.0,0.0,0.0,0.0,0.0,0.0,0.0,0.0,0.0,0.0,0.0,0.0,0.0,0.0,0.0,0.0,0.0,0.0,0.0,0.0,0.0,0.0,0.0,0.0,0.0,0.0,0.0,0.0,0.0,0.0,0.0,0.0,0.0,0.0,0.0,0.0,0.0,0.0,0.0,0.0,0.0,0.0,0.0,0.0,0.0,0.0,0.0,0.0,0.0,0.0,0.0,0.0,0.0,0.0,0.0,0.0,0.0,0.0,0.0,0.0,0.0,0.0,0.0,0.0,0.0,0.0,0.0,0.0,0.0,0.0,0.0,0.0,0.0,0.0,0.0,0.0,0.0,0.0,0.0,0.0,0.0,0.0,0.0,0.0,0.0,0.0,0.0,0.0,0.0,0.0,0.0,0.0,0.0,0.0,0.0,0.0,0.0,0.0,0.0,0.0,0.0,0.0,0.0,0.0,0.0,0.0,0.0,0.0,0.0,0.0,0.0,0.0,0.0,0.0,0.0,0.0,0.0,0.0,0.0,0.0,0.0,0.0,0.0,0.0,0.0,0.0,0.0,0.0,0.0,0.0,0.0,0.0,0.0,0.0,0.0,0.0,0.0,0.0,0.0,0.0,0.0,0.0,0.0,0.0,0.0,0.0,0.0,0.0,0.0,0.0,0.0,0.0,0.0,0.0,0.0,0.0,0.0,0.0,0.0,0.0,0.0,0.0,0.0,0.0,0.0,0.0,0.0,0.0,0.0,0.0,0.0,0.0,0.0,0.0,0.0,0.0,0.0,0.0,0.0,0.0,0.0,0.0,0.0,0.0,0.0,0.0,0.0,0.0,0.0,0.0,0.0,0.0,0.0,0.0,0.0,0.0,0.0,0.0,0.0,0.0,0.0,0.0,0.0,0.0,0.0,0.0,0.0,0.0,0.0,0.0,0.0,0.0,0.0,0.0,0.0,0.0,0.0,0.0,0.0,0.0,0.0,0.0,0.0,0.0,0.0,0.0,0.0,0.0,0.0,0.0,0.0,0.0,0.0,0.0,0.0,0.0,0.0,0.0,0.0,0.0,0.0,0.0,0.0,0.0,0.0,0.0,0.0,0.0,0.0,0.0,0.0,0.0,0.0,0.0,0.0,0.4325,0.0,0.0,0.0,0.0,0.0,0.0,0.0,0.0,0.0,0.0,0.0,0.0,0.0,0.0,0.0,0.0,0.0,0.0,0.0,0.0,0.0,0.0,0.0,0.0,0.0,0.0,0.0,0.0,0.0,0.0,0.0,0.0,0.0,0.0,0.0,0.0,0.0,0.0,0.0,0.0,0.0,0.0,0.0,0.0,0.0,0.0,0.0,0.0,0.0,0.0,0.0,0.0,0.0,0.0,0.0,0.0,0.0,0.0,0.0,0.0,0.0,0.0,0.0,0.0,0.0,0.0,0.0,0.0,0.0,0.0,0.0,0.0,0.0,0.0,0.0,0.0,0.0,0.0,0.0,0.0,0.0,0.0,0.0,0.0,0.0,0.0,0.0,0.0,0.0,0.0,0.0,0.0,0.0,0.0,0.0,0.0,0.0,0.0,0.0,0.0,0.0,0.0,0.0,0.0,0.0,0.0,0.0,0.0,0.0,0.0,0.4817,0.4549,0.4392,0.4348,0.4448,0.0,0.0,0.0,0.0,0.0,0.0,0.0,0.0,0.0,0.0,0.0,0.0,0.0,0.0,0.0,0.0,0.0,0.0,0.0,0.0,0.0,0.0,0.0,0.0,0.0,0.0,0.0,0.0,0.0,0.0,0.0,0.0,0.0,0.0,0.0,0.0,0.0,0.0,0.0,0.0,0.0,0.0,0.0,0.0,0.0,0.0,0.0,0.0,0.0,0.0,0.0,0.0,0.0,0.0,0.0,0.0,0.0,0.0,0.0,0.0,0.0,0.0,0.0,0.0,0.0,0.0,0.0,0.0,0.0,0.0,0.0,0.0,0.0,0.0,0.0,0.0,0.0,0.0,0.0,0.0,0.0,0.0,0.0,0.0,0.0,0.0,0.0,0.0,0.0,0.0,0.0,0.0,0.0,0.0,0.0,0.0,0.0,0.0,0.0,0.0,0.0,0.0,0.0,0.0,0.0,0.0,0.0,0.0,0.0,0.0,0.0,0.0,0.4515,0.4555,0.4714,0.0,0.0,0.0,0.0,0.0,0.0,0.0,0.0,0.0,0.0,0.0,0.0,0.0,0.0,0.0,0.0,0.0,0.0,0.0,0.0,0.0,0.0,0.0,0.0,0.0,0.0,0.0,0.0,0.0,0.0,0.0,0.0,0.0,0.0,0.0,0.0,0.0,0.0,0.0,0.0,0.0,0.0,0.0,0.0,0.0,0.0,0.0,0.0,0.0,0.0,0.0,0.0,0.0,0.0,0.0,0.0,0.0,0.0,0.0,0.0,0.0,0.0,0.0,0.0,0.0,0.0,0.0,0.0,0.0,0.0,0.0,0.0,0.0,0.0,0.0,0.0,0.0,0.0,0.0,0.0,0.0,0.0,0.0,0.0,0.0,0.0,0.0,0.0,0.0,0.0,0.0,0.0,0.0,0.0,0.0,0.0,0.0,0.0,0.0,0.0,0.0,0.0,0.0,0.0,0.0,0.0,0.0,0.0,0.0,0.0,0.5102,0.4711,0.4848,0.0,0.5119,0.0,0.0,0.0,0.0,0.0,0.0,0.0,0.0,0.0,0.0,0.0,0.0,0.0,0.0,0.0,0.0,0.0,0.0,0.0,0.0,0.0,0.0,0.0,0.0,0.0,0.0,0.0,0.0,0.0,0.0,0.0,0.0,0.0,0.0,0.0,0.0,0.0,0.0,0.0,0.0,0.0,0.0,0.0,0.0,0.0,0.0,0.0,0.0,0.0,0.0,0.0,0.0,0.0,0.0,0.0,0.0,0.0,0.0,0.0,0.0,0.0,0.0,0.0,0.0,0.0,0.0,0.0,0.0,0.0,0.0,0.0,0.0,0.0,0.0,0.0,0.0,0.0,0.0,0.0,0.0,0.0,0.0,0.0,0.0,0.0,0.0,0.0,0.0,0.0,0.0,0.0,0.0,0.0,0.0,0.0,0.0,0.0,0.0,0.0,0.0,0.0,0.0,0.0,0.0,0.0,0.0,0.0,0.0,0.0,0.0,0.5402,0.484,0.5127,0.5302,0.0,0.0,0.0,0.0,0.0,0.0,0.0,0.0,0.0,0.0,0.0,0.0,0.0,0.0,0.0,0.0,0.0,0.0,0.0,0.0,0.0,0.0,0.0,0.0,0.0,0.0,0.0,0.0,0.0,0.0,0.0,0.0,0.0,0.0,0.0,0.0,0.0,0.0,0.0,0.0,0.0,0.0,0.0,0.0,0.0,0.0,0.0,0.0,0.0,0.0,0.0,0.0,0.0,0.0,0.0,0.0,0.0,0.0,0.0,0.0,0.0,0.0,0.0,0.0,0.0,0.0,0.0,0.0,0.0,0.0,0.0,0.0,0.0,0.0,0.0,0.0,0.0,0.0,0.0,0.0,0.0,0.0,0.0,0.0,0.0,0.0,0.0,0.0,0.0,0.0,0.0,0.0,0.0,0.0,0.0,0.0,0.0,0.0,0.0,0.0,0.0,0.0,0.0,0.0,0.0,0.0,0.0,0.0,0.0,0.0,0.5928,0.557,0.5113,0.5346,0.5515,0.5536,0.0,0.0,0.0,0.0,0.0,0.0,0.0,0.0,0.0,0.0,0.0,0.0,0.0,0.0,0.0,0.0,0.0,0.0,0.0,0.0,0.0,0.0,0.0,0.0,0.0,0.0,0.0,0.0,0.0,0.0,0.0,0.0,0.0,0.0,0.0,0.0,0.0,0.0,0.0,0.0,0.0,0.0,0.0,0.0,0.0,0.0,0.0,0.0,0.0,0.0,0.0,0.0,0.0,0.0,0.0,0.0,0.0,0.0,0.0,0.0,0.0,0.0,0.0,0.0,0.0,0.0,0.0,0.0,0.0,0.0,0.0,0.0,0.0,0.0,0.0,0.0,0.0,0.0,0.0,0.0,0.0,0.0,0.0,0.0,0.0,0.0,0.0,0.0,0.0,0.0,0.0,0.0,0.0,0.0,0.0,0.0,0.0,0.0,0.0,0.0,0.0,0.0,0.0,0.0,0.0,0.0,0.0,0.0,0.6446,0.5899,0.5562,0.5481,0.5493,0.5617,0.0,0.0,0.0,0.0,0.0,0.0,0.0,0.0,0.0,0.0,0.0,0.0,0.0,0.0,0.0,0.0,0.0,0.0,0.0,0.0,0.0,0.0,0.0,0.0,0.0,0.0,0.0,0.0,0.0,0.0,0.0,0.0,0.0,0.0,0.0,0.0,0.0,0.0,0.0,0.0,0.0,0.0,0.0,0.0,0.0,0.0,0.0,0.0,0.0,0.0,0.0,0.0,0.0,0.0,0.0,0.0,0.0,0.0,0.0,0.0,0.0,0.0,0.0,0.0,0.0,0.0,0.0,0.0,0.0,0.0,0.0,0.0,0.0,0.0,0.0,0.0,0.0,0.0,0.0,0.0,0.0,0.0,0.0,0.0,0.0,0.0,0.0,0.0,0.0,0.0,0.0,0.0,0.0,0.0,0.0,0.0,0.0,0.0,0.0,0.0,0.0,0.0,0.0,0.0,0.0,0.0,0.0,0.0,0.0,0.605,0.5661,0.5522,0.5625,0.572,0.5832,0.0,0.0,0.0,0.0,0.0,0.0,0.0,0.0,0.0,0.0,0.0,0.0,0.0,0.0,0.0,0.0,0.0,0.0,0.0,0.0,0.0,0.0,0.0,0.0,0.0,0.0,0.0,0.0,0.0,0.0,0.0,0.0,0.0,0.0,0.0,0.0,0.0,0.0,0.0,0.0,0.0,0.0,0.0,0.0,0.0,0.0,0.0,0.0,0.0,0.0,0.0,0.0,0.0,0.0,0.0,0.0,0.0,0.0,0.0,0.0,0.0,0.0,0.0,0.0,0.0,0.0,0.0,0.0,0.0,0.0,0.0,0.0,0.0,0.0,0.0,0.0,0.0,0.0,0.0,0.0,0.0,0.0,0.0,0.0,0.0,0.0,0.0,0.0,0.0,0.0,0.0,0.0,0.0,0.0,0.0,0.0,0.0,0.0,0.0,0.0,0.0,0.0,0.0,0.0,0.0,0.0,0.0,0.0,0.0,0.59,0.0,0.5724,0.578,0.6256,0.6533,0.0,0.0,0.0,0.0,0.0,0.0,0.0,0.0,0.0,0.0,0.0,0.0,0.0,0.0,0.0,0.0,0.0,0.0,0.0,0.0,0.0,0.0,0.0,0.0,0.0,0.0,0.0,0.0,0.0,0.0,0.0,0.0,0.0,0.0,0.0,0.0,0.0,0.0,0.0,0.0,0.0,0.0,0.0,0.0,0.0,0.0,0.0,0.0,0.0,0.0,0.0,0.0,0.0,0.0,0.0,0.0,0.0,0.0,0.0,0.0,0.0,0.0,0.0,0.0,0.0,0.0,0.0,0.0,0.0,0.0,0.0,0.0,0.0,0.0,0.0,0.0,0.0,0.0,0.0,0.0,0.0,0.0,0.0,0.0,0.0,0.0,0.0,0.0,0.0,0.0,0.0,0.0,0.0,0.0,0.0,0.0,0.0,0.0,0.0,0.0,0.0,0.0,0.0,0.0,0.0,0.0,0.0,0.0,0.6207,0.6113,0.626,0.6202,0.5927,0.7065,0.7636,0.0,0.0,0.0,0.0,0.0,0.0,0.0,0.0,0.0,0.0,0.0,0.0,0.0,0.0,0.0,0.0,0.0,0.0,0.0,0.0,0.0,0.0,0.0,0.0,0.0,0.0,0.0,0.0,0.0,0.0,0.0,0.0,0.0,0.0,0.0,0.0,0.0,0.0,0.0,0.0,0.0,0.0,0.0,0.0,0.0,0.0,0.0,0.0,0.0,0.0,0.0,0.0,0.0,0.0,0.0,0.0,0.0,0.0,0.0,0.0,0.0,0.0,0.0,0.0,0.0,0.0,0.0,0.0,0.0,0.0,0.0,0.0,0.0,0.0,0.0,0.0,0.0,0.0,0.0,0.0,0.0,0.0,0.0,0.0,0.0,0.0,0.0,0.0,0.0,0.0,0.0,0.0,0.0,0.0,0.0,0.0,0.0,0.0,0.0,0.0,0.0,0.0,0.0,0.0,0.0,0.0,0.0,0.0,0.0,0.6361,0.699,0.6904,0.6113,0.655,0.711,0.0,0.0,0.0,0.0,0.0,0.0,0.0,0.0,0.0,0.0,0.0,0.0,0.0,0.0,0.0,0.0,0.0,0.0,0.0,0.0,0.0,0.0,0.0,0.0,0.0,0.0,0.0,0.0,0.0,0.0,0.0,0.0,0.0,0.0,0.0,0.0,0.0,0.0,0.0,0.0,0.0,0.0,0.0,0.0,0.0,0.0,0.0,0.0,0.0,0.0,0.0,0.0,0.0,0.0,0.0,0.0,0.0,0.0,0.0,0.0,0.0,0.0,0.0,0.0,0.0,0.0,0.0,0.0,0.0,0.0,0.0,0.0,0.0,0.0,0.0,0.0,0.0,0.0,0.0,0.0,0.0,0.0,0.0,0.0,0.0,0.0,0.0,0.0,0.0,0.0,0.0,0.0,0.0,0.0,0.0,0.0,0.0,0.0,0.0,0.0,0.0,0.0,0.0,0.0,0.0,0.0,0.0,0.0,0.0,0.6653,0.7202,0.7158,0.6393,0.6896,0.7419,0.7929,0.0,0.0,0.0,0.0,0.0,0.0,0.0,0.0,0.0,0.0,0.0,0.0,0.0,0.0,0.0,0.0,0.0,0.0,0.0,0.0,0.0,0.0,0.0,0.0,0.0,0.0,0.0,0.0,0.0,0.0,0.0,0.0,0.0,0.0,0.0,0.0,0.0,0.0,0.0,0.0,0.0,0.0,0.0,0.0,0.0,0.0,0.0,0.0,0.0,0.0,0.0,0.0,0.0,0.0,0.0,0.0,0.0,0.0,0.0,0.0,0.0,0.0,0.0,0.0,0.0,0.0,0.0,0.0,0.0,0.0,0.0,0.0,0.0,0.0,0.0,0.0,0.0,0.0,0.0,0.0,0.0,0.0,0.0,0.0,0.0,0.0,0.0,0.0,0.0,0.0,0.0,0.0,0.0,0.0,0.0,0.0,0.0,0.0,0.0,0.0,0.0,0.0,0.0,0.0,0.0,0.0,0.0,0.0,0.6925,0.7087,0.7065,0.6803,0.7823,0.836,0.0,0.0,0.0,0.0,0.0,0.0,0.0,0.0,0.0,0.0,0.0,0.0,0.0,0.0,0.0,0.0,0.0,0.0,0.0,0.0,0.0,0.0,0.0,0.0,0.0,0.0,0.0,0.0,0.0,0.0,0.0,0.0,0.0,0.0,0.0,0.0,0.0,0.0,0.0,0.0,0.0,0.0,0.0,0.0,0.0,0.0,0.0,0.0,0.0,0.0,0.0,0.0,0.0,0.0,0.0,0.0,0.0,0.0,0.0,0.0,0.0,0.0,0.0,0.0,0.0,0.0,0.0,0.0,0.0,0.0,0.0,0.0,0.0,0.0,0.0,0.0,0.0,0.0,0.0,0.0,0.0,0.0,0.0,0.0,0.0,0.0,0.0,0.0,0.0,0.0,0.0,0.0,0.0,0.0,0.0,0.0,0.0,0.0,0.0,0.0,0.0,0.0,0.0,0.0,0.0,0.0,0.0,0.0,0.0,0.8127,0.8116,0.7702,0.6847,0.7231,0.7771,0.0,0.0,0.0,0.0,0.0,0.0,0.0,0.0,0.0,0.0,0.0,0.0,0.0,0.0,0.0,0.0,0.0,0.0,0.0,0.0,0.0,0.0,0.0,0.0,0.0,0.0,0.0,0.0,0.0,0.0,0.0,0.0,0.0,0.0,0.0,0.0,0.0,0.0,0.0,0.0,0.0,0.0,0.0,0.0,0.0,0.0,0.0,0.0,0.0,0.0,0.0,0.0,0.0,0.0,0.0,0.0,0.0,0.0,0.0,0.0,0.0,0.0,0.0,0.0,0.0,0.0,0.0,0.0,0.0,0.0,0.0,0.0,0.0,0.0,0.0,0.0,0.0,0.0,0.0,0.0,0.0,0.0,0.0,0.0,0.0,0.0,0.0,0.0,0.0,0.0,0.0,0.0,0.0,0.0,0.0,0.0,0.0,0.0,0.0,0.0,0.0,0.0,0.0,0.0,0.0,0.0,0.0,0.0,0.905,0.8496,0.8116,0.7602,0.6947,0.7043,0.7533,0.0,0.0,0.0,0.0,0.0,0.0,0.0,0.0,0.0,0.0,0.0,0.0,0.0,0.0,0.0,0.0,0.0,0.0,0.0,0.0,0.0,0.0,0.0,0.0,0.0,0.0,0.0,0.0,0.0,0.0,0.0,0.0,0.0,0.0,0.0,0.0,0.0,0.0,0.0,0.0,0.0,0.0,0.0,0.0,0.0,0.0,0.0,0.0,0.0,0.0,0.0,0.0,0.0,0.0,0.0,0.0,0.0,0.0,0.0,0.0,0.0,0.0,0.0,0.0,0.0,0.0,0.0,0.0,0.0,0.0,0.0,0.0,0.0,0.0,0.0,0.0,0.0,0.0,0.0,0.0,0.0,0.0,0.0,0.0,0.0,0.0,0.0,0.0,0.0,0.0,0.0,0.0,0.0,0.0,0.0,0.0,0.0,0.0,0.0,0.0,0.0,0.0,0.0,0.0,0.0,0.0,0.0,0.0,0.8704,0.85,0.7676,0.7194,0.7106,0.7194,0.7643,0.0,0.0,0.0,0.0,0.0,0.0,0.0,0.0,0.0,0.0,0.0,0.0,0.0,0.0,0.0,0.0,0.0,0.0,0.0,0.0,0.0,0.0,0.0,0.0,0.0,0.0,0.0,0.0,0.0,0.0,0.0,0.0,0.0,0.0,0.0,0.0,0.0,0.0,0.0,0.0,0.0,0.0,0.0,0.0,0.0,0.0,0.0,0.0,0.0,0.0,0.0,0.0,0.0,0.0,0.0,0.0,0.0,0.0,0.0,0.0,0.0,0.0,0.0,0.0,0.0,0.0,0.0,0.0,0.0,0.0,0.0,0.0,0.0,0.0,0.0,0.0,0.0,0.0,0.0,0.0,0.0,0.0,0.0,0.0,0.0,0.0,0.0,0.0,0.0,0.0,0.0,0.0,0.0,0.0,0.0,0.0,0.0,0.0,0.0,0.0,0.0,0.0,0.0,0.0,0.0,0.0,0.0,0.0,0.9975,0.8529,0.8303,0.7856,0.7128,0.7812,0.8292,0.0,0.0,0.0,0.0,0.0,0.0,0.0,0.0,0.0,0.0,0.0,0.0,0.0,0.0,0.0,0.0,0.0,0.0,0.0,0.0,0.0,0.0,0.0,0.0,0.0,0.0,0.0,0.0,0.0,0.0,0.0,0.0,0.0,0.0,0.0,0.0,0.0,0.0,0.0,0.0,0.0,0.0,0.0,0.0,0.0,0.0,0.0,0.0,0.571,0.0,0.0,0.0,0.0,0.0,0.0,0.0,0.0,0.0,0.0,0.0,0.0,0.0,0.0,0.0,0.0,0.0,0.0,0.0,0.0,0.0,0.0,0.0,0.0,0.0,0.0,0.0,0.0,0.0,0.0,0.0,0.0,0.0,0.0,0.0,0.0,0.0,0.0,0.0,0.0,0.0,0.0,0.0,0.0,0.0,0.0,0.0,0.0,0.0,0.0,0.0,0.0,0.0,0.0,0.0,0.0,0.0,0.0,0.0,1.0388,0.8584,0.8522,0.805,0.7205,0.8437,0.8945,0.0,0.0,0.0,0.0,0.0,0.0,0.0,0.0,0.0,0.0,0.0,0.0,0.0,0.0,0.0,0.0,0.0,0.0,0.0,0.0,0.0,0.0,0.0,0.0,0.0,0.0,0.0,0.0,0.0,0.0,0.0,0.0,0.0,0.0,0.0,0.0,0.0,0.0,0.0,0.0,0.0,0.0,0.0,0.0,0.0,0.0,0.0,0.0,0.0,0.0,0.0,0.0,0.0,0.0,0.0,0.0,0.0,0.0,0.0,0.0,0.0,0.0,0.0,0.0,0.0,0.0,0.0,0.0,0.0,0.0,0.0,0.0,0.0,0.0,0.0,0.0,0.0,0.0,0.0,0.0,0.0,0.0,0.0,0.0,0.0,0.0,0.0,0.0,0.0,0.0,0.0,0.0,0.0,0.0,0.0,0.0,0.0,0.0,0.0,0.0,0.0,0.0,0.0,0.0,0.0,0.0,0.0,1.1289,1.0463,0.8803,0.8715,0.8321,0.7573,0.9074,0.9525,0.877,0.0,0.0,0.0,0.0,0.0,0.0,0.0,0.0,0.0,0.0,0.0,0.0,0.0,0.0,0.0,0.0,0.0,0.0,0.0,0.0,0.0,0.0,0.0,0.0,0.0,0.0,0.0,0.0,0.0,0.0,0.0,0.0,0.0,0.0,0.0,0.0,0.0,0.0,0.571,0.571,0.0,0.0,0.0,0.0,0.0,0.0,0.0,0.0,0.571,0.0,0.0,0.0,0.0,0.0,0.0,0.0,0.0,0.0,0.0,0.0,0.0,0.0,0.0,0.0,0.0,0.0,0.0,0.0,0.0,0.0,0.0,0.0,0.0,0.0,0.0,0.0,0.0,0.0,0.0,0.0,0.0,0.0,0.0,0.0,0.0,0.0,0.0,0.0,0.0,0.0,0.0,0.0,0.0,0.0,0.0,0.0,0.0,0.0,0.0,0.0,0.0,0.0,0.0,0.0,0.0,1.1305,1.1289,1.0755,0.9716,0.9673,0.9597,0.9455,0.9738,0.9836,0.976,0.0,0.0,0.0,0.0,0.0,0.0,0.0,0.0,0.0,0.0,0.0,0.0,0.0,0.0,0.0,0.0,0.0,0.0,0.0,0.0,0.0,0.0,0.0,0.0,0.0,0.0,0.0,0.0,0.0,0.0,0.0,0.0,0.0,0.0,0.0,0.0,0.0,0.0,0.0,0.571,0.571,0.0,0.0,0.0,0.0,0.0,0.0,0.0,0.0,0.571,0.0,0.0,0.0,0.0,0.0,0.0,0.0,0.0,0.0,0.0,0.0,0.0,0.0,0.0,0.0,0.0,0.0,0.0,0.0,0.0,0.0,0.0,0.0,0.0,0.0,0.0,0.0,0.0,0.0,0.0,0.0,0.0,0.0,0.0,0.0,0.0,0.0,0.0,0.0,0.0,0.0,0.0,0.0,0.0,0.0,0.0,0.0,0.0,0.0,0.0,0.0,0.0,0.0,0.0,0.0,1.137,1.1768,1.1338,0.9977,1.0383,1.0404,0.9933,1.0361,1.0637,0.0,0.0,0.0,0.0,0.0,0.0,0.0,0.0,0.0,0.0,0.0,0.0,0.0,0.0,0.0,0.0,0.0,0.0,0.0,0.0,0.0,0.0,0.0,0.0,0.0,0.0,0.0,0.0,0.0,0.0,0.0,0.0,0.0,0.0,0.0,0.0,0.0,0.0,0.0,0.0,0.571,0.571,0.571,0.0,0.0,0.0,0.0,0.0,0.0,0.571,0.571,0.0,0.0,0.0,0.0,0.0,0.0,0.0,0.0,0.0,0.0,0.0,0.0,0.0,0.0,0.0,0.0,0.0,0.0,0.0,0.0,0.0,0.0,0.0,0.0,0.0,0.0,0.0,0.0,0.0,0.0,0.0,0.0,0.0,0.0,0.0,0.0,0.0,0.0,0.0,0.0,0.0,0.0,0.0,0.0,0.0,0.0,0.0,0.0,0.0,0.0,0.0,0.0,0.0,0.0,0.0,1.1628,1.2331,1.1971,1.0562,1.1187,1.123,1.0497,1.1198,1.1585,0.0,0.0,0.0,0.0,0.0,0.0,0.0,0.0,0.0,0.0,0.0,0.0,0.0,0.0,0.0,0.0,0.0,0.0,0.0,0.0,0.0,0.0,0.0,0.0,0.0,0.0,0.0,0.0,0.0,0.0,0.0,0.0,0.0,0.0,0.0,0.0,0.0,0.0,0.0,0.0,0.0,0.571,0.571,0.571,0.0,0.0,0.0,0.0,0.571,0.571,0.0,0.0,0.0,0.0,0.0,0.0,0.0,0.0,0.0,0.0,0.0,0.0,0.0,0.0,0.0,0.0,0.0,0.0,0.0,0.0,0.0,0.0,0.0,0.0,0.0,0.0,0.0,0.0,0.0,0.0,0.0,0.0,0.0,0.0,0.0,0.0,0.0,0.0,0.0,0.0,0.0,0.0,0.0,0.0,0.0,0.0,0.0,0.0,0.0,0.0,0.0,0.0,0.0,0.0,0.0,0.0,1.2549,1.2651,1.2581,1.2378,1.2496,1.2491,1.2378,1.2475,1.2545,0.0,0.0,0.0,0.0,0.0,0.0,0.0,0.0,0.0,0.0,0.0,0.0,0.0,0.0,0.0,0.0,0.0,0.0,0.0,0.0,0.0,0.0,0.0,0.0,0.0,0.0,0.0,0.0,0.0,0.0,0.0,0.0,0.0,0.0,0.0,0.0,0.0,0.0,0.0,0.0,0.0,0.571,0.571,0.571,0.571,0.0,0.0,0.571,0.571,0.571,0.0,0.0,0.0,0.0,0.0,0.0,0.0,0.0,0.0,0.0,0.0,0.0,0.0,0.0,0.0,0.0,0.0,0.0,0.0,0.0,0.0,0.0,0.0,0.0,0.0,0.0,0.0,0.0,0.0,0.0,0.0,0.0,0.0,0.0,0.0,0.0,0.0,0.0,0.0,0.0,0.0,0.0,0.0,0.0,0.0,0.0,0.0,0.0,0.0,0.0,0.0,0.0,0.0,0.0,0.0,1.2694,1.2694,1.2694,1.2694,1.2694,1.2694,1.2694,1.2694,1.2694,1.2694,0.0,0.0,0.0,0.0,0.0,0.0,0.0,0.0,0.0,0.0,0.0,0.0,0.0,0.0,0.0,0.0,0.0,0.0,0.0,0.0,0.0,0.0,0.0,0.0,0.0,0.0,0.0,0.0,0.0,0.0,0.0,0.0,0.0,0.0,0.0,0.0,0.0,0.0,0.0,0.0,0.0,0.0,0.571,0.571,0.0,0.0,0.0,0.571,0.571,0.0,0.0,0.0,0.0,0.0,0.0,0.0,0.0,0.0,0.0,0.0,0.0,0.0,0.0,0.0,0.0,0.0,0.0,0.0,0.0,0.0,0.0,0.0,0.0,0.0,0.0,0.0,0.0,0.0,0.0,0.0,0.0,0.0,0.0,0.0,0.0,0.0,0.0,0.0,0.0,0.0,0.0,0.0,0.0,0.0,0.0,0.0,0.0,0.0,0.0,0.0,0.0,0.0,0.0,0.0,0.0,0.0,1.2694,1.2694,1.2694,1.2694,1.2694,1.2694,1.2694,1.2694,0.0,0.0,0.0,0.0,0.0,0.0,0.0,0.0,0.0,0.0,0.0,0.0,0.0,0.0,0.0,0.0,0.0,0.0,0.0,0.0,0.0,0.0,0.0,0.0,0.0,0.0,0.0,0.571,0.0,0.0,0.0,0.0,0.0,0.0,0.0,0.0,0.0,0.0,0.0,0.0,0.0,0.0,0.571,0.571,0.571,0.571,0.0,0.0,0.571,0.571,0.571,0.571,0.0,0.0,0.0,0.0,0.0,0.0,0.0,0.0,0.0,0.0,0.0,0.0,0.0,0.0,0.0,0.0,0.0,0.0,0.0,0.0,0.0,0.0,0.0,0.0,0.0,0.0,0.0,0.0,0.0,0.0,0.0,0.0,0.0,0.0,0.0,0.0,0.0,0.0,0.0,0.0,0.0,0.0,0.0,0.0,0.0,0.0,0.0,0.0,0.0,0.0,0.0,0.0,0.0,0.0,1.2694,1.2694,1.2694,1.2694,1.2694,1.2694,1.2694,1.2694,1.2694,1.2694,0.0,0.0,0.0,0.0,0.0,0.0,0.0,0.0,0.0,0.0,0.0,0.0,0.0,0.0,0.0,0.0,0.0,0.0,0.0,0.0,0.0,0.0,0.0,0.0,0.0,0.0,0.0,0.0,0.0,0.0,0.0,0.0,0.0,0.0,0.0,0.0,0.0,0.0,0.0,0.0,0.0,0.571,0.571,0.571,0.571,0.0,0.571,0.571,0.571,0.5702,0.571,0.5702,0.0,0.0,0.0,0.0,0.0,0.0,0.0,0.0,0.0,0.0,0.0,0.0,0.0,0.0,0.0,0.0,0.0,0.0,0.0,0.0,0.0,0.0,0.0,0.0,0.0,0.0,0.0,0.0,0.0,0.0,0.0,0.0,0.0,0.0,0.0,0.0,0.0,0.0,0.0,0.0,0.0,0.0,0.0,0.0,0.0,0.0,0.0,0.0,0.0,0.0,0.0,0.0,0.0,1.2694,1.2694,1.2694,1.2694,1.2694,1.2694,1.2694,1.2694,1.2694,1.2694,0.0,0.0,0.0,0.0,0.0,0.0,0.0,0.0,0.0,0.0,0.0,0.0,0.0,0.0,0.0,0.0,0.0,0.0,0.0,0.0,0.0,0.0,0.0,0.0,0.0,0.0,0.0,0.0,0.571,0.571,0.571,0.0,0.0,0.0,0.0,0.0,0.0,0.0,0.0,0.0,0.0,0.571,0.571,0.571,0.0,0.0,0.577,0.5813,0.5816,0.5901,0.5953,0.595,0.5916,0.0,0.0,0.0,0.0,0.0,0.0,0.0,0.0,0.0,0.0,0.0,0.0,0.0,0.0,0.0,0.0,0.0,0.0,0.0,0.0,0.0,0.0,0.0,0.0,0.0,0.0,0.0,0.0,0.0,0.0,0.0,0.0,0.0,0.0,0.0,0.0,0.0,0.0,0.0,0.0,0.0,0.0,0.0,0.0,0.0,0.0,0.0,0.0,0.0,0.0,0.0,0.0,1.2694,1.2694,1.2694,1.2694,1.2694,1.2694,1.2694,1.2694,1.2694,1.2694,0.0,0.0,0.0,0.0,0.0,0.0,0.0,0.0,0.0,0.0,0.0,0.0,0.0,0.0,0.0,0.0,0.0,0.0,0.0,0.0,0.0,0.0,0.0,0.0,0.0,0.0,0.0,0.0,0.571,0.571,0.571,0.0,0.0,0.0,0.0,0.0,0.0,0.0,0.0,0.0,0.0,0.571,0.571,0.574,0.5765,0.5762,0.5871,0.5947,0.5958,0.6041,0.6098,0.6098,0.0,0.0,0.0,0.0,0.0,0.0,0.0,0.0,0.0,0.0,0.0,0.0,0.0,0.0,0.0,0.0,0.0,0.0,0.0,0.0,0.0,0.0,0.0,0.0,0.0,0.0,0.0,0.9338,0.0,0.0,1.0292,0.0,0.0,0.0,0.0,0.0,0.0,0.0,0.0,0.0,0.0,0.0,0.0,0.0,0.0,0.0,0.0,0.0,0.0,0.0,0.0,0.0,0.0,1.2694,1.2694,1.2694,1.2694,1.2694,1.2694,1.2694,1.2694,1.2694,1.2694,1.2694,0.0,0.0,0.0,0.0,0.0,0.0,0.0,0.0,0.0,0.0,0.0,0.0,0.0,0.0,0.0,0.0,0.0,0.0,0.0,0.0,0.0,0.0,0.0,0.0,0.0,0.0,0.571,0.571,0.571,0.0,0.0,0.0,0.0,0.0,0.0,0.0,0.0,0.0,0.5733,0.5713,0.5724,0.5738,0.5817,0.5924,0.5944,0.6048,0.6131,0.6187,0.6157,0.6098,0.0,0.0,0.0,0.0,0.0,0.0,0.0,0.0,0.0,0.0,0.0,0.0,0.0,0.0,0.0,0.0,0.0,0.0,0.0,0.0,0.0,0.0,0.0,0.0,0.0,0.0,0.0,0.9968,0.9988,0.0,0.0,0.0,0.0,0.0,0.0,0.0,0.0,0.0,0.0,0.0,1.2171,1.234,0.0,0.0,0.0,0.0,0.0,0.0,0.0,0.0,0.0,0.0,0.0,0.0,1.2694,1.2694,1.2694,1.2694,1.2694,1.2694,1.2694,1.2694,1.2694,1.2694,1.2694,0.0,0.0,0.0,0.0,0.0,0.0,0.0,0.0,0.0,0.0,0.0,0.0,0.0,0.0,0.0,0.0,0.0,0.0,0.0,0.0,0.0,0.0,0.0,0.0,0.0,0.571,0.0,0.0,0.0,0.0,0.0,0.0,0.0,0.0,0.0,0.0,0.0,0.6623,0.6634,0.671,0.6826,0.701,0.6613,0.6598,0.0,0.0,0.0,0.0,0.0,0.0,0.0,0.0,0.0,0.0,0.0,0.0,0.0,0.0,0.8152,0.7314,0.7164,0.6972,0.6345,0.0,0.0,0.0,0.0,0.0,0.0,0.0,0.0,0.0,0.0,0.0,0.0,0.0,0.0,1.0855,1.0855,1.0845,0.0,0.0,0.0,0.0,0.0,0.0,0.0,0.0,1.2356,1.243,1.2457,1.2616,1.2694,1.2694,1.2694,1.262,0.0,0.0,0.0,0.0,0.0,0.0,0.0,0.0,1.2694,1.2694,1.2694,1.2742,1.2833,1.285,1.2898,1.2971,1.2977,1.2961,1.2971,1.2988,1.2929,0.0,0.0,0.0,0.0,0.0,0.0,0.0,0.0,0.0,0.0,0.0,0.0,0.0,0.0,0.0,0.0,0.0,0.0,0.0,0.0,0.0,0.0,0.0,0.6545,0.0,0.0,0.0,0.0,0.0,0.0,0.0,0.0,0.0,0.6333,0.6753,0.7303,0.7671,0.7631,0.7772,0.828,0.0,0.0,0.0,0.0,0.0,0.0,0.0,0.9378,1.0259,0.8953,0.8674,1.1311,1.1174,1.0734,1.0863,0.0,0.0,0.8697,0.8063,0.7614,0.7015,0.6888,0.6834,0.6593,0.6797,0.6907,0.0,0.0,0.0,0.0,0.9993,0.0,0.0,0.0,1.1754,1.187,0.0,1.1864,0.0,0.0,0.0,0.0,1.2298,1.2324,0.0,0.0,1.2693,1.2688,1.2688,1.2694,1.2694,1.2694,1.2694,1.2694,1.2688,1.2699,0.0,0.0,0.0,0.0,0.0,0.0,1.27,1.2723,1.2712,1.2856,1.3099,1.3117,1.3232,1.3467,1.3479,1.3479,1.3485,1.3479,1.337,1.3118,1.3117,0.0,0.0,0.0,0.0,0.0,0.0,0.0,0.0,0.0,0.0,0.0,0.0,0.0,0.0,0.0,0.0,0.0,0.0,0.0,0.0,0.779,0.0,0.0,0.0,0.0,0.0,0.0,0.0,0.0,0.0,0.0,0.7502,0.741,0.7788,0.8789,0.0,0.0,0.0,0.0,1.0221,1.0293,1.0413,1.0513,1.0599,1.0538,1.0518,1.0587,0.0,0.0,1.3867,1.3069,1.1932,1.1417,1.2502,1.2727,1.024,0.8992,0.8193,0.8014,0.8184,0.8012,0.7169,0.7559,0.7858,1.0982,0.0,0.0,0.0,0.0,1.1409,1.1577,1.1808,1.1864,1.1906,1.1906,1.1906,0.0,0.0,0.0,0.0,0.0,0.0,1.2632,1.2694,1.2694,1.2694,1.2694,1.2694,1.2694,1.2694,1.2694,1.2694,1.2694,1.2694,1.2694,1.2694,0.0,0.0,0.0,0.0,1.279,1.2967,1.2996,1.3122,1.3388,1.3394,1.3412,1.3491,1.3491,1.3491,1.3491,1.3491,1.3455,1.3382,1.3382,0.0,0.0,0.0,0.0,0.0,0.0,0.0,0.0,0.0,0.0,0.0,0.0,0.0,0.0,0.0,0.0,0.0,0.0,0.0,0.739,0.7603,0.7812,0.0,0.0,0.0,0.0,0.0,0.0,0.0,0.0,0.0,1.0217,1.0202,1.0005,0.0,0.0,1.0426,0.9958,1.0469,1.1236,1.2136,1.2454,0.0,1.3646,1.295,1.265,1.3608,1.3746,1.3988,1.4617,1.4275,1.382,1.3459,1.3752,1.3783,1.3101,1.1815,1.0395,0.8999,0.8703,0.8484,0.7591,0.7651,0.7649,1.2533,1.2507,1.2075,1.1714,1.1475,1.1867,1.2057,1.2083,1.2171,1.2224,1.2213,1.2213,1.2318,1.2459,1.2448,0.0,0.0,0.0,1.2694,1.2694,1.2694,1.2694,1.2694,1.2694,1.2748,1.2846,1.2857,1.2911,1.3009,1.3025,1.3025,1.3019,0.0,1.2748,1.2846,1.2863,1.2985,1.3255,1.3256,1.3382,1.3664,1.3773,1.381,1.3816,1.3827,1.3827,1.3827,1.3816,1.3767,1.3665,1.3659,1.3605,0.0,0.0,0.0,0.0,0.0,0.0,0.0,0.0,0.0,0.0,0.0,1.1171,1.1558,0.0,0.0,0.0,1.0323,0.984,0.9362,0.9242,0.0,0.0,0.0,0.0,0.0,0.0,0.0,1.0493,1.1524,1.2299,1.2386,1.2574,1.2276,1.112,1.1599,1.1957,1.1749,0.0,1.3026,1.3785,1.4034,1.4345,1.498,1.4429,1.4207,1.5081,1.5157,1.5182,1.5277,1.5061,1.484,1.4751,1.4669,1.4618,1.4631,1.3844,1.2653,1.0803,1.0509,1.0293,0.9336,0.9148,0.8792,1.3491,1.34,1.2442,1.16,1.0994,1.1927,1.2332,1.2361,1.2585,1.2694,1.2694,1.2694,1.27,1.2741,1.2741,0.0,1.2771,1.2771,1.2777,1.276,1.2765,1.2765,1.276,1.276,1.2893,1.3118,1.3135,1.3267,1.3479,1.3485,1.3491,1.3479,1.3008,1.2887,1.3123,1.3146,1.3262,1.3515,1.3538,1.3676,1.3936,1.4171,1.431,1.431,1.431,1.4298,1.431,1.4298,1.4195,1.3954,1.3942,1.3827,1.3587,0.0,0.0,0.0,0.0,0.0,0.0,0.0,0.0,0.0,0.0,0.0,0.0,0.0,0.0,0.0,1.0922,0.0,1.2523,1.1845,0.0,0.0,0.0,1.1442,1.1543,1.2346,1.2631,1.2036,0.0,0.0,1.3949,1.4413,1.4392,1.3477,1.3084,1.3214,1.4088,1.4635,1.5124,1.5067,1.5136,1.5148,1.5209,1.5152,1.5164,1.5393,1.53,1.5356,1.5731,1.5496,1.5281,1.5375,1.5281,1.516,1.5166,1.5096,1.4728,1.3276,1.3026,1.2774,1.173,1.1379,1.0732,1.3491,1.3484,1.3231,1.2887,1.2545,1.2579,1.2598,1.2604,1.2674,1.2694,1.2694,1.2694,1.2815,1.3014,1.3003,1.3122,1.3309,1.3309,1.3315,1.3309,1.3309,1.3315,1.3304,1.3309,1.3357,1.3406,1.34,1.3442,1.3491,1.3491,1.3491,1.3485,1.3358,1.3345,1.3394,1.34,1.3538,1.3809,1.3815,1.393,1.4189,1.4268,1.431,1.431,1.431,1.431,1.431,1.431,1.4268,1.4208,1.4219,1.4159,1.4117,1.3924,0.0,0.0,0.0,0.0,0.0,0.0,0.0,0.0,0.0,1.252,1.2073,0.0,1.251,0.0,1.2415,1.2408,1.1782,1.1691,0.0,0.0,1.165,1.182,1.2871,1.3245,1.3409,1.3409,1.4022,1.446,1.4503,1.4799,1.493,1.4673,1.4563,1.426,1.359,1.4563,1.5409,1.5434,1.5565,1.5717,1.5686,1.5704,1.5705,1.5757,1.5738,1.5763,1.5881,1.5809,1.5724,1.5776,1.5744,1.5717,1.5699,1.5704,1.56,1.5179,1.4359,1.3323,1.2288,1.2135,1.1518,1.4027,1.4003,1.3768,1.3593,1.3436,1.3159,1.305,1.3067,1.305,1.3061,1.3056,1.305,1.3129,1.3274,1.328,1.3352,1.3491,1.3491,1.3491,1.3491,1.3491,1.3491,1.3491,1.3491,1.3562,1.3665,1.3677,1.3737,1.3846,1.3852,1.3852,1.3858,1.3967,1.4039,1.4015,1.3798,1.381,1.4075,1.4093,1.4165,1.4304,1.431,1.431,1.431,1.431,1.431,1.431,1.431,1.431,1.431,1.431,1.431,1.431,1.4159,1.4063,0.0,0.0,0.0,0.0,0.0,0.0,0.0,0.0,0.0,0.0,0.0,1.3161,1.3067,1.3195,1.3025,1.2387,1.2466,1.2603,1.2726,1.2605,1.2858,1.377,1.3998,1.4136,1.425,1.463,1.4883,1.4883,1.5119,1.5288,1.5282,1.5372,1.5144,1.4437,1.5057,1.5674,1.5693,1.5814,1.5899,1.5899,1.5899,1.5899,1.5899,1.5899,1.5899,1.5899,1.5899,1.5899,1.5899,1.5899,1.5899,1.5899,1.5899,1.5899,1.5801,1.5301,1.4567,1.3962,1.3494,1.2805,1.4738,1.4696,1.4244,1.4063,1.4045,1.3804,1.3629,1.3491,1.3491,1.3491,1.3491,1.3491,1.352,1.3568,1.3539,1.3574,1.3593,1.3635,1.3659,1.3659,1.3678,1.3707,1.3707,1.3713,1.3828,1.4045,1.4057,1.4189,1.4383,1.4389,1.4401,1.4413,1.463,1.475,1.472,1.4298,1.4171,1.4407,1.4401,1.4401,1.4401,1.4401,1.4389,1.4352,1.4352,1.4328,1.431,1.431,1.431,1.431,1.431,1.431,1.431,1.431,1.431,0.0,1.4069,0.0,0.0,0.0,0.0,0.0,0.0,0.0,0.0,1.3656,1.3703,1.3562,1.355,1.3557,1.3587,1.3593,1.3725,1.3966,1.3997,1.4099,1.4383,1.4606,1.475,1.4744,1.4973,1.5142,1.5167,1.5384,1.5547,1.5559,1.573,1.5732,1.5574,1.5695,1.5881,1.5899,1.5899,1.5899,1.5899,1.5899,1.5899,1.5899,1.5899,1.5899,1.5899,1.5899,1.5899,1.5899,1.5899,1.5899,1.5899,1.5899,1.5899,1.5899,1.5833,1.5768,1.5661,1.5026,1.4789,1.5022,1.501,1.4926,1.4871,1.4877,1.4811,1.4298,1.3491,1.3491,1.3491,1.3491,1.3491,1.3611,1.3816,1.3822,1.3948,1.4147,1.4389,1.4467,1.4473,1.4696,1.4793,1.4799,1.4793,1.4829,1.4865,1.4883,1.4895,1.4956,1.4956,1.4943,1.4956,1.4992,1.5034,1.5016,0.0,0.0,0.0,1.4943,1.4956,1.4956,1.495,1.4835,1.4624,1.4611,0.0,1.4328,1.431,1.431,1.431,1.431,0.0,0.0,0.0,0.0,0.0,0.0,0.0,0.0,0.0,0.0,0.0,1.4112,1.3931,1.3533,1.3531,1.3627,1.3809,1.381,1.3918,1.4123,1.4147,1.4244,1.4515,1.4551,1.4654,1.492,1.5004,1.5022,1.5028,1.5251,1.5427,1.5445,1.5656,1.582,1.5801,1.5855,1.5881,1.5832,1.5849,1.5899,1.5899,1.5899,1.5899,1.5899,1.5899,1.5899,1.5899,1.5899,1.5899,1.5899,1.5899,1.5899,1.5899,1.5899,1.5899,1.5899,1.5899,1.5899,1.5899,1.5899,1.5899,1.5899,1.5731,1.5638,1.53,1.5294,1.5161,1.5113,0.0,1.5113,1.4793,1.4286,1.4286,1.4298,1.4286,1.4292,1.4364,1.4497,1.4485,1.4557,1.4702,1.4835,1.4901,1.492,1.5028,1.5113,1.5113,1.5113,1.5113,1.5113,1.5113,1.5113,1.5113,1.5113,1.5113,1.5113,1.5234,1.53,1.5306,1.5433,1.5366,1.5113,1.5113,1.5113,1.5113,1.5113,1.5046,1.4901,1.4895,0.0,0.0,0.0,0.0,0.0,0.0,0.0,0.0,1.431,0.0,1.431,1.431,1.431,1.431,1.431,1.431,1.4316,1.4437,1.4334,1.3918,1.3888,1.3942,1.4087,1.422,1.4352,1.4479,1.4618,1.4751,1.489,1.4895,1.4955,1.5082,1.5209,1.5287,1.5324,1.5529,1.5692,1.5692,1.5808,1.5899,1.5899,1.5899,1.5899,1.5899,1.5899,1.5899,1.5899,1.5899,1.5899,1.5899,1.5899,1.5905,1.5899,1.5899,1.5899,1.5899,1.5899,1.5899,1.5899,1.5899,1.5899,1.5899,1.5899,1.5899,1.5899,1.5899,1.5899,1.5899,1.5899,1.5899,1.5579,1.5547,1.5317,1.5246,1.5246,1.5246,1.5246,1.5227,1.5143,0.0,0.0,1.5113,1.5113,1.5113,1.5113,1.5113,1.5113,1.5142,1.5179,1.5179,1.5228,1.5233,1.5233,1.5233,1.5246,1.5233,1.5233,1.5258,1.5246,1.5246,1.5246,1.5257,1.5463,1.5565,1.5584,1.5783,1.568,1.527,1.5233,1.5252,1.5233,1.5246,1.5221,1.5166,1.5154,1.5142,1.5113,1.5113,1.4992,1.4787,1.4787,1.4654,1.4455,1.4443,1.4449,1.4443,1.4437,1.4437,1.4425,1.4449,1.4443,1.4443,1.4654,1.4654,1.4389,1.4413,1.4449,1.4455,1.4636,1.4756,1.4775,1.4961,1.5112,1.516,1.5166,1.5179,1.5252,1.5433,1.5565,1.559,1.5753,1.5899,1.5887,1.5893,1.5899,1.5899,1.5899,1.5899,1.5899,1.5899,1.5899,1.5899,1.5899,1.5899,1.5905,1.5965,1.5958,1.5995,1.6018,1.603,1.6036,1.6036,1.603,1.6092,1.603,1.6054,1.6056,1.6086,1.6036,1.6057,1.605,1.6036,1.603,1.6036,1.6032,1.585,1.5844,1.5808,1.5796,1.579,1.579,1.579,1.5741,1.5306,1.5113,1.5113,1.5113,1.5113,1.5113,1.5113,1.5113,1.5125,1.5355,1.5445,1.5457,1.5674,1.5777,1.579,1.5796,1.579,1.5777,1.579,1.5783,1.5796,1.5777,1.5796,1.579,1.5832,1.5831,1.5837,1.5887,1.5849,1.5796,1.579,1.5777,1.5796,1.5777,1.5681,1.5457,1.5445,1.5323,1.5106,1.5119,1.5082,1.5046,1.5052,1.5022,1.4986,1.4967,1.4986,1.4992,1.4998,1.498,1.4986,1.498,1.4998,1.4998,1.5022,1.4931,1.469,1.4853,1.4998,1.498,1.5004,1.504,1.504,1.5082,1.5228,1.5409,1.5458,1.5529,1.5736,1.5802,1.5826,1.5832,1.5875,1.5899,1.5899,1.5899,1.5899,1.5899,1.5929,1.5917,1.5923,1.5899,1.5899,1.5899,1.5899,1.5899,1.5977,1.6118,1.6232,1.6257,1.641,1.6519,1.6519,1.6519,1.6519,1.6561,1.6531,1.6543,1.6555,1.6605,1.6557,1.6519,1.6533,1.6531,1.6525,1.6531,1.6423,1.6025,1.5912,1.5899,1.5899,1.5899,1.5899,1.5899,1.5887,1.5657,1.5542,1.5529,1.5529,1.5535,1.5529,1.5529,1.5522,1.5548,1.5656,1.571,1.5722,1.5844,1.5899,1.5899,1.5899,1.5899,1.5899,1.5899,1.5899,1.5899,1.5899,1.5899,1.5899,1.5899,1.5899,1.5899,1.5899,1.5899,1.5899,1.5899,1.5899,1.5899,1.5899,1.5837,1.5724,1.571,1.5669,1.5541,1.5535,1.5469,1.5311,1.5331,1.5258,1.5119,1.5113,1.5113,1.5113,1.5113,1.5113,1.5113,1.5113,1.5113,1.5113,1.524,1.5276,1.513,1.5106,1.5113,1.5106,1.5228,1.5331,1.5324,1.5451,1.5578,1.5698,1.571,1.5759,1.5875,1.5899,1.5899,1.5899,1.5899,1.5899,1.5899,1.5899,1.5899,1.5897,1.6007,1.6124,1.6116,1.6249,1.6272,1.6164,1.6257,1.6326,1.6326,1.643,1.6515,1.6521,1.6616,1.6694,1.67,1.6706,1.6706,1.67,1.67,1.67,1.6706,1.67,1.67,1.67,1.67,1.67,1.67,1.67,1.6604,1.6177,1.5998,1.5931,1.5899,1.5899,1.5899,1.5899,1.5899,1.5899,1.5899,1.5899,1.5899,1.5899,1.5899,1.5899,1.5899,1.5899,1.5899,1.5899,1.5899,1.5899,1.5899,1.5899,1.5899,1.5899,1.5899,1.5899,1.5899,1.5899,1.5899,1.5899,1.5899,1.5899,1.5899,1.5899,1.5899,1.5899,1.5899,1.5899,1.5899,1.5899,1.5899,1.5899,1.5899,1.5899,1.5899,1.5899,1.5899,1.5795,1.5615,1.5584,1.5493,1.5293,1.5282,1.5282,1.5282,1.5269,1.5288,1.5282,1.5288,1.5269,1.5288,1.5475,1.5584,1.5572,1.5403,1.5269,1.5306,1.5475,1.5603,1.5621,1.5753,1.5899,1.5899,1.5899,1.5893,1.5899,1.5899,1.5899,1.5899,1.5899,1.5899,1.5899,1.5899,1.5935,1.6026,1.6225,1.6382,1.6412,1.6624,1.6684,1.6581,1.6604,1.6644,1.67,1.674,1.6779,1.6785,1.6857,1.6926,1.6932,1.6899,1.6887,1.6917,1.6905,1.6923,1.6893,1.6899,1.6911,1.693,1.6942,1.692,1.6923,1.6923,1.6821,1.6284,1.6231,1.6004,1.5899,1.5899,1.5899,1.5899,1.5899,1.5899,1.5899,1.5899,1.5899,1.5899,1.5899,1.5899,1.5899,1.5899,1.5899,1.5899,1.5899,1.5899,1.5899,1.5899,1.5899,1.5899,1.5899,1.5899,1.5899,1.5899,1.5899,1.5899,1.5899,1.5899,1.5899,1.5899,1.5899,1.5899,1.5899,1.5899,1.5899,1.5899,1.5899,1.5899,1.5899,1.5899,1.5899,1.5899,1.5899,1.5887,1.5855,1.5856,1.585,1.5807,1.5826,1.582,1.5814,1.5814,1.5832,1.5807,1.5838,1.5808,1.5838,1.5826,1.585,1.5843,1.5832,1.5813,1.5801,1.5819,1.5844,1.5876,1.5887,1.5899,1.5899,1.5899,1.5899,1.5899,1.5899,1.5899,1.5899,1.5899,1.5905,1.5923,1.594,1.6038,1.6247,1.6495,1.6658,1.6676,1.6895,1.7065,1.6986,1.6869,1.6734,1.6767,1.6917,1.7032,1.7089,1.7264,1.7336,1.7336,1.7354,1.7409,1.7255,1.7346,1.7342,1.7367,1.7406,1.737,1.7312,1.733,1.7376,1.7406,1.7364,1.7228,1.6344,1.6051,1.5945,1.5899,1.5899,1.5899,1.5899,1.5899,1.5899,1.5899,1.5899,1.5899,1.5899,1.5899,1.5899,1.5899,1.5899,1.5899,1.5899,1.5899,1.5899,1.5899,1.5899,1.5899,1.5899,1.5899,1.5899,1.5899,1.5899,1.5899,1.5899,1.5899,1.5899,1.5899,1.5899,1.5899,1.5899,1.5899,1.5899,1.5899,1.5899,1.5899,1.5899,1.5899,1.5899,1.5899,1.5899,1.5899,1.5899,1.5899,1.5899,1.5899,1.5899,1.5899,1.5899,1.5899,1.5899,1.5899,1.5899,1.5899,1.5899,1.5899,1.5899,1.5899,1.5899,1.5899,1.5899,1.5899,1.5899,1.5899,1.5899,1.5899,1.5899,1.5899,1.5899,1.5899,1.5899,1.5899,1.5899,1.5899,1.5899,1.5985,1.6122,1.6272,1.6404,1.6555,1.6761,1.6917,1.6962,1.7182,1.7318,1.7324,1.7234,1.7185,1.7173,1.7252,1.7324,1.7354,1.7421,1.7479,1.7485,1.7485,1.7493,1.7485,1.7485,1.7485,1.7455,1.7485,1.7485,1.7485,1.7485,1.7485,1.7485,1.7485,1.7358,1.6551,1.6138,1.5971,1.5899,1.5899,1.5899,1.5899,1.5899,1.5899,1.5899,1.5899,1.5899,1.5899,1.5899,1.5899,1.5899,1.5899,1.5899,1.5899,1.5899,1.5899,1.5899,1.5899,1.5899,1.5899,1.5899,1.5899,1.5899,1.5899,1.5899,1.5899,1.5899,1.5899,1.5899,1.5899,1.5899,1.5899,1.5899,1.5899,1.5899,1.5899,1.5899,1.5899,1.5899,1.5899,1.5899,1.5899,1.5899,1.5899,1.5899,1.5899,1.5899,1.5899,1.5899,1.5899,1.5899,1.5899,1.5899,1.5899,1.5899,1.5899,1.5899,1.5899,1.5899,1.5899,1.5899,1.5899,1.5899,1.5899,1.5899,1.5899,1.5899,1.5899,1.5899,1.5899,1.5899,1.5899,1.5899,1.5929,1.5989,1.6024,1.611,1.6376,1.6616,1.6803,1.6819,1.7032,1.7209,1.7228,1.7373,1.7473,1.7485,1.7487,1.7481,1.7485,1.7455,1.7485,1.7485,1.7485,1.7485,1.7485,1.7485,1.7485,1.7485,1.7485,1.7485,1.7485,1.7485,1.7485,1.7485,1.7485,1.7485,1.7485,1.7485,1.7485,1.6968,1.6616,1.6131,1.5948,1.5911,1.5923,1.5917,1.5959,1.5929,1.5917,1.5941,1.5935,1.5917,1.5935,1.5959,1.5891,1.5899,1.5899,1.5899,1.5899,1.5899,1.5899,1.5899,1.5899,1.5899,1.5899,1.5899,1.5899,1.5899,1.5899,1.5899,1.5899,1.5899,1.5899,1.5899,1.5899,1.5899,1.5899,1.5899,1.5899,1.5899,1.5899,1.5899,1.5899,1.5899,1.5899,1.5899,1.5899,1.5899,1.5899,1.5899,1.5899,1.5899,1.5899,1.5899,1.5899,1.5899,1.5899,1.5899,1.5899,1.5899,1.5899,1.5899,1.5899,1.5899,1.5899,1.5899,1.5899,1.5899,1.5899,1.5899,1.5899,1.5899,1.5899,1.5899,1.5899,1.593,1.5941,1.6026,1.6232,1.6317,1.6424,1.6658,1.6926,1.7065,1.7131,1.7312,1.7457,1.7439,1.7481,1.7493,1.7485,1.7485,1.7485,1.7485,1.7485,1.7485,1.7485,1.7485,1.7485,1.7485,1.7485,1.7485,1.7485,1.7485,1.7485,1.7485,1.7485,1.7485,1.7485,1.7485,1.7485,1.7485,1.7485,1.7485,1.7481,1.7003,1.6811,1.6611,1.6404,1.641,1.6391,1.641,1.641,1.6424,1.641,1.641,1.641,1.6404,1.641,1.6217,1.5923,1.5899,1.5899,1.5899,1.5899,1.5899,1.5899,1.5899,1.5899,1.5899,1.5899,1.5899,1.5899,1.5899,1.5899,1.5899,1.5899,1.5899,1.5899,1.5899,1.5899,1.5899,1.5899,1.5899,1.5899,1.5899,1.5899,1.5899,1.5899,1.5899,1.5899,1.5899,1.5899,1.5899,1.5899,1.5899,1.5899,1.5899,1.5899,1.5899,1.5899,1.5899,1.5899,1.5899,1.5899,1.5899,1.5899,1.5899,1.5899,1.5899,1.5899,1.5905,1.5905,1.5899,1.5899,1.5899,1.5899,1.5905,1.5905,1.5989,1.611,1.6158,1.6261,1.6515,1.6696,1.6865,1.6968,1.7191,1.7354,1.7352,1.7439,1.7487,1.7485,1.7485,1.7485,1.7485,1.7485,1.7485,1.7485,1.7485,1.7485,1.7485,1.7485,1.7485,1.7485,1.7485,1.7485,1.7485,1.7485,1.7485,1.7485,1.7485,1.7485,1.7485,1.7485,1.7485,1.7485,1.7485,1.7485,1.786,1.7498,1.7379,1.7212,1.698,1.6896,1.6854,1.6848,1.6742,1.67,1.67,1.67,1.67,1.67,1.67,1.6533,1.6189,1.6157,1.6151,1.6157,1.6171,1.6151,1.6157,1.6151,1.6164,1.6133,1.6068,1.5989,1.5905,1.5899,1.5899,1.5899,1.5899,1.5899,1.5899,1.5899,1.5899,1.5899,1.5899,1.5899,1.5899,1.5899,1.5899,1.5899,1.5899,1.5899,1.5899,1.5899,1.5899,1.5899,1.5899,1.5899,1.5899,1.5899,1.5899,1.5899,1.5899,1.5899,1.5899,1.5899,1.5899,1.5899,1.5899,1.5899,1.5899,1.5899,1.5935,1.5995,1.6032,1.605,1.6133,1.6157,1.6115,1.606,1.611,1.6217,1.6394,1.6438,1.6557,1.6805,1.7058,1.7203,1.7252,1.7385,1.7469,1.7485,1.7485,1.7485,1.7485,1.7485,1.7485,1.7485,1.7485,1.7485,1.7485,1.7485,1.7485,1.7485,1.7485,1.7485,1.7485,1.7485,1.7485,1.7485,1.7485,1.7485,1.7485,1.7485,1.7485,1.7485,1.7485,1.7485,1.7485,1.7485,1.7485,1.8135,1.8058,1.774,1.763,1.7523,1.7321,1.7201,1.7134,1.6861,1.6785,1.6809,1.6748,1.6791,1.6748,1.6811,1.6738,1.6712,1.6706,1.6664,1.6608,1.6634,1.6634,1.6628,1.661,1.6616,1.661,1.6398,1.6171,1.5989,1.5989,1.5989,1.5941,1.597,1.6013,1.5935,1.5989,1.5953,1.5977,1.5995,1.5959,1.5911,1.5971,1.5983,1.5965,1.5958,1.5977,1.5947,1.5917,1.5899,1.5899,1.5899,1.5899,1.5899,1.5899,1.5899,1.5899,1.5899,1.5899,1.5899,1.5899,1.5899,1.5911,1.5911,1.5947,1.5953,1.5977,1.606,1.6263,1.6309,1.6388,1.6592,1.6652,1.6569,1.6384,1.6471,1.6602,1.6682,1.6706,1.6803,1.7077,1.7312,1.7461,1.7473,1.7473,1.7485,1.7485,1.7485,1.7485,1.7485,1.7485,1.7485,1.7485,1.7485,1.7485,1.7485,1.7485,1.7485,1.7485,1.7485,1.7485,1.7485,1.7485,1.7485,1.7485,1.7485,1.7485,1.7485,1.7485,1.7485,1.7485,1.7485,1.7485,1.7485,1.7485,1.7485,1.8856,1.8642,1.8542,1.8253,1.79,1.777,1.7619,1.7405,1.7281,1.7252,1.7258,1.7252,1.7266,1.7252,1.7252,1.7246,1.7258,1.724,1.7079,1.6761,1.6706,1.6718,1.6712,1.6706,1.67,1.6688,1.6616,1.6531,1.6453,1.6435,1.6447,1.6447,1.6441,1.6447,1.6423,1.6467,1.6447,1.6447,1.6467,1.6447,1.6447,1.6447,1.6441,1.646,1.6467,1.6467,1.6442,1.6091,1.5911,1.5911,1.5899,1.5899,1.5899,1.5899,1.5899,1.5899,1.5899,1.5899,1.5905,1.5911,1.5923,1.5941,1.6081,1.6172,1.6195,1.6346,1.6459,1.6575,1.6567,1.6622,1.6692,1.6875,1.6851,1.6604,1.6652,1.6789,1.6974,1.7131,1.729,1.7369,1.7445,1.7493,1.7485,1.7485,1.7485,1.7485,1.7485,1.7485,1.7485,1.7485,1.7485,1.7485,1.7485,1.7485,1.7485,1.7485,1.7485,1.7485,1.7485,1.7485,1.7485,1.7485,1.7485,1.7485,1.7485,1.7485,1.7485,1.7485,1.7485,1.7485,1.7485,1.7485,1.7485,1.7485,1.7485,1.9272,1.9105,1.9091,1.88,1.834,1.8209,1.796,1.7682,1.7558,1.7485,1.7479,1.7493,1.7485,1.7485,1.7485,1.7485,1.7485,1.7485,1.7318,1.7026,1.699,1.701,1.699,1.699,1.693,1.6857,1.6845,1.6791,1.6686,1.67,1.6694,1.6694,1.67,1.6688,1.67,1.67,1.67,1.67,1.6688,1.67,1.67,1.67,1.67,1.6694,1.6694,1.67,1.6676,1.6356,1.6152,1.605,1.5959,1.5905,1.5899,1.5905,1.5928,1.6032,1.6075,1.6105,1.6169,1.6223,1.6187,1.6223,1.6344,1.6448,1.6479,1.6628,1.6732,1.6827,1.6845,1.6901,1.7002,1.7137,1.7167,1.702,1.7022,1.7062,1.7237,1.7391,1.7475,1.7481,1.7479,1.7485,1.7485,1.7485,1.7485,1.7485,1.7485,1.7485,1.7485,1.7485,1.7485,1.7485,1.7485,1.7485,1.7485,1.7485,1.7485,1.7485,1.7485,1.7485,1.7485,1.7485,1.7485,1.7485,1.7485,1.7485,1.7485,1.7485,1.7485,1.7485,1.7485,1.7485,1.7485,1.7485,1.7485,1.9409,1.9409,1.9409,1.917,1.8823,1.8509,1.8215,1.7951,1.7652,1.7485,1.7485,1.7485,1.7485,1.7485,1.7485,1.7485,1.7485,1.7479,1.7467,1.7424,1.7418,1.74,1.7388,1.7403,1.73,1.7149,1.7117,1.701,1.6845,1.6827,1.6742,1.6809,1.6827,1.6767,1.6821,1.6761,1.6817,1.6827,1.6791,1.6797,1.6797,1.6779,1.6785,1.6791,1.6803,1.6809,1.6809,1.6724,1.6561,1.6328,1.6109,1.6032,1.5964,1.5953,1.6104,1.6296,1.6329,1.6436,1.6616,1.661,1.6622,1.6616,1.6664,1.671,1.673,1.6803,1.6932,1.7107,1.7125,1.7216,1.7391,1.7457,1.7451,1.7467,1.7403,1.7433,1.7467,1.7493,1.7479,1.7485,1.7485,1.7485,1.7485,1.7485,1.7485,1.7485,1.7485,1.7485,1.7485,1.7485,1.7485,1.7485,1.7485,1.7485,1.7485,1.7485,1.7485,1.7485,1.7485,1.7485,1.7485,1.7485,1.7485,1.7485,1.7485,1.7485,1.7485,1.7485,1.7485,1.7485,1.7485,1.7485,1.7485,1.7499,1.7488,1.9409,1.9409,1.9409,1.9214,1.8881,1.8546,1.8267,1.7987,1.7667,1.7529,1.7499,1.7485,1.7499,1.7485,1.7485,1.7485,1.7485,1.7485,1.7485,1.7485,1.7485,1.7485,1.7485,1.7485,1.7463,1.7385,1.7352,1.7346,1.7294,1.7237,1.7249,1.7294,1.7252,1.727,1.7294,1.7258,1.7303,1.7288,1.7267,1.7255,1.7255,1.7249,1.7288,1.7288,1.7276,1.7261,1.7249,1.7101,1.6863,1.663,1.6551,1.6503,1.6459,1.6453,1.6483,1.6575,1.6605,1.6616,1.6688,1.6724,1.6712,1.671,1.6899,1.6998,1.701,1.7185,1.7306,1.7397,1.7397,1.7415,1.7467,1.7485,1.7485,1.7485,1.7485,1.7485,1.7485,1.7485,1.7485,1.7485,1.7485,1.7485,1.7485,1.7485,1.7485,1.7485,1.7485,1.7485,1.7485,1.7485,1.7485,1.7485,1.7485,1.7485,1.7485,1.7485,1.7485,1.7485,1.7485,1.7485,1.7485,1.7485,1.7485,1.7485,1.7485,1.7485,1.7485,1.7485,1.7485,1.7485,1.7485,1.7485,1.7505,1.7512,1.7518,2.0909,2.0909,2.0909,2.0429,1.9701,1.9456,1.8911,1.8231,1.7968,1.7807,1.774,1.7705,1.7638,1.7514,1.7485,1.7485,1.7485,1.7485,1.7485,1.7485,1.7485,1.7485,1.7485,1.7485,1.7485,1.7485,1.7485,1.7479,1.7481,1.7485,1.7485,1.7461,1.7485,1.7485,1.7469,1.7485,1.7485,1.7487,1.7485,1.7485,1.7485,1.7485,1.7479,1.7493,1.7485,1.7485,1.7469,1.7348,1.7149,1.692,1.6767,1.67,1.67,1.67,1.6734,1.6853,1.6877,1.6899,1.7022,1.704,1.704,1.7071,1.7189,1.7252,1.7303,1.7421,1.7485,1.7487,1.7485,1.7485,1.7485,1.7485,1.7485,1.7485,1.7485,1.7485,1.7485,1.7485,1.7485,1.7485,1.7485,1.7485,1.7485,1.7485,1.7485,1.7485,1.7485,1.7485,1.7485,1.7485,1.7485,1.7485,1.7485,1.7485,1.7485,1.7485,1.7485,1.7485,1.7485,1.7485,1.7485,1.7485,1.7485,1.7485,1.7485,1.7485,1.7499,1.7499,1.7485,1.7485,1.7485,1.7566,1.7614,1.7663,1.7651,2.301,2.301,2.2996,2.2204,2.1045,2.088,2.0063,1.8853,1.8671,1.8407,1.8106,1.8039,1.7857,1.7564,1.7602,1.7543,1.7499,1.7485,1.7485,1.7485,1.7485,1.7485,1.7485,1.7485,1.7485,1.7485,1.7485,1.7485,1.7485,1.7485,1.7485,1.7485,1.7485,1.7485,1.7485,1.7485,1.7485,1.7485,1.7485,1.7485,1.7485,1.7485,1.7485,1.7485,1.7485,1.7485,1.7485,1.7463,1.7373,1.7141,1.6905,1.6845,1.6815,1.6797,1.6899,1.708,1.7155,1.724,1.7421,1.7421,1.7457,1.7439,1.7451,1.7485,1.7475,1.7473,1.7485,1.7485,1.7485,1.7485,1.7485,1.7485,1.7485,1.7485,1.7485,1.7485,1.7485,1.7485,1.7485,1.7485,1.7485,1.7485,1.7485,1.7485,1.7485,1.7485,1.7485,1.7485,1.7485,1.7485,1.7485,1.7485,1.7485,1.7485,1.7485,1.7485,1.7485,1.7485,1.7485,1.7485,1.7485,1.7485,1.7485,1.7485,1.7485,1.7499,1.7514,1.7499,1.7554,1.7626,1.7717,1.7795,1.7868,1.7916,1.7916,2.301,2.301,2.301,2.2819,2.2501,2.2209,2.1387,2.0221,1.9919,1.926,1.8509,1.8334,1.815,1.7908,1.7878,1.7761,1.7543,1.7514,1.7485,1.7485,1.7485,1.7499,1.7514,1.7514,1.7499,1.7499,1.7485,1.7485,1.7485,1.7485,1.7485,1.7485,1.7485,1.7485,1.7485,1.7485,1.7485,1.7485,1.7485,1.7485,1.7485,1.7485,1.7485,1.7485,1.7485,1.7485,1.7485,1.7485,1.7455,1.7394,1.7328,1.7249,1.727,1.7282,1.7318,1.7354,1.7397,1.7433,1.7481,1.7485,1.7485,1.7485,1.7485,1.7485,1.7485,1.7485,1.7485,1.7485,1.7485,1.7485,1.7485,1.7485,1.7485,1.7485,1.7485,1.7485,1.7485,1.7485,1.7485,1.7485,1.7485,1.7485,1.7485,1.7485,1.7485,1.7485,1.7485,1.7485,1.7485,1.7485,1.7485,1.7485,1.7485,1.7485,1.7485,1.7485,1.7485,1.7485,1.7485,1.7631,1.7631,1.7575,1.7599,1.7569,1.7485,1.7524,1.7653,1.7744,1.7826,1.7901,1.7961,1.8061,1.8152,1.8194,1.8257,2.4695,2.4695,2.4681,2.4362,2.3866,2.3631,2.2894,2.1785,2.0966,2.0228,1.947,1.8941,1.8465,1.82,1.8171,1.8004,1.774,1.7579,1.7587,1.7696,1.7726,1.7746,1.774,1.7711,1.7667,1.7529,1.7485,1.7485,1.7485,1.7499,1.7485,1.7485,1.7485,1.7485,1.7485,1.7485,1.7485,1.7485,1.7485,1.7485,1.7485,1.7485,1.7485,1.7485,1.7485,1.7485,1.7485,1.7485,1.7485,1.7485,1.7485,1.7485,1.7485,1.7485,1.7485,1.7485,1.7485,1.7485,1.7485,1.7485,1.7485,1.7485,1.7485,1.7485,1.7485,1.7485,1.7485,1.7485,1.7485,1.7485,1.7485,1.7485,1.7485,1.7485,1.7485,1.7485,1.7485,1.7485,1.7485,1.7485,1.7485,1.7485,1.7485,1.7485,1.7485,1.7485,1.7485,1.7485,1.7485,1.7485,1.7485,1.7485,1.7485,1.7485,1.7485,1.7485,1.7485,1.7485,1.7485,1.773,1.7922,1.7851,1.7764,1.7758,1.7755,1.7826,1.7934,1.8019,1.8079,1.8122,1.82,1.8345,1.8442,1.8478,1.8587,2.6618,2.6618,2.6618,2.6012,2.516,2.505,2.4367,2.3185,2.2205,2.1459,2.0745,1.9796,1.9578,1.8903,1.8845,1.8567,1.8077,1.7851,1.7866,1.8039,1.8039,1.8054,1.8054,1.8018,1.7931,1.7661,1.7638,1.7623,1.7675,1.7602,1.7646,1.7573,1.7514,1.7499,1.7485,1.7485,1.7485,1.7485,1.7485,1.7485,1.7485,1.7485,1.7485,1.7485,1.7485,1.7485,1.7485,1.7485,1.7485,1.7485,1.7485,1.7485,1.7485,1.7485,1.7485,1.7485,1.7485,1.7485,1.7485,1.7485,1.7485,1.7485,1.7485,1.7485,1.7485,1.7485,1.7485,1.7485,1.7485,1.7485,1.7485,1.7485,1.7485,1.7485,1.7485,1.7485,1.7485,1.7485,1.7485,1.7485,1.7485,1.7485,1.7485,1.7485,1.7485,1.7485,1.7485,1.7485,1.7485,1.7485,1.7485,1.7485,1.7485,1.7485,1.7485,1.7893,1.7839,1.8256,1.8086,1.8137,1.8358,1.8082,1.8013,1.8085,1.8128,1.8149,1.8194,1.8285,1.8333,1.8342,1.8463,1.8647,1.872,1.8772,1.8859,2.6618,2.6618,2.6618,2.6473,2.6313,2.6295,2.5578,2.4598,2.4172,2.2974,2.1424,2.19,2.138,2.0616,2.0321,1.9629,1.8895,1.8532,1.8386,1.845,1.8407,1.8355,1.8348,1.8348,1.8298,1.8202,1.8077,1.8062,1.8115,1.8048,1.7878,1.7849,1.7638,1.7499,1.7485,1.7485,1.7485,1.7485,1.7485,1.7485,1.7485,1.7485,1.7485,1.7485,1.7485,1.7485,1.7485,1.7485,1.7485,1.7485,1.7485,1.7485,1.7485,1.7485,1.7485,1.7485,1.7485,1.7485,1.7485,1.7485,1.7485,1.7485,1.7485,1.7485,1.7485,1.7485,1.7485,1.7485,1.7485,1.7485,1.7485,1.7485,1.7485,1.7485,1.7485,1.7485,1.7485,1.7485,1.7485,1.7485,1.7485,1.7485,1.7485,1.7485,1.7485,1.7485,1.7485,1.7485,1.7485,1.7485,1.7485,1.7485,1.7485,1.7485,1.7485,1.8064,1.8477,1.9384,1.941,1.9026,1.8987,1.8444,1.8301,1.8781,1.8606,1.8334,1.8406,1.8538,1.8583,1.8613,1.8786,1.8975,1.8947,1.8935,1.8971,2.6618,2.6618,2.6618,2.6618,2.6618,2.6618,2.6286,2.5693,2.5055,2.4172,2.3297,2.303,2.265,2.2034,2.1892,2.1409,2.0745,1.9644,1.9499,1.947,1.8999,1.8663,1.8663,1.8642,1.8786,1.8792,1.8632,1.8407,1.8377,1.8112,1.8016,1.7908,1.7667,1.7499,1.7485,1.7485,1.7499,1.7499,1.7499,1.7499,1.7499,1.7499,1.7499,1.7499,1.7499,1.7485,1.7485,1.7485,1.7485,1.7485,1.7485,1.7485,1.7485,1.7485,1.7485,1.7485,1.7485,1.7485,1.7485,1.7485,1.7485,1.7485,1.7485,1.7485,1.7485,1.7485,1.7485,1.7485,1.7485,1.7485,1.7485,1.7485,1.7485,1.7485,1.7485,1.7485,1.7499,1.7499,1.7579,1.7638,1.7675,1.7675,1.7485,1.7485,1.7485,1.7485,1.7485,1.7485,1.7485,1.7721,1.7842,1.8227,1.8471,1.9074,1.9109,1.9455,1.983,2.0565,2.0854,2.0471,2.0566,2.0458,2.0098,2.0051,1.9602,1.9091,1.8717,1.8896,1.8899,1.8952,1.9088,1.9203,1.9122,1.9098,1.9098,2.6618,2.6618,2.6618,2.6618,2.6618,2.6618,2.6605,2.6405,2.5619,2.5008,2.4717,2.4125,2.3698,2.341,2.3311,2.3185,2.2926,2.1287,2.0873,2.0479,1.9889,1.9368,1.9026,1.9026,1.9091,1.9199,1.9098,1.8823,1.8538,1.8252,1.8083,1.7922,1.7667,1.7485,1.7485,1.7485,1.7514,1.7594,1.7608,1.7602,1.7655,1.7631,1.7631,1.7661,1.7675,1.7675,1.7638,1.7631,1.7573,1.7529,1.7485,1.7485,1.7485,1.7485,1.7485,1.7485,1.7485,1.7485,1.7485,1.7485,1.7485,1.7485,1.7485,1.7485,1.7485,1.7485,1.7485,1.7485,1.7485,1.7485,1.7485,1.7485,1.7485,1.7485,1.7505,1.7547,1.7678,1.7837,1.8156,1.8158,1.8054,1.7945,1.7849,1.7485,1.7485,1.7485,1.7485,1.7485,1.7585,1.8307,1.8637,1.9206,1.982,2.0805,2.12,2.1447,2.1787,2.2251,2.2373,2.2122,2.2583,2.3046,2.2392,2.1477,2.0969,2.047,1.9881,1.9424,1.9716,1.9824,1.96,1.9625,1.9874,1.9469,1.9096,2.6618,2.6618,2.6618,2.6618,2.6618,2.6618,2.6618,2.6568,2.6377,2.5756,2.5022,2.5638,2.5417,2.4792,2.4598,2.4005,2.3269,2.2783,2.2176,2.1587,2.0938,2.0206,1.9489,1.9366,1.9315,1.9467,1.9438,1.9156,1.891,1.859,1.8209,1.7995,1.7711,1.7499,1.7499,1.7596,1.7652,1.7878,1.7922,1.8033,1.8179,1.8054,1.8083,1.8188,1.8217,1.81,1.7908,1.7864,1.7784,1.7514,1.7485,1.7485,1.7485,1.7485,1.7485,1.7485,1.7485,1.7485,1.7485,1.7485,1.7485,1.7485,1.7485,1.7485,1.7485,1.7485,1.7485,1.7485,1.7497,1.7536,1.7548,1.7536,1.7512,1.7554,1.762,1.7779,1.7938,1.8141,1.8475,1.94,1.9515,1.8806,1.8342,1.787,1.7485,1.7485,1.7543,1.7708,1.8078,1.9063,2.0221,2.1011,2.1475,2.2394,2.3284,2.3542,2.3685,2.4039,2.3968,2.3856,2.4285,2.4554,2.3685,2.2871,2.2407,2.1636,2.0742,2.0465,2.0734,2.075,2.0639,2.0734,2.0908,2.0262,1.9683,2.6618,2.6618,2.6618,2.6618,2.6618,2.6618,2.6618,2.6618,2.6605,2.6323,2.5971,2.6313,2.6286,2.5811,2.5811,2.5555,2.4958,2.4326,2.3782,2.2757,2.1893,2.0924,2.0385,1.9764,1.9409,1.9649,2.0032,2.0314,1.9774,1.8941,1.8282,1.8083,1.7878,1.7667,1.7646,1.786,1.7954,1.8048,1.8135,1.8282,1.8355,1.8325,1.8296,1.8407,1.8421,1.8267,1.8083,1.8002,1.7834,1.7558,1.7485,1.7485,1.7485,1.7485,1.7485,1.7485,1.7485,1.7485,1.7485,1.7485,1.7485,1.7485,1.7485,1.7485,1.7485,1.7505,1.7505,1.7485,1.7644,1.7726,1.7774,1.7868,1.7919,1.7931,1.7874,1.8575,1.8753,1.8523,1.8893,1.9988,2.0948,2.0456,2.005,1.9946,1.9651,1.9334,1.9567,1.9894,2.0208,2.0824,2.2052,2.3336,2.3667,2.4076,2.4989,2.5622,2.556,2.5779,2.581,2.5755,2.5894,2.5745,2.5002,2.4502,2.4163,2.3157,2.1825,2.1668,2.206,2.1919,2.1699,2.1982,2.2233,2.2078,2.1732,2.6618,2.6618,2.6618,2.6618,2.6618,2.6618,2.6618,2.6618,2.6618,2.6605,2.6618,2.6618,2.6618,2.6605,2.6514,2.6405,2.6459,2.5651,2.4861,2.3852,2.2644,2.1388,2.0623,1.9888,1.9931,1.9873,2.1145,2.1395,2.0909,2.0171,1.9427,1.859,1.875,1.8284,1.7977,1.8094,1.8305,1.8334,1.845,1.8582,1.8655,1.8596,1.8611,1.8625,1.8553,1.8398,1.8142,1.8016,1.7834,1.7558,1.7485,1.7485,1.7485,1.7485,1.7485,1.7485,1.7485,1.7485,1.7485,1.7485,1.7485,1.7485,1.7526,1.7559,1.7751,1.7676,1.7663,1.7738,1.7886,1.7998,1.8046,1.8167,1.82,1.8224,1.8258,1.9219,2.0029,1.9943,2.0513,2.1968,2.2795,2.2871,2.2564,2.2475,2.2079,2.1421,2.1539,2.1957,2.2356,2.2706,2.3665,2.4927,2.5263,2.5463,2.601,2.6801,2.7034,2.7148,2.7179,2.7155,2.695,2.6956,2.6606,2.6203,2.5752,2.4856,2.3597,2.3481,2.3372,2.3341,2.3341,2.3465,2.3566,2.3443,2.3497,2.6618,2.6618,2.6618,2.6618,2.6618,2.6618,2.6618,2.6618,2.6618,2.6618,2.6618,2.6618,2.6618,2.6618,2.6618,2.6618,2.6605,2.65,2.5335,2.3991,2.2791,2.1765,2.1031,2.0881,2.1002,2.1274,2.2268,2.2634,2.2534,2.247,2.133,2.0243,1.9969,1.9282,1.8714,1.8502,1.8655,1.8713,1.8844,1.901,1.9083,1.9047,1.9004,1.9141,1.8989,1.8706,1.8377,1.8127,1.7849,1.7514,1.7485,1.7485,1.7485,1.7548,1.756,1.7566,1.7612,1.7618,1.7632,1.7569,1.7515,1.7497,1.7581,1.7767,1.8042,1.7958,1.7986,1.8118,1.8191,1.8267,1.8285,1.83,1.8457,1.8877,1.9273,2.0161,2.1007,2.1551,2.227,2.3916,2.4452,2.428,2.4548,2.4345,2.3749,2.3046,2.2996,2.3397,2.4119,2.4567,2.5299,2.6156,2.6567,2.6769,2.6799,2.7125,2.72,2.7321,2.7373,2.7448,2.7425,2.75,2.7515,2.7394,2.6818,2.6127,2.5523,2.514,2.4895,2.4925,2.4941,2.4956,2.4779,2.4578,2.4701,2.6618,2.6618,2.6618,2.6618,2.6618,2.6618,2.6618,2.6618,2.6618,2.6618,2.6618,2.6618,2.6618,2.6618,2.6618,2.6618,2.6618,2.6618,2.5852,2.4953,2.3782,2.2982,2.2319,2.1716,2.1545,2.2404,2.3474,2.4075,2.3989,2.4378,2.4128,2.3085,2.1522,2.0286,1.9579,1.8991,1.8931,1.9112,1.9199,1.9307,1.9322,1.9315,1.9272,1.9351,1.9076,1.875,1.8421,1.8156,1.7843,1.7614,1.7518,1.7527,1.7563,1.7675,1.775,1.7774,1.7856,1.7934,1.791,1.7814,1.7682,1.76,1.7777,1.8082,1.8334,1.8222,1.8176,1.8294,1.8605,1.8911,1.8603,1.8752,1.9059,1.9691,2.0428,2.1241,2.205,2.2723,2.3717,2.5218,2.5363,2.5201,2.5651,2.6083,2.5376,2.4687,2.4734,2.4862,2.5459,2.5893,2.6396,2.6696,2.7023,2.7164,2.7155,2.7237,2.7319,2.7455,2.7605,2.7711,2.7801,2.7816,2.784,2.787,2.7816,2.7144,2.6667,2.6517,2.6174,2.5646,2.5884,2.6319,2.608,2.5718,2.5894,2.6618,2.6618,2.6618,2.6618,2.6618,2.6618,2.6618,2.6618,2.6618,2.6618,2.6618,2.6618,2.6618,2.6618,2.6618,2.6618,2.6618,2.6568,2.6336,2.5307,2.4103,2.3698,2.3396,2.3016,2.2488,2.3572,2.4667,2.5326,2.5353,2.6204,2.5816,2.4686,2.3163,2.1806,2.0343,1.9599,1.9178,1.9351,1.9409,1.9409,1.9409,1.9395,1.9395,1.9322,1.8975,1.8663,1.8386,1.8135,1.7872,1.774,1.7711,1.7738,1.7808,1.7886,1.7989,1.8079,1.8176,1.8315,1.8255,1.813,1.794,1.7886,1.8037,1.8309,1.8514,1.8754,1.9143,1.8717,1.9306,1.9845,1.9647,2.0105,2.0705,2.1477,2.1562,2.2284,2.3384,2.4239,2.5264,2.6387,2.6256,2.6122,2.6266,2.6651,2.6245,2.5753,2.5859,2.595,2.6308,2.6644,2.6808,2.7023,2.7153,2.7231,2.7261,2.7463,2.7674,2.7749,2.79,2.8065,2.814,2.817,2.8178,2.8208,2.8118,2.7945,2.765,2.7274,2.6668,2.5991,2.6456,2.7032,2.7144,2.6845,2.7034,2.6618,2.6618,2.6618,2.6618,2.6618,2.6618,2.6618,2.6618,2.6618,2.6618,2.6618,2.6618,2.6618,2.6618,2.6618,2.6618,2.6618,2.6568,2.6204,2.5169,2.4131,2.339,2.3348,2.3348,2.36,2.4787,2.5688,2.6245,2.6391,2.65,2.6446,2.6072,2.4667,2.3059,2.1238,2.0003,1.9453,1.9409,1.9409,1.9409,1.9409,1.9409,1.9416,1.9352,1.8951,1.865,1.8545,1.827,1.806,1.794,1.8061,1.8134,1.8176,1.8236,1.8297,1.8315,1.833,1.8348,1.8333,1.8309,1.8317,1.8297,1.8459,1.8579,1.915,1.9755,2.014,1.9584,2.1023,2.1769,2.1945,2.1984,2.246,2.2967,2.3045,2.3558,2.4672,2.5371,2.6304,2.6792,2.6952,2.7034,2.7019,2.7011,2.6814,2.6688,2.6902,2.7043,2.7094,2.7112,2.7118,2.7231,2.7319,2.7433,2.7539,2.7818,2.8014,2.8065,2.8199,2.8403,2.8537,2.8603,2.8612,2.857,2.8397,2.8193,2.808,2.7945,2.7364,2.6911,2.7099,2.7521,2.7732,2.7876,2.787,2.6618,2.6618,2.6618,2.6618,2.6618,2.6618,2.6618,2.6618,2.6618,2.6618,2.6618,2.6618,2.6618,2.6618,2.6618,2.6618,2.6618,2.6618,2.6163,2.588,2.4667,2.4953,2.4884,2.4556,2.4801,2.5784,2.6527,2.6618,2.6555,2.6618,2.6618,2.6309,2.5417,2.3522,2.1765,2.0608,2.0342,1.9569,1.9409,1.9409,1.943,1.945,1.9494,1.9646,1.9212,1.8987,1.8934,1.8637,1.8395,1.8252,1.8364,1.8348,1.8406,1.8454,1.8569,1.8617,1.8677,1.8828,1.8828,1.8834,1.8844,1.882,1.8928,1.9006,1.9225,2.0288,2.0511,2.0916,2.2311,2.2827,2.2718,2.2742,2.3216,2.4178,2.4587,2.5194,2.5999,2.6334,2.6867,2.6967,2.7096,2.7096,2.7096,2.7096,2.6959,2.6962,2.7071,2.7106,2.7125,2.7148,2.7164,2.7343,2.7461,2.762,2.7825,2.8125,2.8313,2.8373,2.8552,2.8776,2.891,2.8916,2.8895,2.8785,2.8621,2.8457,2.8358,2.8268,2.8148,2.7984,2.7966,2.7921,2.8026,2.8148,2.822,2.6618,2.6618,2.6618,2.6618,2.6618,2.6618,2.6618,2.6618,2.6618,2.6618,2.6618,2.6618,2.6618,2.6618,2.6618,2.6618,2.6618,2.6618,2.6618,2.6409,2.5335,2.5514,2.5756,2.5569,2.5472,2.6286,2.6618,2.6618,2.6618,2.6618,2.6618,2.6405,2.5784,2.452,2.2988,2.2149,2.1552,2.091,2.0715,2.0335,2.0195,2.0007,1.978,1.981,1.9652,1.9456,1.9381,1.9153,1.8853,1.867,1.8586,1.8563,1.8635,1.8714,1.8834,1.8923,1.8977,1.931,1.9668,1.9164,1.9109,1.9054,1.9461,1.9833,2.0294,2.1773,2.2039,2.2514,2.3465,2.3806,2.3899,2.3915,2.4648,2.5646,2.5869,2.6449,2.6594,2.6898,2.6967,2.7081,2.7096,2.7096,2.7096,2.7096,2.7054,2.7114,2.7177,2.72,2.7231,2.7261,2.7351,2.7569,2.7786,2.799,2.8199,2.8454,2.8597,2.8681,2.8821,2.8984,2.8984,2.8969,2.8984,2.8984,2.8821,2.8711,2.8642,2.8552,2.8493,2.8478,2.8484,2.8424,2.8364,2.8412,2.852,2.6618,2.6618,2.6618,2.6618,2.6618,2.6618,2.6618,2.6618,2.6618,2.6618,2.6618,2.6618,2.6618,2.6618,2.6618,2.6618,2.6618,2.6618,2.6618,2.6377,2.5596,2.6012,2.5985,2.566,2.5866,2.63,2.6618,2.6618,2.6618,2.6618,2.6618,2.6618,2.6405,2.5558,2.4638,2.3973,2.3205,2.2495,2.2054,2.162,2.1283,2.0987,2.0625,2.0464,2.0239,2.0094,1.9904,1.9579,1.9334,1.9183,1.9123,1.9083,1.908,1.9098,1.9104,1.9104,1.9104,1.9763,2.0465,1.981,1.9808,2.0061,2.0889,2.1319,2.1898,2.3005,2.3574,2.4054,2.4887,2.5194,2.5424,2.5975,2.6549,2.6815,2.6815,2.6982,2.6997,2.7081,2.7081,2.7096,2.7096,2.7096,2.7096,2.7096,2.7148,2.7246,2.7358,2.7554,2.7569,2.7554,2.7689,2.7953,2.8178,2.8397,2.8606,2.8746,2.8791,2.8821,2.8865,2.8999,2.8999,2.8999,2.8999,2.8999,2.8999,2.8925,2.8836,2.8836,2.8895,2.888,2.8791,2.8776,2.8672,2.8746,2.883,2.6618,2.6618,2.6618,2.6618,2.6618,2.6618,2.6618,2.6618,2.6618,2.6618,2.6618,2.6618,2.6618,2.6618,2.6618,2.6618,2.6618,2.6618,2.6618,2.6377,2.6136,2.6327,2.6327,2.6218,2.6336,2.6459,2.6618,2.6618,2.6618,2.6618,2.6618,2.6618,2.6664,2.6431,2.6331,2.6123,2.4972,2.4024,2.3589,2.3033,2.2726,2.2587,2.1947,2.1323,2.1548,2.1349,2.0797,2.0518,2.0219,1.9675,1.9544,1.9418,1.9104,1.9104,1.9104,1.9104,1.9232,1.9635,2.0734,2.0766,2.086,2.1811,2.3009,2.2638,2.2933,2.3619,2.4895,2.5409,2.5914,2.6212,2.6304,2.6761,2.7096,2.7096,2.7096,2.7096,2.7096,2.7096,2.7096,2.7096,2.7096,2.7133,2.7133,2.7148,2.7215,2.7334,2.753,2.7771,2.7906,2.7891,2.802,2.8298,2.8433,2.8621,2.877,2.891,2.894,2.8984,2.8999,2.8999,2.8999,2.8999,2.8999,2.8999,2.8999,2.8999,2.8969,2.8999,2.8999,2.8999,2.8925,2.8955,2.8999,2.8999,2.8999,2.6618,2.6618,2.6618,2.6618,2.6618,2.6618,2.6618,2.6618,2.6618,2.6618,2.6618,2.6618,2.6618,2.6618,2.6618,2.6618,2.6618,2.6618,2.6618,2.6618,2.6618,2.6582,2.6596,2.6618,2.6568,2.6618,2.6618,2.6618,2.6618,2.6618,2.6618,2.6614,2.6715,2.6963,2.7103,2.718,2.6895,2.5952,2.5225,2.4594,2.4393,2.428,2.3354,2.2825,2.3245,2.2862,2.2354,2.2146,2.162,2.0908,2.0719,2.0106,1.9593,1.92,1.9104,1.92,1.981,2.0655,2.1722,2.1982,2.2664,2.3644,2.4633,2.4232,2.4332,2.4918,2.5624,2.6167,2.667,2.7051,2.7066,2.7096,2.7096,2.7096,2.7096,2.7096,2.7096,2.7096,2.7096,2.7096,2.7118,2.717,2.72,2.7222,2.7373,2.7644,2.7885,2.8118,2.8223,2.8238,2.8394,2.8657,2.8716,2.8815,2.8925,2.8999,2.8999,2.8999,2.8999,2.8999,2.8999,2.8999,2.8999,2.8999,2.8999,2.8999,2.8999,2.8999,2.8999,2.8999,2.8999,2.8999,2.8999,2.8999,2.8999,2.6618,2.6618,2.6618,2.6618,2.6618,2.6618,2.6618,2.6618,2.6618,2.6618,2.6618,2.6618,2.6618,2.6618,2.6618,2.6618,2.6618,2.6618,2.6618,2.6618,2.6618,2.6618,2.6618,2.6618,2.6618,2.6618,2.6618,2.6618,2.6618,2.6618,2.6605,2.6609,2.6963,2.7201,2.7394,2.7921,2.7873,2.7718,2.6994,2.6378,2.6089,2.5704,2.5209,2.487,2.4939,2.494,2.4779,2.4448,2.397,2.3046,2.2304,2.1488,2.0655,1.9657,1.9514,1.9747,2.0535,2.1706,2.2733,2.3248,2.4023,2.4741,2.5256,2.531,2.5609,2.5923,2.6464,2.6625,2.7021,2.7096,2.7096,2.7096,2.7096,2.7096,2.7096,2.7096,2.7096,2.7118,2.7148,2.7179,2.7246,2.7313,2.7524,2.7575,2.7689,2.799,2.8193,2.8397,2.8531,2.8546,2.8672,2.8895,2.8895,2.8895,2.894,2.8999,2.8999,2.8999,2.8999,2.8999,2.8999,2.8999,2.8999,2.8999,2.8999,2.8999,2.8999,2.8999,2.8999,2.8999,2.8999,2.8999,2.8999,2.8999,2.8999,2.6618,2.6618,2.6618,2.6618,2.6618,2.6618,2.6618,2.6618,2.6618,2.6618,2.6618,2.6618,2.6618,2.6618,2.6618,2.6618,2.6618,2.6618,2.6618,2.6618,2.6618,2.6618,2.6618,2.6618,2.6618,2.6618,2.6618,2.6618,2.6618,2.6618,2.6628,2.6651,2.7041,2.7339,2.7605,2.8201,2.852,2.8716,2.84,2.7623,2.7015,2.7435,2.7437,2.6292,2.5721,2.5927,2.566,2.5086,2.4648,2.407,2.4001,2.342,2.2656,2.1353,2.1258,2.1809,2.1627,2.2686,2.3822,2.4587,2.5256,2.6021,2.651,2.6594,2.6731,2.6967,2.7073,2.7096,2.7096,2.7096,2.7096,2.7096,2.7096,2.7096,2.7112,2.7112,2.7112,2.7179,2.7215,2.7297,2.7379,2.756,2.7786,2.7951,2.808,2.8223,2.8352,2.854,2.8755,2.8821,2.8791,2.8955,2.8955,2.8969,2.8999,2.8999,2.8999,2.8999,2.8999,2.8999,2.8999,2.8999,2.8999,2.8999,2.8999,2.8999,2.8999,2.8999,2.8999,2.8999,2.8999,2.8999,2.8999,2.8999,2.8999,2.6618,2.6618,2.6618,2.6618,2.6618,2.6618,2.6618,2.6618,2.6618,2.6618,2.6618,2.6618,2.6618,2.6618,2.6618,2.6618,2.6618,2.6618,2.6618,2.6618,2.6618,2.6618,2.6618,2.6618,2.6618,2.6618,2.6618,2.6618,2.6618,2.6618,2.6628,2.6719,2.7114,2.7573,2.7876,2.8311,2.8751,2.8981,2.8999,2.8534,2.7813,2.8295,2.8489,2.7315,2.7203,2.7263,2.7203,2.6719,2.6277,2.5498,2.4893,2.4371,2.3621,2.2774,2.2703,2.3085,2.3311,2.3582,2.4902,2.5776,2.6258,2.6898,2.7127,2.6936,2.6921,2.7096,2.7096,2.7096,2.7096,2.7096,2.7096,2.7096,2.7096,2.7096,2.7118,2.7133,2.7321,2.7509,2.7584,2.7674,2.7764,2.7885,2.808,2.8223,2.8373,2.8612,2.8711,2.8696,2.8895,2.8999,2.8999,2.8999,2.8999,2.8999,2.8999,2.8999,2.8999,2.8999,2.8999,2.8999,2.8999,2.8999,2.8999,2.8999,2.8999,2.8999,2.8999,2.8999,2.8999,2.8999,2.8999,2.8999,2.8999,2.8999,2.8999,2.6618,2.6618,2.6618,2.6618,2.6618,2.6618,2.6618,2.6618,2.6618,2.6618,2.6618,2.6618,2.6618,2.6618,2.6618,2.6618,2.6618,2.6618,2.6618,2.6618,2.6618,2.6618,2.6618,2.6618,2.6618,2.6618,2.6618,2.6618,2.6618,2.6618,2.6664,2.6793,2.7243,2.7807,2.8032,2.8495,2.8999,2.8999,2.8999,2.8999,2.8955,2.8999,2.8826,2.8871,2.8999,2.8999,2.8969,2.8776,2.8182,2.7375,2.6139,2.5713,2.5093,2.4486,2.4494,2.4694,2.4809,2.5232,2.6019,2.6736,2.7025,2.7254,2.7209,2.7218,2.7224,2.7224,2.7224,2.7224,2.7224,2.7157,2.7157,2.7239,2.7239,2.7209,2.7239,2.7291,2.7569,2.7801,2.7915,2.8005,2.8133,2.8223,2.8373,2.8517,2.8666,2.891,2.8999,2.8999,2.8999,2.8999,2.8999,2.8999,2.8999,2.8999,2.8999,2.8999,2.8999,2.8999,2.8999,2.8999,2.8999,2.8999,2.8999,2.8999,2.8999,2.8999,2.8999,2.8999,2.8999,2.8999,2.8999,2.8999,2.8999,2.8999,2.8999,2.6618,2.6618,2.6618,2.6618,2.6618,2.6618,2.6618,2.6618,2.6618,2.6618,2.6618,2.6618,2.6618,2.6618,2.6618,2.6618,2.6618,2.6618,2.6618,2.6618,2.6618,2.6618,2.6618,2.6618,2.6618,2.6618,2.6618,2.6618,2.6618,2.6618,2.6618,2.6673,2.7422,2.7826,2.794,2.8467,2.8999,2.8999,2.8999,2.8999,2.8999,2.8999,2.8999,2.8999,2.8999,2.8999,2.8984,2.8984,2.8841,2.8489,2.7972,2.7543,2.6983,2.6284,2.6178,2.6299,2.6407,2.6498,2.7075,2.7455,2.7668,2.7674,2.7683,2.7689,2.7704,2.7719,2.7704,2.7698,2.7623,2.7382,2.7382,2.7644,2.7719,2.7629,2.7614,2.7734,2.793,2.805,2.814,2.8283,2.8427,2.8576,2.8761,2.8821,2.8836,2.8999,2.8999,2.8999,2.8999,2.8999,2.8999,2.8999,2.8999,2.8999,2.8999,2.8999,2.8999,2.8999,2.8999,2.8999,2.8999,2.8999,2.8999,2.8999,2.8999,2.8999,2.8999,2.8999,2.8999,2.8999,2.8999,2.8999,2.8999,2.8999,2.8999]}]]